[[{"header":{"parameterUnit":"m.s-1","parameterCategory":1,"la1":30.6,"la2":29.2853,"lo1":-89.7004,"lo2":-87.6739,"dy":0.0162,"dx":0.0183,"nx":112,"ny":82,"refTime":"2026-03-10T12:00:00:Z","depth":0,"parameterNumber":2,"parameterNumberName":"U-component_of_WINDS"},"data":[0.0,0.0,0.0,0.0,0.0,0.0,0.0,0.0,0.0,0.0,0.0,0.0,0.0,0.0,0.0,0.0,0.0,0.0,0.0,0.0,0.0,0.0,0.0,0.0,0.0,0.0,0.0,0.0,0.0,0.0,0.0,0.0,0.0,0.0,0.0,0.0,0.0,0.0,0.0,0.0,0.0,0.0,0.0,0.0,0.0,0.0,0.0,0.0,0.0,0.0,0.0,0.0,0.0,0.0,0.0,0.0,0.0,0.0,0.0,0.0,0.0,0.0,0.0,0.0,0.0,0.0,0.0,0.0,0.0,0.0,0.0,0.0,0.0,0.0,0.0,0.0,0.0,0.0,0.0,0.0,0.0,0.0,0.0,0.0,0.0,0.0,0.0,0.0,0.0,0.0,-5.6497,-6.4073,-7.4543,-8.1052,-8.1208,-7.7589,-7.1503,-6.2551,0.0,0.0,0.0,0.0,0.0,0.0,0.0,0.0,0.0,0.0,0.0,0.0,0.0,0.0,0.0,0.0,0.0,0.0,0.0,0.0,0.0,0.0,0.0,0.0,0.0,0.0,0.0,0.0,0.0,0.0,0.0,0.0,0.0,0.0,0.0,0.0,0.0,0.0,0.0,0.0,0.0,0.0,0.0,0.0,0.0,0.0,0.0,0.0,0.0,0.0,0.0,0.0,0.0,0.0,0.0,0.0,0.0,0.0,0.0,0.0,0.0,0.0,0.0,0.0,0.0,0.0,0.0,0.0,0.0,0.0,0.0,0.0,0.0,0.0,0.0,0.0,0.0,0.0,0.0,0.0,0.0,0.0,0.0,0.0,0.0,0.0,0.0,0.0,0.0,0.0,0.0,0.0,0.0,0.0,0.0,0.0,0.0,0.0,0.0,0.0,0.0,0.0,0.0,0.0,-5.7426,-7.2162,-7.8626,-8.2182,-8.2922,-7.7199,-7.0797,-6.4229,0.0,0.0,0.0,0.0,0.0,0.0,0.0,0.0,0.0,0.0,0.0,0.0,0.0,0.0,0.0,0.0,0.0,0.0,0.0,0.0,0.0,0.0,0.0,0.0,0.0,0.0,0.0,0.0,0.0,0.0,0.0,0.0,0.0,0.0,0.0,0.0,0.0,0.0,0.0,0.0,0.0,0.0,0.0,0.0,0.0,0.0,0.0,0.0,0.0,0.0,0.0,0.0,0.0,0.0,0.0,0.0,0.0,0.0,0.0,0.0,0.0,0.0,0.0,0.0,0.0,0.0,0.0,0.0,0.0,0.0,0.0,0.0,0.0,0.0,0.0,0.0,0.0,0.0,0.0,0.0,0.0,0.0,0.0,0.0,0.0,0.0,0.0,0.0,0.0,0.0,0.0,0.0,0.0,0.0,0.0,0.0,0.0,0.0,0.0,0.0,0.0,0.0,0.0,-5.6571,-6.3176,-7.5752,-8.009,-8.226,-8.265,-7.7277,-7.1113,-6.4619,-5.6883,0.0,0.0,0.0,0.0,0.0,0.0,0.0,0.0,0.0,0.0,0.0,0.0,0.0,0.0,0.0,0.0,0.0,0.0,0.0,0.0,0.0,0.0,0.0,0.0,0.0,0.0,0.0,0.0,0.0,0.0,0.0,0.0,0.0,0.0,0.0,0.0,0.0,0.0,0.0,0.0,0.0,0.0,0.0,0.0,0.0,0.0,0.0,0.0,0.0,0.0,0.0,0.0,0.0,0.0,0.0,0.0,0.0,0.0,0.0,0.0,0.0,0.0,0.0,0.0,0.0,0.0,0.0,0.0,0.0,0.0,0.0,0.0,0.0,0.0,0.0,0.0,0.0,0.0,0.0,0.0,0.0,0.0,0.0,0.0,0.0,0.0,0.0,0.0,0.0,0.0,0.0,0.0,0.0,0.0,0.0,0.0,0.0,0.0,0.0,0.0,0.0,0.0,-6.4262,-6.9385,-7.7416,-8.0578,-8.2026,-8.1792,-7.6575,-7.0602,-6.4307,-5.5281,0.0,0.0,0.0,0.0,0.0,0.0,0.0,0.0,0.0,0.0,0.0,0.0,0.0,0.0,0.0,0.0,0.0,0.0,0.0,0.0,0.0,0.0,0.0,0.0,0.0,0.0,0.0,0.0,0.0,0.0,0.0,0.0,0.0,0.0,0.0,0.0,0.0,0.0,0.0,0.0,0.0,0.0,0.0,0.0,0.0,0.0,0.0,0.0,0.0,0.0,0.0,0.0,0.0,0.0,0.0,0.0,0.0,0.0,0.0,0.0,0.0,0.0,0.0,0.0,0.0,0.0,0.0,0.0,0.0,0.0,0.0,0.0,0.0,0.0,0.0,0.0,0.0,0.0,0.0,0.0,0.0,0.0,0.0,0.0,0.0,0.0,0.0,0.0,0.0,0.0,0.0,0.0,0.0,0.0,0.0,0.0,0.0,0.0,0.0,0.0,0.0,0.0,-6.6057,-7.3992,-7.7701,-8.0513,-8.1753,-8.0974,-7.3992,-6.7751,-6.3257,-5.2702,0.0,0.0,0.0,0.0,0.0,0.0,0.0,0.0,0.0,0.0,0.0,0.0,0.0,0.0,0.0,0.0,0.0,0.0,0.0,0.0,0.0,0.0,0.0,0.0,0.0,0.0,0.0,0.0,0.0,0.0,0.0,0.0,0.0,0.0,0.0,0.0,0.0,0.0,0.0,0.0,0.0,0.0,0.0,0.0,0.0,0.0,0.0,0.0,0.0,0.0,0.0,0.0,0.0,0.0,0.0,0.0,0.0,0.0,0.0,0.0,0.0,0.0,0.0,0.0,0.0,0.0,0.0,0.0,0.0,0.0,0.0,0.0,0.0,0.0,0.0,0.0,0.0,0.0,0.0,0.0,0.0,0.0,0.0,0.0,0.0,0.0,0.0,0.0,0.0,0.0,0.0,0.0,0.0,0.0,0.0,0.0,0.0,0.0,0.0,0.0,0.0,0.0,-6.5507,-7.2874,-7.8377,-8.0323,-8.1095,-8.0722,-7.4155,-6.7734,-6.2356,0.0,0.0,0.0,0.0,0.0,0.0,0.0,0.0,0.0,0.0,0.0,0.0,0.0,0.0,0.0,0.0,0.0,0.0,0.0,0.0,0.0,0.0,0.0,0.0,0.0,0.0,0.0,0.0,0.0,0.0,0.0,0.0,0.0,0.0,0.0,0.0,0.0,0.0,0.0,0.0,0.0,0.0,0.0,0.0,0.0,0.0,0.0,0.0,0.0,0.0,0.0,0.0,0.0,0.0,0.0,0.0,0.0,0.0,0.0,0.0,0.0,0.0,0.0,0.0,0.0,0.0,0.0,0.0,0.0,0.0,0.0,0.0,0.0,0.0,0.0,0.0,0.0,0.0,0.0,0.0,0.0,0.0,0.0,0.0,0.0,0.0,0.0,0.0,0.0,0.0,0.0,0.0,0.0,0.0,0.0,0.0,0.0,0.0,0.0,0.0,0.0,0.0,-5.7209,-6.6093,-7.3367,-7.7742,-7.9462,-8.0155,-7.9812,-7.2585,-6.5979,-6.101,0.0,0.0,0.0,0.0,0.0,0.0,0.0,0.0,0.0,0.0,0.0,0.0,0.0,0.0,0.0,0.0,0.0,0.0,0.0,0.0,0.0,0.0,0.0,0.0,0.0,0.0,0.0,0.0,0.0,0.0,0.0,0.0,0.0,0.0,0.0,0.0,0.0,0.0,0.0,0.0,0.0,0.0,0.0,0.0,0.0,0.0,0.0,0.0,0.0,0.0,0.0,0.0,0.0,0.0,0.0,0.0,0.0,0.0,0.0,0.0,0.0,0.0,0.0,0.0,0.0,0.0,0.0,0.0,0.0,0.0,0.0,0.0,0.0,0.0,0.0,0.0,0.0,0.0,0.0,0.0,0.0,0.0,0.0,0.0,0.0,0.0,0.0,0.0,0.0,0.0,0.0,0.0,0.0,0.0,0.0,0.0,0.0,0.0,0.0,0.0,0.0,0.0,-5.5808,-6.8294,-7.6498,-7.5516,-7.7796,-7.9034,-7.8178,-6.8788,-6.1822,0.0,0.0,0.0,0.0,0.0,0.0,0.0,0.0,0.0,0.0,0.0,0.0,0.0,0.0,0.0,0.0,0.0,0.0,0.0,0.0,0.0,0.0,0.0,0.0,0.0,0.0,0.0,0.0,0.0,0.0,0.0,0.0,0.0,0.0,0.0,0.0,0.0,0.0,0.0,0.0,0.0,0.0,0.0,0.0,0.0,0.0,0.0,0.0,0.0,0.0,0.0,0.0,0.0,0.0,0.0,0.0,0.0,0.0,0.0,0.0,0.0,0.0,0.0,0.0,0.0,0.0,0.0,0.0,0.0,0.0,0.0,0.0,0.0,0.0,0.0,0.0,0.0,0.0,0.0,0.0,0.0,0.0,0.0,0.0,0.0,0.0,0.0,0.0,0.0,0.0,0.0,0.0,0.0,0.0,0.0,0.0,0.0,0.0,0.0,0.0,0.0,0.0,0.0,-5.6641,-6.7658,-7.5089,-7.5357,-7.6609,-7.7347,-7.7114,-7.0984,-6.4513,-5.8389,0.0,0.0,0.0,0.0,0.0,0.0,0.0,0.0,0.0,0.0,0.0,0.0,0.0,0.0,0.0,0.0,0.0,0.0,0.0,0.0,0.0,0.0,0.0,0.0,0.0,0.0,0.0,0.0,0.0,0.0,0.0,0.0,0.0,0.0,0.0,0.0,0.0,0.0,0.0,0.0,0.0,0.0,0.0,0.0,0.0,0.0,0.0,0.0,0.0,0.0,0.0,0.0,0.0,0.0,0.0,0.0,0.0,0.0,0.0,0.0,0.0,0.0,0.0,0.0,0.0,0.0,0.0,0.0,0.0,0.0,0.0,0.0,0.0,0.0,0.0,0.0,0.0,0.0,0.0,0.0,0.0,0.0,0.0,0.0,0.0,0.0,0.0,0.0,0.0,0.0,0.0,0.0,0.0,0.0,0.0,0.0,0.0,0.0,0.0,0.0,0.0,0.0,-5.6475,-6.7072,-7.4321,-7.478,-7.5915,-7.6652,-7.6662,-7.1594,-6.5457,-5.8553,0.0,0.0,0.0,0.0,0.0,0.0,0.0,0.0,0.0,0.0,0.0,0.0,0.0,0.0,0.0,0.0,0.0,0.0,0.0,0.0,0.0,0.0,0.0,0.0,0.0,0.0,0.0,0.0,0.0,0.0,0.0,0.0,0.0,0.0,0.0,0.0,0.0,0.0,0.0,0.0,0.0,0.0,0.0,0.0,0.0,0.0,0.0,0.0,0.0,0.0,0.0,0.0,0.0,0.0,0.0,0.0,0.0,0.0,0.0,0.0,0.0,0.0,0.0,0.0,0.0,0.0,0.0,0.0,0.0,0.0,0.0,0.0,0.0,0.0,0.0,0.0,0.0,0.0,0.0,0.0,0.0,0.0,0.0,0.0,0.0,0.0,0.0,0.0,0.0,0.0,0.0,0.0,0.0,0.0,0.0,0.0,0.0,0.0,0.0,0.0,0.0,0.0,-5.5641,-6.654,-7.3811,-7.376,-7.542,-7.6468,-7.6263,-7.1189,-6.5496,-5.9521,0.0,0.0,0.0,0.0,0.0,0.0,0.0,0.0,0.0,0.0,0.0,0.0,0.0,0.0,0.0,0.0,0.0,0.0,0.0,0.0,0.0,0.0,0.0,0.0,0.0,0.0,0.0,0.0,0.0,0.0,0.0,0.0,0.0,0.0,0.0,0.0,0.0,0.0,0.0,0.0,0.0,0.0,0.0,0.0,0.0,0.0,0.0,0.0,0.0,0.0,0.0,0.0,0.0,0.0,0.0,0.0,0.0,0.0,0.0,0.0,-5.72,-5.302,0.0,0.0,0.0,0.0,0.0,0.0,0.0,0.0,0.0,0.0,0.0,0.0,0.0,0.0,0.0,0.0,0.0,0.0,0.0,0.0,0.0,0.0,0.0,0.0,0.0,0.0,0.0,0.0,0.0,0.0,0.0,0.0,0.0,0.0,0.0,0.0,0.0,0.0,0.0,0.0,-5.5558,-6.5436,-7.1988,-7.1957,-7.4069,-7.4992,-7.3704,-7.1716,-6.7772,-6.1272,-5.5605,0.0,0.0,0.0,0.0,0.0,0.0,0.0,0.0,0.0,0.0,0.0,0.0,0.0,0.0,0.0,0.0,0.0,0.0,0.0,0.0,0.0,0.0,0.0,0.0,0.0,0.0,0.0,0.0,0.0,0.0,0.0,0.0,0.0,0.0,0.0,0.0,0.0,0.0,0.0,0.0,0.0,0.0,0.0,0.0,0.0,0.0,0.0,0.0,0.0,0.0,0.0,0.0,0.0,0.0,0.0,0.0,0.0,0.0,0.0,-6.2567,-5.9627,0.0,0.0,0.0,0.0,0.0,0.0,0.0,0.0,0.0,0.0,0.0,0.0,0.0,0.0,0.0,0.0,0.0,0.0,0.0,0.0,0.0,0.0,0.0,0.0,0.0,0.0,0.0,0.0,0.0,0.0,0.0,0.0,0.0,0.0,0.0,0.0,0.0,0.0,0.0,0.0,-5.6135,-6.5087,-7.1174,-7.1959,-7.3607,-7.4324,-7.3433,-7.2122,-6.9014,-6.3524,-5.7921,0.0,0.0,0.0,0.0,0.0,0.0,0.0,0.0,0.0,0.0,0.0,0.0,0.0,0.0,0.0,0.0,0.0,0.0,0.0,0.0,0.0,0.0,0.0,0.0,0.0,0.0,0.0,0.0,0.0,0.0,0.0,0.0,0.0,0.0,0.0,0.0,0.0,0.0,0.0,0.0,0.0,0.0,0.0,0.0,0.0,0.0,0.0,0.0,0.0,0.0,0.0,0.0,0.0,-6.7319,-6.8592,-6.9388,-6.9993,-7.1004,-7.2039,-6.9305,-6.8144,-6.7754,-6.2083,0.0,0.0,0.0,0.0,0.0,0.0,0.0,0.0,0.0,0.0,0.0,0.0,0.0,0.0,0.0,0.0,0.0,0.0,0.0,0.0,0.0,0.0,-5.5003,-5.9065,-6.0078,-5.8117,-5.087,0.0,0.0,0.0,0.0,0.0,0.0,0.0,0.0,0.0,0.0,0.0,-5.667,-6.4945,-7.0804,-7.2115,-7.3345,-7.3937,-7.3588,-7.2385,-6.9895,-6.5825,-6.0616,-5.5009,0.0,0.0,0.0,0.0,0.0,0.0,0.0,0.0,0.0,0.0,0.0,0.0,0.0,0.0,0.0,0.0,0.0,0.0,0.0,0.0,0.0,0.0,0.0,0.0,0.0,0.0,0.0,0.0,0.0,0.0,0.0,0.0,-5.6978,-5.8676,0.0,0.0,0.0,0.0,0.0,0.0,0.0,0.0,0.0,0.0,0.0,0.0,0.0,-6.5702,-6.9021,-7.1354,-7.4039,-7.7135,-7.8777,-7.995,-8.0704,-8.0101,-7.9929,-8.0174,-7.9675,0.0,-6.8793,-6.7906,0.0,0.0,0.0,0.0,0.0,0.0,0.0,0.0,0.0,0.0,0.0,0.0,0.0,0.0,0.0,0.0,0.0,0.0,0.0,0.0,0.0,0.0,-6.4571,-6.4471,-6.4471,-6.3965,-6.2063,-5.5173,-4.8701,-4.6479,-4.3869,-4.1037,0.0,0.0,0.0,0.0,0.0,0.0,-5.6008,-6.4527,-7.0302,-7.0525,-7.2628,-7.3443,-7.1959,-7.226,-7.1038,-6.7579,-6.5234,-6.132,-5.5364,-5.0874,0.0,0.0,0.0,0.0,0.0,0.0,0.0,0.0,0.0,0.0,0.0,0.0,0.0,0.0,0.0,0.0,0.0,0.0,0.0,0.0,0.0,0.0,0.0,0.0,0.0,0.0,0.0,0.0,0.0,-5.4671,-5.8523,-5.6926,-5.7653,-5.6211,0.0,0.0,0.0,0.0,0.0,0.0,0.0,0.0,0.0,-6.9148,-7.0497,-7.2737,-7.6085,-7.7693,-7.9212,-8.067,-8.2378,-8.3416,-8.3726,-8.3785,-8.3541,-8.312,-8.3498,-8.1046,-7.6503,-7.3207,-6.8769,-6.3692,0.0,0.0,0.0,0.0,-5.9352,-5.981,-6.3359,-6.463,-6.446,-6.3476,0.0,0.0,0.0,0.0,0.0,0.0,0.0,-5.5656,-5.9591,-6.3219,-6.6354,-6.8373,-6.8846,-6.8744,-6.8348,-6.3936,-5.8221,-5.2177,-5.0199,-4.7652,-4.1729,-4.0691,0.0,0.0,0.0,-5.3719,-5.8597,-6.4867,-6.9209,-7.0141,-7.1266,-7.181,-7.1577,-7.1899,-7.1028,-6.8545,-6.6799,-6.3804,-5.9188,-5.5003,-4.9974,0.0,0.0,0.0,0.0,0.0,0.0,0.0,0.0,0.0,0.0,0.0,0.0,0.0,0.0,0.0,0.0,0.0,0.0,0.0,0.0,0.0,0.0,0.0,0.0,0.0,0.0,0.0,0.0,-5.7145,-6.0879,-5.8194,-6.1445,-6.0814,0.0,0.0,0.0,0.0,0.0,0.0,-6.5008,-6.7255,-7.1053,-7.6761,-7.7948,-7.9781,-8.2437,-8.2893,-8.3183,-8.3374,-8.4443,-8.5074,-8.5307,-8.5867,-8.5638,-8.4863,-8.5372,-8.4792,-8.3063,-7.8047,-7.3858,-7.0175,-6.5938,-6.3534,-6.2618,-6.4545,-6.5226,-6.5725,-6.9607,-7.1334,-7.149,-6.9623,-6.7153,-6.424,-6.0812,0.0,0.0,0.0,0.0,-5.9406,-6.4014,-6.6075,-6.7702,-7.0835,-7.1767,-7.187,-7.1636,-6.9772,-6.5878,-5.8208,-5.6761,-5.442,-4.6928,-4.5631,0.0,-4.703,-5.1154,-5.6013,-6.1151,-6.5316,-6.8451,-7.0121,-7.0316,-7.0665,-7.152,-7.1603,-7.0831,-6.9058,-6.7778,-6.561,-6.2284,-5.8806,-5.4484,-4.9299,0.0,0.0,0.0,0.0,0.0,0.0,0.0,0.0,0.0,0.0,0.0,0.0,0.0,0.0,0.0,0.0,0.0,0.0,0.0,0.0,0.0,0.0,0.0,0.0,0.0,0.0,0.0,0.0,0.0,-6.8166,-6.9412,0.0,0.0,0.0,0.0,-6.1049,-6.3569,-6.6919,-7.1131,-7.4587,-7.8793,-8.4013,-8.576,-8.7085,-8.8091,-8.7124,-8.7059,-8.7865,-8.6943,-8.6932,-8.7745,-8.7783,-8.7306,-8.6455,-8.6532,-8.6029,-8.4946,-8.2251,-7.8718,-7.4789,-7.2867,-7.0705,-6.8929,-7.1326,-7.2207,-7.2577,-7.5133,-7.6072,-7.6072,-7.5956,-7.2095,-6.7309,-6.626,-6.2567,0.0,0.0,-6.2896,-6.4435,-6.793,-7.0052,-7.1334,-7.1559,-7.2219,-7.2608,-7.1792,-7.0238,-6.8179,-6.5195,-6.2716,-5.9672,-5.5224,0.0,-5.4212,-5.3444,-5.632,-5.9549,-6.2307,-6.5666,-6.8451,-7.0121,-7.0316,-7.0665,-7.152,-7.1598,-7.0898,-6.922,-6.9026,-6.7783,-6.5095,-6.3208,-5.982,-5.4708,-4.9503,0.0,0.0,0.0,0.0,0.0,0.0,0.0,0.0,0.0,0.0,0.0,0.0,0.0,0.0,0.0,0.0,0.0,0.0,0.0,0.0,0.0,0.0,0.0,0.0,0.0,0.0,0.0,0.0,-6.8334,-7.2148,0.0,-6.6809,-6.7846,-6.8688,-6.8098,-7.201,-7.606,-7.9817,-8.1155,-8.3657,-8.7668,-8.7254,-8.7301,-8.8129,-8.7265,-8.6993,-8.7292,-8.6902,-8.6902,-8.7242,-8.7113,-8.692,-8.6737,-8.6649,-8.6416,-8.6029,-8.4559,-8.2121,-7.9122,-7.7465,-7.5934,-7.4732,-7.5634,-7.633,-7.6953,-7.8402,-7.887,-7.8486,-7.6327,-7.3488,-7.0573,-6.8657,-6.7192,-6.629,-6.6701,-6.7836,-6.9305,-7.1101,-7.2413,-7.3268,-7.3268,-7.3074,-7.2802,-7.2491,-7.152,-7.0277,-6.8762,-6.5549,-6.2061,-5.8921,-5.7955,-5.7295,-5.6457,-5.8316,-6.0896,-6.3971,-6.542,-6.7249,-7.0013,-6.9849,-7.0083,-7.1481,-7.1093,-7.0019,-6.8299,-6.7665,-6.6173,-6.3555,-6.2385,-6.0134,-5.668,-5.213,-4.6281,0.0,0.0,0.0,0.0,0.0,0.0,0.0,0.0,0.0,0.0,0.0,0.0,0.0,0.0,0.0,0.0,0.0,0.0,0.0,0.0,0.0,0.0,0.0,0.0,0.0,-6.3643,-6.8866,-7.0013,-7.5468,-7.6855,-7.1084,-7.387,-7.5891,-7.5587,-7.9291,-8.2676,-8.5282,-8.5944,-8.7106,-8.9012,-8.819,-8.7801,-8.7989,-8.7483,-8.708,-8.6809,-8.6761,-8.6747,-8.6788,-8.6649,-8.6662,-8.6737,-8.6649,-8.661,-8.6571,-8.5991,-8.4405,-8.2238,-8.0865,-7.9796,-7.8963,-7.8718,-7.916,-7.9891,-8.0183,-7.9912,-7.906,-7.6809,-7.4981,-7.3307,-7.1666,-7.1326,-7.1404,-7.061,-7.117,-7.218,-7.2763,-7.354,-7.4123,-7.3812,-7.354,-7.319,-7.2608,-7.1792,-7.1093,-7.0782,-6.8232,-6.5213,-6.2396,-6.1471,-6.0733,-5.9588,-6.041,-6.2153,-6.4958,-6.5317,-6.6367,-6.9172,-6.8979,-6.9228,-7.0626,-6.9453,-6.7969,-6.6524,-6.486,-6.3002,-6.0971,-5.9808,-5.8279,-5.6296,-5.1196,-4.6083,-4.0921,0.0,0.0,0.0,0.0,0.0,0.0,0.0,0.0,0.0,0.0,0.0,0.0,0.0,0.0,0.0,0.0,0.0,0.0,0.0,0.0,0.0,0.0,0.0,-6.1058,-6.7569,-7.2643,-7.4335,-7.9841,-8.2156,-7.8743,-8.0684,-8.2503,-8.3286,-8.4967,-8.6289,-8.7067,-8.87,-8.9178,-8.8313,-8.9051,-8.9051,-8.8186,-8.8041,-8.7584,-8.6797,-8.6675,-8.661,-8.661,-8.661,-8.661,-8.661,-8.661,-8.661,-8.661,-8.661,-8.5604,-8.4018,-8.318,-8.2277,-8.1387,-8.0609,-8.0791,-8.1323,-8.0531,-7.9233,-7.7891,-7.7891,-7.6759,-7.5449,-7.541,-7.4865,-7.4045,-7.319,-7.2957,-7.2957,-7.2957,-7.3579,-7.4006,-7.319,-7.3579,-7.3695,-7.2025,-7.0937,-7.0549,-7.1442,-7.0898,-6.9259,-6.5983,-6.5411,-6.4821,-6.3136,-6.2875,0.0,-6.5211,-6.5348,-6.5962,-6.7708,-6.7857,-6.814,-6.8995,-6.6743,-6.492,-6.4025,-6.0823,-5.8597,-5.774,-5.6059,-5.4734,-5.388,-4.7175,-4.2793,-4.1005,0.0,0.0,0.0,0.0,0.0,0.0,0.0,0.0,0.0,0.0,0.0,0.0,0.0,0.0,0.0,0.0,0.0,0.0,0.0,0.0,0.0,-6.1117,-6.5922,-6.6878,-7.2443,-7.7777,-8.1402,-8.5493,-8.7377,-8.5747,-8.6675,-8.7264,-8.6924,-8.7971,-8.8979,-8.9843,-8.9718,-8.9757,-9.0128,-8.9129,-8.8388,-8.8068,-8.7452,-8.6955,-8.6662,-8.6623,-8.661,-8.661,-8.661,-8.661,-8.661,-8.661,-8.661,-8.661,-8.661,-8.5604,-8.4069,-8.3885,-8.2854,-8.14,-8.07,-8.02,-7.9802,-7.9537,-7.8776,-7.7962,-7.7923,-7.7186,-7.6235,-7.565,-7.5292,-7.4895,-7.4075,-7.3851,-7.4006,-7.4628,-7.4472,-7.4317,-7.4706,-7.4006,-7.3152,-7.2647,-7.1365,-7.0549,-7.1442,-7.0898,-6.9819,-6.8295,-6.7525,-6.6549,-6.4855,-6.4593,0.0,-6.6146,-6.5701,-6.5962,-6.7708,-6.7857,-6.7906,-6.8209,-6.6379,-6.4588,-6.309,-6.0391,-5.8461,-5.7606,-5.6478,-5.5696,-5.5273,-5.0329,-4.7086,0.0,0.0,0.0,0.0,0.0,0.0,0.0,0.0,0.0,0.0,0.0,0.0,0.0,0.0,0.0,0.0,0.0,0.0,0.0,0.0,0.0,0.0,-6.6707,-7.2154,-7.4367,-7.8305,-8.2129,-8.539,-8.812,-8.951,-8.8969,-8.9272,-8.9488,-8.942,-8.9924,-9.0418,-9.0941,-9.0418,-9.0011,-8.976,-8.8731,-8.7979,-8.7518,-8.7041,-8.6737,-8.661,-8.661,-8.661,-8.661,-8.661,-8.661,-8.661,-8.661,-8.661,-8.661,-8.661,-8.5617,0.0,0.0,0.0,0.0,0.0,-7.9145,-7.8185,-7.8486,-7.8088,-7.7455,-7.7427,-7.7069,-7.6612,-7.6134,-7.597,-7.5719,-7.4542,-7.42,-7.4239,-7.4356,-7.4045,-7.3773,-7.4278,-7.3657,-7.2802,-7.2413,-7.1287,-7.0549,-7.1442,-7.0898,0.0,-6.9694,-6.8606,-6.7269,-6.5572,-6.5041,-6.4997,-6.5504,-6.54,-6.5689,-6.6696,-6.7079,-6.7277,-6.7294,-6.5064,0.0,0.0,0.0,-5.6014,-5.4419,-5.3864,0.0,0.0,0.0,0.0,0.0,0.0,0.0,0.0,-4.3215,-4.2872,0.0,0.0,0.0,0.0,0.0,0.0,0.0,0.0,0.0,0.0,0.0,0.0,0.0,0.0,0.0,0.0,-7.1277,-7.7086,-8.217,-8.425,-8.5819,-8.7264,-8.8904,-8.9904,-8.9869,-8.9847,-9.0179,-9.1088,-9.11,-9.1061,-9.1067,-9.0954,0.0,0.0,0.0,-8.7826,-8.6998,-8.6882,-8.6773,-8.6623,-8.6623,-8.6623,-8.661,-8.661,-8.661,-8.661,-8.661,-8.661,-8.661,-8.661,-8.5565,-8.3885,-8.3011,-8.1593,-7.9981,-7.9265,-7.8028,-7.6794,-7.7525,0.0,0.0,-7.6687,-7.6687,-7.6687,-7.6687,-7.6687,-7.6337,-7.4667,-7.42,-7.4006,-7.3152,-7.2841,-7.2802,-7.288,-7.2841,-7.253,-7.1753,-7.0821,-7.0432,-7.1403,-7.0821,-7.0238,-7.0393,-6.9116,-6.7486,-6.5922,-6.4918,-6.4376,-6.4376,-6.4982,-6.5405,-6.53,0.0,0.0,-6.6368,-6.356,-6.1379,-6.0406,-5.6533,-5.3291,-5.0956,-5.0934,-5.0988,-5.1035,-5.1308,-5.1847,-5.2636,-5.2398,-5.2935,-5.3936,-4.6948,-4.5442,0.0,0.0,0.0,0.0,0.0,0.0,0.0,0.0,0.0,0.0,0.0,0.0,0.0,0.0,0.0,-7.0795,-7.6743,-8.2088,-8.5882,-8.7843,-8.8746,-8.8321,-9.0367,-9.1727,-9.1617,-9.1666,-9.1753,-9.1928,-9.1992,-9.2035,-9.2043,-9.1405,-9.0914,-9.0555,-8.9192,-8.8336,-8.8087,-8.7387,-8.6943,-8.6761,0.0,0.0,-8.661,-8.661,-8.661,-8.661,-8.661,-8.661,-8.661,-8.661,-8.5242,-8.3064,-8.2154,-8.0799,-7.9283,-7.9139,-7.8059,-7.6717,-7.6863,-7.6833,-7.6687,-7.6687,-7.6687,-7.6687,-7.6687,-7.6687,0.0,-7.4667,-7.42,-7.4006,-7.3152,-7.2375,-7.2025,-7.2724,-7.2375,-7.1792,-7.1636,-7.0393,-6.9772,-7.1287,-7.0354,-6.9772,-7.1131,-6.9982,-6.8528,-6.75,-6.6574,-6.6023,-6.6023,-6.6164,-6.603,-6.5372,-6.603,-6.6235,-6.5576,-6.4286,-6.2846,-6.1285,-5.8473,-5.6658,-5.6146,-5.6738,-5.7156,-5.7352,-5.7335,-5.7537,-5.7855,-5.7935,-5.7733,-5.7226,-5.3381,-5.2579,0.0,0.0,0.0,0.0,0.0,0.0,0.0,0.0,0.0,0.0,0.0,-5.8448,-6.1394,0.0,-7.1326,-7.5611,-7.9998,-8.4128,-8.7564,-8.9154,-8.9882,-8.9756,-9.1227,-9.2224,-9.2181,-9.2171,-9.221,-9.2256,-9.1879,-9.1677,-9.17,-9.0897,-9.0248,-8.982,-8.8962,-8.8265,-8.7751,-8.7322,-8.7019,-8.686,-8.686,-8.6827,-8.677,-8.6698,-8.6713,-8.6713,-8.6713,-8.6713,-8.6635,-8.5878,-8.4538,-8.2862,-8.162,-8.0078,-7.8544,-7.8069,-7.7409,-7.6752,-7.6696,-7.6687,-7.6687,-7.6687,-7.6687,-7.6687,-7.6687,-7.6687,-7.6337,-7.4667,-7.42,-7.389,-7.2608,-7.1947,-7.1714,-7.2142,-7.1908,-7.1714,-7.2142,-7.0898,-7.0199,-7.1908,-7.086,-7.0083,-7.1365,-7.0549,-6.9539,-6.9111,-6.7985,-6.713,-6.713,-6.6726,-6.6307,-6.5892,-6.6198,-6.6307,-6.5899,-6.4705,-6.3439,-6.2119,-6.0039,-5.8672,-5.8207,-5.8149,-5.8276,-5.8623,-5.8847,-5.9337,-6.0164,-5.9751,-5.9545,-5.9525,-5.7687,-5.7218,0.0,0.0,0.0,0.0,0.0,0.0,0.0,-5.4663,-5.61,-5.9343,-6.226,-6.5055,-6.7965,-7.1726,-7.5668,-7.9642,-8.2226,-8.4909,-8.8227,-8.9164,-8.9824,-9.0689,-9.1462,-9.1948,-9.1937,-9.1811,-9.1741,-9.1778,-9.1171,-9.0797,-9.0826,-9.0014,-8.9235,-8.8534,-8.8339,-8.7882,-8.7113,-8.7113,-8.7072,-8.6933,-8.6933,-8.6924,-8.6904,-8.6849,-8.6804,-8.6804,-8.6804,-8.6727,-8.6467,-8.5039,-8.3834,-8.2736,-8.1014,-7.9454,-7.8023,-7.7261,-7.6881,-7.6785,-7.6734,-7.6687,-7.6687,-7.6687,-7.6687,-7.6687,-7.6687,-7.6609,-7.6143,-7.4628,-7.4084,-7.3579,-7.2025,-7.1598,-7.1598,-7.1598,-7.1714,-7.2025,-7.2763,-7.1675,-7.1015,-7.2608,-7.1481,-7.0588,-7.1442,-7.1015,-7.051,-7.0316,-6.9034,-6.7985,-6.7783,-6.7129,-6.6592,-6.6428,-6.6398,-6.6406,-6.6414,-6.5087,-6.3945,-6.3245,-6.174,-6.0553,-5.9823,-5.9095,-5.8895,-5.9346,-5.9753,-6.0502,-6.1661,-6.0931,-6.0896,-6.1387,-6.1044,-6.0562,-5.1942,-4.9574,-4.9449,-5.2359,-5.4361,-5.7219,0.0,-6.4913,-6.5842,-6.8486,-7.1786,-7.4533,-7.5701,-7.757,-7.9867,-8.2599,-8.3969,-8.5612,-8.8305,-8.811,-8.8231,-8.9768,-9.0657,-9.1119,-9.1032,-9.0397,-8.9963,-8.9987,-8.9947,-8.993,-8.9936,-8.9118,-8.8612,-8.8495,-8.7754,-8.728,-8.7195,-8.7195,-8.716,-8.7072,-8.7072,-8.7028,-8.6904,-8.6894,-8.6884,-8.6884,-8.6884,-8.6457,-8.568,-8.4767,-8.3493,-8.1928,-8.0145,-7.8956,-7.8254,-7.7951,-7.7412,-7.6785,-7.6734,-7.6687,-7.6687,-7.6687,-7.6687,-7.6687,-7.6687,-7.6182,-7.5444,-7.4472,-7.3657,-7.2841,-7.1831,-7.1598,-7.1598,-7.1598,-7.218,-7.2802,-7.288,-7.2142,-7.1753,-7.2724,-7.1481,-7.0588,-7.1442,-7.152,-7.117,-7.0432,-6.9539,-6.8668,-6.782,-6.7618,-6.7243,-6.6472,-6.6381,-6.6422,-6.6501,-6.5607,-6.5025,-6.4908,-6.4054,-6.351,-6.3432,-6.3308,-6.3332,-6.3436,-6.3616,-6.381,-6.403,-6.4086,-6.3819,-6.3232,-6.3982,-6.3141,-5.9747,-5.8739,-5.8901,-6.1929,-6.4403,-6.6867,-6.9759,-7.0841,-7.1836,-7.3963,-7.6345,-7.8332,-7.9191,-8.0392,-8.1864,-8.3933,-8.4558,-8.5729,-8.8344,-8.7954,-8.7638,-8.8263,-8.8204,-8.8453,-8.9362,-8.9194,-8.899,-8.9005,-8.9026,-8.904,-8.904,-8.8222,-8.7754,-8.7754,-8.7404,-8.7209,-8.7209,-8.7209,-8.7195,-8.716,-8.716,-8.7145,-8.7075,-8.7016,-8.7037,-8.7037,-8.7037,-8.6286,-8.505,-8.47,-8.3275,-8.1194,-7.9895,-7.8949,-7.8234,-7.7587,-7.7167,-7.6864,-7.6777,-7.6743,-7.6687,-7.6687,-7.6687,-7.6687,-7.6687,-7.6454,-7.6026,-7.5172,-7.4317,-7.3462,-7.2569,-7.1986,-7.1598,-7.1598,-7.187,-7.2413,-7.3424,-7.2957,-7.2608,-7.3501,-7.2647,-7.1753,-7.1636,-7.1598,-7.1481,-7.1093,-7.0354,-6.9647,-6.9243,-6.8752,-6.8097,-6.72,-6.6665,-6.6428,-6.6431,-6.6144,-6.5965,-6.5965,-6.5165,-6.4691,-6.4691,-6.4163,-6.3971,-6.4082,-6.4189,-6.4291,-6.4385,-6.4124,-6.3837,-6.3535,-6.3961,-6.3571,-6.3075,-6.3833,-6.501,-6.8408,-7.1798,-7.4328,-7.4613,-7.5511,-7.6644,-7.7961,-7.9202,-8.0243,-8.0875,-8.1524,-8.2489,-8.4167,-8.4636,-8.5612,-8.7993,-8.717,-8.6311,-8.6233,-8.4825,-8.4513,-8.6134,-8.6964,-8.7534,-8.778,-8.7825,-8.791,-8.8144,-8.7559,-8.7209,-8.7209,-8.7209,-8.7209,-8.7209,-8.7209,-8.7209,-8.7209,-8.7209,-8.7209,-8.7209,-8.7152,-8.7129,-8.7129,-8.6896,-8.5874,-8.4325,-8.4091,-8.2455,-8.0039,-7.9415,-7.8675,-7.7851,-7.7176,-7.6922,-7.6901,-7.6809,-7.6768,-7.6704,-7.6726,-7.6687,-7.6687,-7.6687,-7.657,-7.6259,-7.5638,-7.4861,-7.4006,-7.3152,-7.2413,-7.1908,-7.1675,-7.1792,-7.2375,-7.389,-7.3695,-7.354,-7.4395,-7.3657,-7.2685,-7.2064,-7.1753,-7.1598,-7.1598,-7.1054,-7.0579,-7.0338,-6.9528,-6.864,-6.7721,-6.7101,-6.6691,-6.6453,-6.6454,-6.6508,-6.6508,-6.5895,-6.5568,-6.5568,-6.4923,-6.4541,-6.4493,-6.4586,-6.4551,-6.4482,-6.4103,-6.3873,-6.3911,-6.3941,-6.4065,-5.8396,-6.0148,-6.267,-6.7897,-7.3095,-7.7129,-7.7969,-7.947,-8.0738,-8.0844,-8.0949,-8.0978,-8.1,-8.1024,-8.1588,-8.3269,-8.4242,-8.5413,-8.717,-8.5218,-8.3578,-8.3543,-8.0558,-7.9189,-8.0853,-8.3273,-8.5111,-8.5994,-8.6072,-8.6423,-8.7209,-8.7209,-8.7209,-8.7209,-8.7209,-8.7209,-8.7209,-8.7209,-8.7209,-8.7209,-8.7209,-8.7209,-8.7209,-8.7209,-8.7202,-8.7163,-8.639,-8.5066,-8.3351,-8.2533,-8.0662,-7.8363,-7.8363,-7.7818,-7.7038,-7.6993,-7.6975,-7.6897,-7.6817,-7.6793,-7.6785,-7.6734,-7.6687,-7.6687,-7.6687,-7.6143,-7.5521,-7.5521,-7.4861,-7.4006,-7.3152,-7.288,-7.2647,-7.1792,-7.2258,-7.3113,-7.4006,-7.4162,-7.4434,-7.5288,-7.4084,-7.288,-7.288,-7.2142,-7.1598,-7.1598,-7.1559,-7.127,-7.0412,-6.9476,-6.8575,-6.7795,-6.7687,-6.7354,-6.654,-6.6508,-6.6508,-6.6508,-6.647,-6.647,-6.647,-6.6423,-6.6157,-6.5576,-6.5628,-6.5341,-6.4707,-6.4797,-6.4833,-6.4833,-6.485,-6.5285,-6.3139,-6.6043,-6.9448,-7.4703,-7.8648,-8.1332,-8.1607,-8.2127,-8.2273,-8.123,-7.9558,-7.8109,-7.7525,-7.7411,-7.7996,-7.9714,-8.2209,-8.4356,-8.5491,-8.4906,-8.3483,-8.1168,-8.0357,-7.9578,-7.8381,-8.0065,-8.2065,-8.4137,-8.4825,-8.5527,-8.6345,-8.6897,-8.7209,-8.7209,-8.7209,-8.7209,-8.7209,-8.7209,-8.7209,-8.7209,-8.7209,-8.7209,-8.717,-8.6663,-8.6702,-8.7131,-8.5728,-8.4793,-8.4169,-8.3312,-8.1442,-7.9104,-7.9104,-7.8246,-7.6999,-7.6999,-7.6993,-7.6975,-7.689,-7.684,-7.6793,-7.6777,-7.6752,-7.6687,-7.6687,-7.6531,-7.6298,-7.6298,-7.5716,-7.4861,-7.4006,-7.3346,-7.2685,-7.1792,-7.1831,-7.2297,-7.3152,-7.3346,-7.3618,-7.4472,-7.3695,-7.2918,-7.2918,-7.218,-7.1598,-7.1598,-7.1598,-7.1481,-7.1193,-7.0374,-6.9726,-6.9433,-6.889,-6.8433,-6.8178,-6.8202,-6.7985,-6.7402,-6.7363,-6.7091,-6.6508,-6.6508,-6.6299,-6.5874,-6.5755,-6.5468,-6.4965,-6.5466,-6.5682,-6.572,-6.6286,-6.6701,-6.6951,-7.0486,-7.3964,-7.952,-8.2377,-8.387,-8.3872,-8.3605,-8.2928,-8.1281,-7.83,-7.5619,-7.4468,-7.3163,-7.3402,-7.6737,-7.9437,-8.2014,-8.4437,-8.4242,-8.2812,-7.994,-7.9556,-7.8958,-7.7602,-7.8149,-7.9805,-8.2701,-8.402,-8.5059,-8.5955,-8.678,-8.7209,-8.7209,-8.7209,-8.7209,-8.7209,-8.7209,-8.7209,-8.7209,-8.7209,-8.7053,-8.6741,-8.6235,-8.6118,-8.6235,-8.4832,-8.4052,-8.3663,-8.2494,-8.0857,-7.9026,-7.8714,-7.7935,-7.6999,-7.6999,-7.6999,-7.6993,-7.6917,-7.6876,-7.6832,-7.6817,-7.6785,-7.6752,-7.6752,-7.6929,-7.7153,-7.7153,-7.6803,-7.6182,-7.5327,-7.4239,-7.3152,-7.2258,-7.1831,-7.1831,-7.2724,-7.2918,-7.3152,-7.4045,-7.3734,-7.3268,-7.2957,-7.218,-7.1598,-7.1598,-7.1598,-7.1598,-7.1598,-7.1107,-7.0663,-7.0313,-6.9808,-6.9342,-6.9071,-6.9095,-6.8878,-6.8296,-6.8257,-6.8016,-6.7417,-6.7122,-6.6791,-6.6449,-6.6248,-6.5961,-6.5588,-6.6248,-6.657,-6.657,-6.7141,-6.7558,-6.966,-7.3405,-7.6228,-8.2091,-8.4169,-8.4793,-8.4715,-8.3974,-8.2785,-8.0895,-7.6933,-7.3289,-7.1448,-6.8482,-6.8214,-7.4215,-7.623,-7.8849,-8.3969,-8.3266,-8.1602,-7.9811,-7.8163,-7.7478,-7.8213,-7.7623,-7.8525,-8.1777,-8.3603,-8.4955,-8.5877,-8.6741,-8.7209,-8.7209,-8.7209,-8.7209,-8.7209,-8.717,-8.7131,-8.7053,-8.7131,-8.6702,-8.5923,-8.5923,-8.5494,-8.4637,-8.3741,-8.2844,-8.1948,-8.0273,-7.9065,-7.8207,-7.7389,-7.7038,-7.6999,-7.6999,-7.6999,-7.6993,-7.6923,-7.691,-7.6904,-7.6908,-7.6871,-7.6793,-7.6832,-7.7382,-7.8008,-7.8046,-7.8046,-7.7813,-7.692,-7.5444,-7.3967,-7.3113,-7.2219,-7.1831,-7.2647,-7.2841,-7.3113,-7.4006,-7.4239,-7.3967,-7.3074,-7.2219,-7.1636,-7.1598,-7.1598,-7.1598,-7.1598,-7.1598,-7.1287,-7.0463,-7.0354,-7.0083,-6.9298,-6.922,-6.922,-6.9181,-6.9142,-6.9126,-6.8998,-6.8272,-6.7691,-6.7409,-6.7145,-6.6856,-6.6576,-6.7169,-6.7496,-6.7478,-6.7486,-6.7922,-7.4916,-7.9292,-8.2591,-8.4793,-8.5962,-8.6235,-8.4988,-8.3507,-8.1019,-7.6048,-7.0992,-6.6322,-6.2645,-6.3358,-6.5673,-6.9168,-7.4914,-7.9899,-8.2483,-8.3057,-8.2269,-7.9868,-7.9724,-7.9416,-7.8408,-7.9214,-8.0201,-8.107,-8.2155,-8.3429,-8.4935,-8.6423,-8.7209,-8.7209,-8.7209,-8.7209,-8.7209,-8.6624,-8.5962,-8.5338,-8.6001,-8.5845,-8.5027,-8.5027,-8.491,-8.4637,-8.3078,-8.2299,-8.2026,-8.0935,-7.961,-7.8285,-7.8051,-7.7584,-7.6999,-7.6999,-7.6999,-7.6999,-7.6987,-7.693,-7.6904,-7.6897,-7.6847,-7.691,-7.7571,-7.7887,-7.8124,-7.8785,-7.8513,-7.7813,-7.692,-7.5444,-7.3967,-7.3113,-7.2219,-7.1675,-7.187,-7.1947,-7.2375,-7.389,-7.4706,-7.4706,-7.3152,-7.2724,-7.2336,-7.1714,-7.1598,-7.1598,-7.1598,-7.1598,-7.1512,-7.1275,-7.127,-7.1184,-7.0911,-7.0934,-7.0679,-6.995,-6.9977,-6.9658,-6.8954,-6.8765,-6.8649,-6.8586,-6.8352,-6.8073,-6.7779,-6.8373,-6.8542,-6.8319,-6.8963,-6.938,-7.9577,-8.3169,-8.5455,-8.6312,-8.6585,-8.5838,-8.2539,-8.0468,-7.7261,-7.0376,-6.5343,-6.1126,-5.7544,-5.8816,-6.1794,-6.5941,-7.2334,-7.7926,-8.1152,-8.237,-8.2241,-8.0406,-8.0545,-8.0434,-7.9487,-8.0266,-8.0974,-8.1337,-8.2539,-8.3663,-8.4663,-8.6306,-8.7209,-8.7209,-8.7209,-8.7014,-8.6663,-8.6235,-8.5572,-8.4715,-8.5182,-8.4988,-8.413,-8.413,-8.3935,-8.3507,-8.2533,-8.187,-8.1442,-8.0584,-7.9454,-7.8246,-7.7896,-7.7428,-7.6999,-7.6999,-7.6999,-7.6999,-7.6999,-7.6987,-7.693,-7.693,-7.6897,-7.6918,-7.7408,-7.8076,-7.8695,-7.9182,-7.894,-7.8474,-7.7969,-7.6298,-7.455,-7.3695,-7.2802,-7.2064,-7.1675,-7.1598,-7.2103,-7.3851,-7.4589,-7.4744,-7.4123,-7.3424,-7.2724,-7.2258,-7.1831,-7.1598,-7.1598,-7.1598,-7.1589,-7.1603,-7.1603,-7.1586,-7.1571,-7.1559,-7.1317,-7.0796,-7.0824,-7.0582,-7.0021,-6.9709,-6.9571,-6.9535,-6.9334,-6.9071,-6.8784,-6.9359,-6.9474,-6.9171,-6.9664,-6.9891,-8.3533,-8.565,-8.6507,-8.7209,-8.6585,-8.4429,-7.9134,-7.631,-7.2546,-6.4575,-6.011,-5.6833,-5.4169,-5.476,-5.7668,-6.3858,-6.9312,-7.4645,-8.0111,-8.1568,-8.1779,-8.1154,-8.1017,-8.0974,-8.0974,-8.0974,-8.1325,-8.2221,-8.3786,-8.4682,-8.4702,-8.6306,-8.7209,-8.7209,-8.7209,-8.6741,-8.5845,-8.5845,-8.5338,-8.4364,-8.4481,-8.4052,-8.3234,-8.3351,-8.2922,-8.2104,-8.1987,-8.1481,-8.0734,-7.9727,-7.8948,-7.8207,-7.735,-7.6999,-7.6999,-7.6999,-7.6999,-7.7038,-7.7116,-7.7155,-7.7155,-7.7038,-7.6936,-7.6904,-7.7032,-7.8077,-7.9234,-7.9308,-7.9221,-7.9134,-7.9134,-7.7308,-7.5288,-7.455,-7.3695,-7.288,-7.2103,-7.2025,-7.2569,-7.4084,-7.4472,-7.4744,-7.5405,-7.4239,-7.3229,-7.3074,-7.2336,-7.1753,-7.1753,-7.1675,-7.1598,-7.1589,-7.1594,-7.1598,-7.1589,-7.1513,-7.1485,-7.1475,-7.1475,-7.1455,-7.1405,-7.0806,-7.0436,-7.036,-7.0218,-6.9974,-6.9679,-7.0134,-7.0214,-6.9891,-6.9891,-6.9891,-8.6118,-8.7404,-8.8105,-8.8222,-8.6585,-8.3533,-7.8239,-7.4053,-6.8836,-6.0195,-5.5697,-5.2266,-4.8861,-5.1369,-5.5938,-6.2049,-6.7503,-7.329,-7.9968,-8.1046,-8.1312,-8.1825,-8.1861,-8.187,-8.187,-8.187,-8.2221,-8.3117,-8.413,-8.4715,-8.4702,-8.6306,-8.7209,-8.7209,-8.7209,-8.6468,-8.4949,-8.491,-8.413,-8.2572,-8.3273,-8.3156,-8.2338,-8.3078,-8.2922,-8.2065,-8.1325,0.0,-8.0695,-7.9142,-7.8441,-7.8207,-7.735,-7.6999,-7.6999,-7.6999,-7.6999,-7.7116,-7.7818,-7.809,-7.7973,-7.7233,-7.6936,-7.7021,-7.7754,-7.8139,-7.8465,-7.9195,-7.8811,-7.8241,-7.8241,-7.6881,-7.5444,-7.5288,-7.4628,-7.3929,-7.3773,-7.4317,-7.49,-7.5211,-7.5793,-7.6104,-7.5599,-7.5249,-7.4783,-7.4084,-7.3229,-7.2685,-7.2685,-7.2064,-7.1581,-7.1586,-7.1607,-7.1571,-7.1445,-7.1475,-7.1455,-7.1324,-7.1405,-7.1405,-7.1313,-7.13,-7.1291,-7.129,-7.1305,-7.1054,-7.0588,-7.067,-7.0422,-6.9891,-6.9891,-6.9891,-8.752,-8.8495,-8.9079,-8.8612,-8.6235,-8.1922,-7.39,-6.9087,-6.3541,-5.3881,-5.0589,-4.878,-4.6604,-4.9845,-5.4086,-5.7864,-6.3375,-6.9411,-7.5886,-7.7633,-7.9182,-8.1788,-8.209,-8.2118,-8.2116,-8.2494,-8.2961,-8.3384,-8.463,-8.5371,-8.5371,-8.654,-8.7209,-8.7209,-8.7209,-8.639,-8.4715,-8.4715,-8.3812,-8.2039,-8.2526,-8.2487,-8.2078,-8.2526,-8.2494,-8.2065,-8.1675,-8.0974,-8.0072,-7.9259,-7.8402,-7.7584,-7.7155,-7.7272,-7.7662,-7.7662,-7.7935,-7.8363,-7.8792,-7.8909,-7.887,-7.8441,-7.8,-7.7787,-7.8631,-7.8504,-7.8295,-7.9134,-7.8703,-7.8008,-7.8008,-7.7075,-7.6026,-7.5599,-7.4822,-7.42,-7.42,-7.4861,-7.5482,-7.5482,-7.6143,-7.657,-7.6182,-7.5793,-7.5366,-7.4939,-7.4123,-7.3579,-7.3579,-7.2802,-7.2094,-7.1642,-7.1616,-7.1571,-7.1465,-7.1455,-7.1415,-7.1302,-7.1345,-7.1405,-7.1334,-7.1465,-7.1542,-7.1543,-7.1586,-7.1326,-7.0813,-7.0785,-7.0498,-6.9891,-6.9891,-6.9891,-8.8566,-8.943,-8.9858,-8.9001,-8.6079,-8.063,-7.0114,-6.4885,-5.9336,-4.9024,-4.674,-4.6394,-4.5748,-4.8607,-5.1873,-5.4289,-5.916,-6.4983,-7.1764,-7.4283,-7.7067,-8.1324,-8.1989,-8.211,-8.2112,-8.2896,-8.3461,-8.3656,-8.5293,-8.6267,-8.6267,-8.6858,-8.7209,-8.7209,-8.7014,-8.6235,-8.4715,-8.452,-8.3611,-8.2019,-8.2052,-8.2052,-8.2026,-8.2091,-8.1987,-8.1831,-8.1831,-8.0935,-7.9493,-7.9493,-7.8636,-7.7311,-7.7467,-7.7857,-7.8324,-7.848,-7.8948,-7.9532,-7.9727,-7.9766,-7.9805,-8.0,-7.9376,-7.863,-7.9111,-7.872,-7.8209,-7.8723,-7.8323,-7.7736,-7.7736,-7.7231,-7.6531,-7.591,-7.5241,-7.4736,-7.4744,-7.5288,-7.5754,-7.5754,-7.6259,-7.6687,-7.6687,-7.6182,-7.5754,-7.5754,-7.5016,-7.4472,-7.4472,-7.3734,-7.2918,-7.2219,-7.1983,-7.1822,-7.1785,-7.1891,-7.1841,-7.1644,-7.1686,-7.1619,-7.1425,-7.1542,-7.1591,-7.162,-7.1586,-7.1326,-7.0813,-7.0785,-7.0498,-6.9891,-6.9891,-6.9891,-8.9526,-9.0326,-9.0755,-8.9897,-8.6507,-8.063,-7.0114,-6.4427,-5.8645,-4.8908,-4.6278,-4.571,-4.5594,-4.6565,-4.8981,-5.3917,-5.6443,-6.1097,-7.0499,-7.3295,-7.5986,-8.0475,-8.1676,-8.2101,-8.2109,-8.2897,-8.3741,-8.452,-8.6157,-8.7092,-8.7092,-8.717,-8.7209,-8.7209,-8.6507,-8.565,-8.4715,-8.3897,-8.3039,-8.2104,-8.2104,-8.2104,-8.2104,-8.2104,-8.1675,-8.0935,-8.0935,-8.0389,0.0,-7.9493,-7.8987,-7.8246,-7.8987,-7.887,-7.8402,-7.9104,-7.9454,-7.961,-8.0422,-8.0695,-8.0818,-8.1597,-8.074,-7.9253,-7.8591,-7.8273,-7.7944,-7.7322,-7.6987,-7.6842,-7.6842,-7.6764,-7.6687,-7.6609,-7.6534,-7.6477,-7.6484,-7.6531,-7.6609,-7.6609,-7.6648,-7.6687,-7.6687,-7.6648,-7.6609,-7.6609,-7.591,-7.5366,-7.5366,-7.4628,-7.4045,-7.3967,-7.3186,-7.2694,-7.2685,-7.3345,-7.3433,-7.2725,-7.2648,-7.2328,-7.1523,-7.1542,-7.1601,-7.1584,-7.1589,-7.1326,-7.0813,-7.0785,-7.0498,-6.9891,-6.9891,-6.9891,-8.824,-9.0404,-9.1534,-9.017,-8.5806,-7.9228,-6.9181,-6.2796,-5.6505,-4.7906,-4.5825,-4.5594,-4.5594,-4.5893,-4.6977,-4.9586,-5.1043,-5.4661,-6.275,-6.5881,-6.9913,-7.6953,-7.8942,-8.0361,-8.1873,-8.3306,-8.4695,-8.6118,-8.6819,-8.7209,-8.7209,-8.7209,-8.7209,-8.7209,-8.6429,-8.5572,-8.4715,-8.3819,-8.2955,-8.2033,-8.2098,-8.2098,-8.2033,-8.2098,-8.1909,-8.1558,-8.1013,-8.0578,0.0,-7.9727,-7.9298,-7.9065,-7.9376,-7.961,-7.9844,-8.0149,-8.0623,-8.1091,-8.1442,-8.1597,-8.1558,-8.1364,-8.0857,-8.0312,-8.0545,-7.9812,-7.8876,-7.8497,-7.7984,-7.7421,-7.6842,-7.6699,-7.6671,-7.6643,-7.6682,-7.6701,-7.6719,-7.6708,-7.6687,-7.6687,-7.6687,-7.6687,-7.6687,-7.6687,-7.6687,-7.6687,-7.6415,-7.6221,-7.6221,-7.5482,-7.4969,-7.4933,-7.4139,-7.3568,-7.3539,-7.3762,-7.3615,-7.2801,-7.2754,-7.2386,-7.1581,-7.1607,-7.1616,-7.1609,-7.1603,-7.1403,-7.1046,-7.1337,-7.1314,-7.0934,-7.1257,-7.139,-8.5439,-8.9019,-9.1261,-8.9781,-8.4656,-7.7598,-6.8474,-6.1524,-5.4824,-4.7165,-4.5594,-4.5594,-4.5594,-4.5594,-4.5893,0.0,0.0,-5.0689,-5.7676,-6.0533,-6.4842,-7.2849,-7.5039,-7.7011,-7.9873,-8.2857,-8.522,-8.6689,-8.7046,-8.7092,-8.6858,-8.6858,-8.6858,-8.6858,-8.5806,-8.4949,-8.4325,-8.3429,-8.2676,-8.2026,-8.2091,-8.2091,-8.2026,-8.2098,-8.1948,-8.1675,-8.1091,-8.0656,0.0,-8.0033,-7.9727,-7.9571,-8.0078,-8.0506,-8.0812,-8.1091,-8.1558,-8.2104,-8.2104,-8.1909,-8.1597,-8.1013,-8.0617,-8.0545,-8.113,-8.0293,-7.913,-7.9063,-7.8388,-7.7537,-7.6872,-7.6652,-7.6642,-7.6622,-7.6632,-7.6652,-7.6691,-7.6681,-7.6708,-7.6717,-7.6687,-7.6687,-7.6687,-7.6687,-7.6687,-7.6687,-7.6687,-7.6687,-7.6687,-7.6221,-7.5862,-7.5788,-7.5207,-7.4713,-7.4402,-7.4382,-7.3974,-7.316,-7.29,-7.2395,-7.1646,-7.1611,-7.1598,-7.1598,-7.1598,-7.1559,-7.1442,-7.1826,-7.1956,-7.1863,-7.2224,-7.2414,-8.1026,-8.5821,-8.9625,-8.8728,-8.3297,-7.6054,-6.8187,-6.0995,-5.4044,-4.7024,-4.5594,-4.5594,-4.5594,-4.5594,-4.5893,-4.6778,0.0,0.0,-5.7532,-5.9261,-6.2175,-6.8533,-6.9997,-7.1868,-7.5425,-8.1126,-8.4979,-8.5835,-8.6721,-8.6858,-8.604,-8.6001,-8.6001,-8.6001,-8.4325,-8.3429,-8.339,-8.2533,-8.2104,-8.2104,-8.2104,-8.2104,-8.2104,-8.2104,-8.1636,-8.0812,-8.0812,-8.0305,0.0,-8.0422,-8.0266,-7.9688,-8.1403,-8.1558,-8.0896,-8.1753,-8.2104,-8.2104,-8.2104,-8.1558,-8.0812,-8.0812,-8.0227,-7.9532,-7.9532,-7.8923,-7.8202,-7.8202,-7.7494,-7.6717,-7.671,-7.6612,-7.6499,-7.6602,-7.657,-7.656,-7.6672,-7.6691,-7.671,-7.6717,-7.6687,-7.6687,-7.6687,-7.6687,-7.6687,-7.6687,-7.6687,-7.6687,-7.6687,-7.6687,-7.6687,-7.6678,-7.6633,-7.6224,-7.5361,-7.5333,-7.5022,-7.412,-7.335,-7.253,-7.1636,-7.1598,-7.1598,-7.1598,-7.1598,-7.1714,-7.1994,-7.1986,-7.2147,-7.2384,-7.2384,-7.2384,-7.2794,-7.6427,-7.8551,-7.6498,-7.2578,-6.7627,-6.1577,-5.6643,-5.1863,-4.6677,-4.5594,-4.5594,-4.5594,-4.5594,-4.6249,-4.8279,-4.8817,0.0,-5.526,-5.9232,-6.35,-6.855,-7.457,-7.8994,-8.0669,-8.2596,-8.4083,-8.494,-8.5318,-8.5377,-8.5143,-8.4559,-8.4481,-8.5104,-8.4013,-8.339,-8.339,-8.2533,-8.2104,-8.2104,-8.2104,-8.2104,-8.2104,-8.2104,-8.1636,-8.0812,-8.0812,-8.0656,-8.0422,-8.0695,-8.0974,-8.1325,-8.187,-8.1909,-8.1714,-8.1987,-8.2104,-8.2104,-8.2104,-8.1519,-8.0695,-8.0111,-7.9337,-7.8675,-7.8675,-7.8864,-7.8968,-7.8365,-7.7494,-7.6669,-7.6632,-7.6573,-7.6477,-7.6466,-7.6477,-7.651,-7.6622,-7.6672,-7.671,-7.6717,-7.6687,-7.6687,-7.6687,-7.6687,-7.6687,-7.6687,-7.6687,-7.6687,-7.6687,-7.6687,-7.6699,-7.6633,-7.6594,-7.6273,-7.5459,-7.5294,-7.4663,-7.3287,-7.2956,-7.244,-7.1636,-7.1598,-7.1598,-7.1598,-7.1598,-7.1636,-7.1714,-7.2503,-7.3301,-7.4113,-7.4113,-7.4113,-6.5204,-6.9395,-7.1758,-7.0136,-6.6406,-6.2073,-5.8192,-5.3812,-4.9654,-4.6275,-4.5594,-4.5518,-4.5171,-4.5133,-4.5633,-4.7201,-4.7471,-4.916,-5.3988,-5.8028,-6.2765,-6.8869,-7.5818,-8.028,-8.076,-8.2635,-8.3859,-8.4093,-8.4441,-8.4546,-8.4247,-8.3702,-8.3507,-8.3702,-8.3195,-8.2922,-8.2922,-8.2377,-8.2104,-8.2104,-8.2104,-8.2104,-8.2104,-8.2104,-8.1792,-8.1286,-8.0935,-8.0974,0.0,-8.0935,-8.1325,-8.2104,-8.2104,-8.2104,-8.2104,-8.2104,-8.2104,-8.2065,-8.1714,-8.1052,-8.0149,-7.9337,-7.848,-7.7818,-7.7818,-7.8402,-7.8864,-7.7975,-7.7229,-7.6743,-7.6651,-7.6583,-7.6477,-7.6444,-7.6444,-7.6466,-7.657,-7.6612,-7.6652,-7.6681,-7.6681,-7.6681,-7.6717,-7.6708,-7.6699,-7.6717,-7.6687,-7.6687,-7.6687,-7.6708,-7.6671,-7.6652,-7.6312,-7.5779,-7.4974,-7.4808,-7.4206,-7.289,-7.2529,-7.2138,-7.1636,-7.1598,-7.1598,-7.1598,-7.1598,-7.18,-7.2227,-7.3363,-7.4248,-7.4895,-7.4895,-7.4895,0.0,-6.38,-6.7665,-6.7548,-6.3219,-5.8535,-5.6919,-5.2133,0.0,-4.5941,-4.5556,-4.5287,-4.4624,-4.4393,-4.4393,-4.4701,-4.4816,-4.7178,-5.384,-5.6791,-6.141,-7.009,-7.4796,-7.7307,-7.7248,-8.1597,-8.4085,-8.3267,-8.3937,-8.4097,-8.3345,-8.3312,-8.2922,-8.2143,-8.2104,-8.2104,-8.2104,-8.2104,-8.2104,-8.2104,-8.2104,-8.2104,-8.2104,-8.2104,-8.2065,0.0,-8.1208,-8.1325,-8.1948,-8.1208,-8.1364,-8.2104,-8.2104,-8.2104,-8.2104,-8.2104,-8.2104,-8.1987,-8.1091,-8.0227,-7.9376,-7.848,-7.7662,-7.6999,-7.6999,-7.7584,-7.8045,-7.7151,-7.6855,-7.6785,-7.6734,-7.6614,-7.6527,-7.6488,-7.6444,-7.6421,-7.6477,-7.6488,-7.656,-7.6672,-7.6652,-7.6604,-7.6699,-7.6681,-7.6701,-7.6708,-7.6717,-7.6717,-7.6717,-7.6681,-7.6701,-7.6691,-7.5867,-7.4965,-7.4159,-7.4004,-7.3558,-7.2782,-7.1991,-7.1598,-7.1598,-7.1598,-7.1598,-7.1598,-7.1636,-7.2202,-7.3315,-7.4341,-7.4857,-7.4895,-7.4895,-7.4895,-4.9738,0.0,-5.4689,-5.3338,-5.1913,-5.0595,0.0,-4.82,-4.6894,-4.5825,-4.5056,-4.4932,-4.6086,-4.5201,-4.5355,-4.8673,-4.9702,-5.1626,-5.5991,-6.3282,-7.0705,-7.7414,-7.972,-8.0721,-8.0731,-8.1831,-8.2448,-8.2254,-8.2474,-8.2518,-8.2337,-8.2364,-8.2299,-8.2104,-8.2104,-8.2104,-8.2104,-8.2104,-8.2104,-8.2104,-8.2104,-8.2104,-8.2104,-8.2104,-8.1753,-8.113,-8.1597,-8.1519,-8.113,-8.1597,-8.1909,-8.2104,-8.2104,-8.2104,-8.2104,-8.2104,-8.2104,-8.1987,-8.1091,-8.0227,-7.9259,-7.7779,-7.7155,-7.6999,-7.6999,-7.7155,-7.7272,-7.7026,-7.6876,-7.6793,-7.6777,-7.6671,-7.6542,-7.6499,-7.6477,-7.6466,-7.6477,-7.6488,-7.651,-7.6622,-7.6622,-7.6583,-7.6604,-7.6604,-7.6632,-7.6614,-7.6682,-7.671,-7.671,-7.669,-7.669,-7.6701,-7.5905,-7.5042,-7.4179,-7.3462,-7.2744,-7.1922,-7.1706,-7.1598,-7.1598,-7.1598,-7.1598,-7.1598,-7.1994,-7.2584,-7.3295,-7.3972,-7.4495,-7.4895,-7.4895,-7.4895,-4.6317,-4.8471,-5.0366,-4.9048,-4.8702,-4.8471,-4.7625,-4.6855,-4.6047,-4.5163,-4.4624,-4.447,-4.5047,-4.4701,-4.5316,-4.8432,-5.0682,-5.4602,-6.2104,-6.9076,-7.5339,-8.0578,-8.2007,-8.2377,-8.1954,-8.2254,-8.2314,-8.1926,-8.1945,-8.199,-8.2005,-8.2046,-8.2104,-8.2104,-8.2104,-8.2104,-8.2104,-8.2104,-8.2104,-8.2104,-8.2104,-8.2104,-8.2104,-8.2104,-8.1831,-8.1403,-8.1909,-8.1831,-8.1442,-8.1909,-8.2104,-8.2104,-8.2104,-8.2104,-8.2104,-8.2104,-8.1831,-8.1364,-8.0506,-7.9376,-7.8207,-7.7272,-7.6999,-7.6999,-7.6999,-7.6999,-7.6999,-7.6999,-7.6949,-7.6847,-7.6864,-7.6743,-7.6633,-7.6622,-7.6581,-7.657,-7.657,-7.657,-7.657,-7.6602,-7.6591,-7.6542,-7.6612,-7.6553,-7.6542,-7.6612,-7.6642,-7.6662,-7.6662,-7.6623,-7.6623,-7.6662,-7.5867,-7.5168,-7.4713,-7.3945,-7.2932,-7.1675,-7.1598,-7.1598,-7.1598,-7.1598,-7.1598,-7.1598,-7.2383,-7.2969,-7.3315,-7.4076,-7.4609,-7.4895,-7.4895,-7.4895,-4.6056,-4.8682,-5.0885,-4.925,-4.9009,-4.8933,-4.7932,-4.6624,-4.5402,-4.4662,-4.4402,-4.4209,-4.391,-4.4419,-4.5573,-4.772,-5.1477,-5.7964,-6.904,-7.354,-7.7213,-8.1412,-8.2628,-8.2773,-8.199,-8.258,-8.2712,-8.1956,-8.1959,-8.1999,-8.1998,-8.2039,-8.2104,-8.2104,-8.2104,-8.2104,-8.2104,-8.2104,-8.2104,-8.2104,-8.2104,-8.2104,-8.2104,-8.2104,-8.2104,-8.2104,0.0,0.0,-8.2104,-8.2104,-8.2104,-8.2104,-8.2104,-8.2026,-8.1909,-8.1909,-8.1364,-8.0461,-7.961,-7.8285,-7.6999,-7.6999,-7.6999,-7.6999,-7.6999,-7.6999,-7.6999,-7.6999,-7.6936,-7.6904,-7.6908,-7.6801,-7.6708,-7.671,-7.6652,-7.6612,-7.6602,-7.6602,-7.6612,-7.6612,-7.657,-7.6499,-7.6553,-7.651,-7.6488,-7.6542,-7.6591,-7.6563,-7.6563,-7.6521,-7.656,-7.6612,-7.5855,-7.5322,-7.5391,-7.4658,-7.3565,-7.2103,-7.187,-7.1761,-7.1598,-7.1598,-7.1598,-7.1598,-7.2741,-7.329,-7.3315,-7.4361,-7.4895,-7.4895,-7.4895,-7.4895,-4.824,-5.1356,-5.2752,-4.7498,-4.7231,-4.7885,-4.6355,-4.5787,-4.5556,-4.5441,-4.4795,-4.4906,-4.6968,-4.7439,-4.8819,-5.2772,-5.8874,-6.5282,-7.1523,-7.4778,-7.7861,-8.1474,-8.2084,-8.2105,-8.1914,-8.2065,-8.2107,-8.1911,-8.1908,-8.1951,-8.1999,-8.1998,-8.2033,-8.2104,-8.2104,-8.2104,-8.2104,-8.2104,-8.2104,-8.2104,-8.2104,-8.2104,-8.2104,-8.2104,-8.2104,-8.2104,0.0,-8.2104,-8.2104,-8.2104,-8.2104,-8.2104,-8.2104,-8.1636,-8.1013,-8.1013,-8.0467,-7.9571,-7.8753,-7.7818,-7.6999,-7.6999,-7.6999,-7.6999,-7.6999,-7.6999,-7.6999,-7.6999,-7.6936,-7.6904,-7.6904,-7.6817,-7.6669,-7.6623,-7.6614,-7.6602,-7.6549,-7.6581,-7.6612,-7.6612,-7.657,-7.6488,-7.6499,-7.6455,-7.6421,-7.6432,-7.6466,-7.6538,-7.6538,-7.657,-7.6612,-7.6691,-7.5915,-7.5391,-7.5486,-7.4714,-7.4101,-7.3825,-7.3113,-7.2383,-7.1636,-7.1598,-7.1598,-7.1598,-7.2741,-7.329,-7.3315,-7.4361,-7.4895,-7.4895,-7.4895,-7.4895,-4.7018,-4.9182,-5.0798,-4.9504,-5.1835,-5.4034,-5.2346,-5.1631,-5.0743,-4.884,-4.8107,-4.7885,-4.8073,-4.968,-5.3314,-6.0508,-6.5556,-7.0213,-7.4942,-7.7028,-7.9066,-8.1582,-8.1959,-8.1971,-8.1948,-8.1977,-8.2003,-8.1964,-8.1926,-8.1943,-8.1983,-8.199,-8.2026,-8.2104,-8.2104,-8.2104,-8.2104,-8.2104,-8.2104,-8.2104,-8.2104,-8.2104,-8.2104,-8.2104,-8.2104,-8.2104,0.0,-8.2104,-8.2104,-8.2104,-8.2104,-8.2065,-8.1597,-8.1169,-8.0695,-7.9766,-7.922,-7.8714,-7.7896,-7.735,-7.6999,-7.6999,-7.6999,-7.6999,-7.6999,-7.6999,-7.6999,-7.6999,-7.6987,-7.693,-7.691,-7.6855,-7.6785,-7.6669,-7.6652,-7.6652,-7.6622,-7.6642,-7.6652,-7.6622,-7.6591,-7.651,-7.6455,-7.6421,-7.6397,-7.6397,-7.6421,-7.6444,-7.6444,-7.6488,-7.6581,-7.6632,-7.6322,-7.6129,-7.6164,-7.5793,-7.5141,-7.4239,-7.3829,-7.3207,-7.2344,-7.2305,-7.2072,-7.1598,-7.2383,-7.2969,-7.3315,-7.4076,-7.4609,-7.4895,-7.4895,-7.4895,-4.6672,-4.7894,-4.9653,-5.218,-5.4977,-5.7236,-5.7633,-5.638,-5.4707,-5.3064,-5.2696,-5.2141,-5.0512,-5.3447,-5.8725,-6.6657,-7.064,-7.4013,-7.7792,-7.9044,-8.0162,-8.1698,-8.197,-8.2029,-8.201,-8.2019,-8.2014,-8.1998,-8.1926,-8.1926,-8.1959,-8.2007,-8.2012,-8.2091,-8.1903,-8.1792,-8.1792,-8.1597,-8.1675,-8.2104,-8.2104,-8.2104,-8.2104,-8.2104,-8.2104,-8.2104,-8.2104,-8.2104,-8.2104,-8.2104,-8.2104,-8.2026,-8.113,-8.0539,-8.0039,-7.8558,-7.8012,-7.7896,-7.7233,-7.6999,-7.6999,-7.6999,-7.6999,-7.6999,-7.6999,-7.6999,-7.6999,-7.6999,-7.6999,-7.6993,-7.693,-7.689,-7.684,-7.676,-7.6708,-7.671,-7.6701,-7.6691,-7.6682,-7.6642,-7.6612,-7.6531,-7.6444,-7.6409,-7.6397,-7.6397,-7.6397,-7.6397,-7.6397,-7.6455,-7.6549,-7.6602,-7.6651,-7.6691,-7.6717,-7.6687,-7.6143,-7.4886,-7.4412,-7.382,-7.2918,-7.2888,-7.2499,-7.1598,-7.2266,-7.2827,-7.3295,-7.3972,-7.4495,-7.4895,-7.4895,-7.4895,-4.9894,-5.1066,-5.2257,-5.4072,-5.1703,-5.0661,-5.7127,-5.5425,-5.3575,-5.7347,-5.8139,-5.7806,-5.6744,-6.0708,-6.5178,-6.8235,-7.2983,-7.698,-7.8922,-7.995,-8.0853,-8.1776,-8.2009,-8.2077,-8.201,-8.2065,-8.2089,-8.2007,-8.1941,-8.1902,-8.1902,-8.199,-8.2007,-8.1998,-8.126,-8.0896,-8.0896,-8.0033,-8.0422,-8.2104,-8.2104,-8.2104,-8.2104,-8.2104,-8.2104,-8.2104,-8.2104,-8.2104,-8.2104,-8.2104,-8.2104,-8.2026,-8.113,-7.9844,-7.8363,-7.7428,-7.7077,-7.7077,-7.7038,-7.6999,-7.6999,-7.6999,-7.6999,-7.6999,-7.6999,-7.6999,-7.6999,-7.6999,-7.6999,-7.6999,-7.6993,-7.691,-7.6808,-7.6801,-7.6752,-7.6708,-7.6701,-7.6691,-7.6691,-7.6691,-7.6602,-7.6488,-7.6477,-7.6432,-7.6397,-7.6397,-7.6397,-7.6397,-7.6397,-7.6455,-7.6549,-7.6602,-7.6651,-7.6691,-7.6717,-7.6687,-7.6648,-7.6531,-7.5077,-7.3816,-7.2953,-7.2918,-7.2499,-7.1598,-7.2663,-7.326,-7.3315,-7.4341,-7.4857,-7.4895,-7.4895,-7.4895,-4.8163,-4.98,-5.191,-5.4139,-5.3869,-5.4723,-6.1252,-6.2322,-6.2669,-6.5349,-6.592,-6.5289,-6.3261,-6.5788,-6.8887,-7.0938,-7.5253,-7.8728,-7.9932,-8.0882,-8.1552,-8.1854,-8.2009,-8.2071,-8.207,-8.2122,-8.2132,-8.2075,-8.2003,-8.1959,-8.1973,-8.145,-8.1181,-8.1253,-8.0416,-7.9994,-7.9994,-7.9637,-7.9799,-8.0497,-8.1013,-8.1286,-8.1325,-8.1831,-8.2104,-8.2065,-8.1519,-8.1286,-8.1247,-8.0695,-8.0812,-8.1208,-8.035,-7.9298,-7.8207,-7.7311,-7.6999,-7.6999,-7.6999,-7.6999,-7.6999,-7.6999,-7.6999,-7.6999,-7.6999,-7.6999,-7.6999,-7.6999,-7.6999,-7.6999,-7.6999,-7.6923,-7.6837,-7.6809,-7.676,-7.6699,-7.6662,-7.6642,-7.6632,-7.6602,-7.6521,-7.6477,-7.6444,-7.6421,-7.6397,-7.6397,-7.6397,-7.6397,-7.6397,-7.6505,-7.656,-7.662,-7.6662,-7.6681,-7.6717,-7.6687,-7.6687,-7.6687,-7.6095,-7.5387,-7.4563,-7.452,-7.3837,-7.2422,-7.3168,-7.3446,-7.3306,-7.4049,-7.4571,-7.4932,-7.5408,-7.537,-4.7124,-4.8232,-5.0339,-5.3181,-5.4963,-5.7904,-6.5192,-6.7106,-6.8417,-7.2055,-7.1905,-7.0466,-6.8374,-6.966,-7.16,-7.3315,-7.7039,-8.0087,-8.1223,-8.1698,-8.1892,-8.1892,-8.2009,-8.2116,-8.2081,-8.2176,-8.2156,-8.2089,-8.2069,-8.1881,-8.1554,-8.1001,-8.0567,-8.0387,-7.9501,-7.9058,-7.9097,-7.8819,-7.8552,-7.8297,-7.9155,-7.9721,-8.0033,-8.0617,-8.0734,-8.0461,-7.9877,-7.9604,-7.9571,-7.9253,-7.9487,-7.9955,-7.9331,-7.8636,-7.7818,-7.7233,-7.6999,-7.6999,-7.6999,-7.6999,-7.6999,-7.6999,-7.6999,-7.6999,-7.6999,-7.6999,-7.6999,-7.6999,-7.6999,-7.6999,-7.6999,-7.6981,-7.6904,-7.6832,-7.6777,-7.6717,-7.6662,-7.6612,-7.6531,-7.6488,-7.6466,-7.6444,-7.6409,-7.6397,-7.6397,-7.6397,-7.6397,-7.6397,-7.6436,-7.6516,-7.662,-7.6622,-7.6671,-7.6687,-7.6687,-7.6687,-7.6687,-7.6687,-7.6687,-7.6328,-7.5543,-7.5491,-7.48,-7.3346,-7.3712,-7.3843,-7.3677,-7.4113,-7.4533,-7.4932,-7.5731,-7.5653,-4.7586,-4.6932,-4.7833,-5.133,-5.4202,-5.8643,-6.8272,-6.8373,-6.8731,-7.6735,-7.5468,-7.2705,-7.1824,-7.2289,-7.3382,-7.5042,-7.8282,-8.1184,-8.2873,-8.2407,-8.1892,-8.1892,-8.2009,-8.2116,-8.2081,-8.2176,-8.2176,-8.2098,-8.209,-8.1659,-8.064,-8.0737,-8.0394,-7.9504,-7.8596,-7.8135,-7.8174,-7.7323,-7.6493,-7.5629,-7.6501,-7.7383,-7.8267,-7.8267,-7.7838,-7.7014,-7.6975,-7.6987,-7.7077,-7.794,-7.8285,-7.8318,-7.8279,-7.7779,-7.6999,-7.6999,-7.6999,-7.6999,-7.6999,-7.6999,-7.6999,-7.6999,-7.6999,-7.6999,-7.6999,-7.6999,-7.6999,-7.6999,-7.6999,-7.6999,-7.6999,-7.6999,-7.6981,-7.6915,-7.6864,-7.6768,-7.6719,-7.6612,-7.6488,-7.6488,-7.6444,-7.6397,-7.6397,-7.6397,-7.6397,-7.6397,-7.6397,-7.6436,-7.6487,-7.6555,-7.6612,-7.6708,-7.6687,-7.6687,-7.6687,-7.6687,-7.6687,-7.6687,-7.6687,-7.6328,-7.5543,-7.5504,-7.5115,-7.4243,-7.4403,-7.4512,-7.4495,-7.476,-7.4895,-7.4932,-7.5731,-7.5666,-4.6663,-4.9203,-5.2903,-5.4431,-6.0007,-6.6694,-7.2599,-7.334,-7.4685,-8.135,-8.0468,-7.7779,-7.5608,-7.5931,-7.6457,-7.6254,-7.868,-8.1184,-8.2873,-8.2407,-8.1892,-8.1892,-8.197,-8.2038,-8.2081,-8.2176,-8.2176,-8.2176,-8.2129,-8.1675,-8.0706,-8.0137,-7.9435,-7.8599,-7.7708,-7.7272,-7.7272,-7.704,-7.678,-7.6508,-7.6799,-7.6732,-7.6403,-7.7083,-7.7245,-7.6972,-7.6348,-7.6426,-7.7055,-7.794,-7.8291,-7.8285,-7.8285,-7.8129,-7.7857,-7.7233,-7.6999,-7.6999,-7.6999,-7.6999,-7.6999,-7.6999,-7.6999,-7.6999,-7.6999,-7.6999,-7.6999,-7.6999,-7.6999,-7.6999,-7.6999,-7.6999,-7.6987,-7.6904,-7.6883,-7.684,-7.6651,-7.6594,-7.6534,-7.6455,-7.6409,-7.6397,-7.6397,-7.6397,-7.6397,-7.6397,-7.6448,-7.6525,-7.6641,-7.6664,-7.6676,-7.6708,-7.6687,-7.6687,-7.6687,-7.6687,-7.6687,-7.6687,-7.6687,-7.66,-7.6367,-7.6328,-7.5979,-7.5115,-7.5318,-7.5105,-7.4495,-7.476,-7.5218,-7.5731,-7.5979,-7.599,-4.8227,-5.1191,-5.5242,-5.9133,-6.4598,-7.0727,-7.7128,-7.9104,-8.0652,-8.438,-8.3336,-8.1088,-7.8703,-7.8712,-7.8898,-7.8282,-7.9825,-8.1582,-8.2912,-8.2096,-8.1387,-8.1387,-8.1478,-8.1553,-8.1562,-8.1968,-8.2215,-8.2215,-8.2143,-8.1571,-8.0305,-7.9707,-7.8871,-7.7706,-7.7163,-7.6882,-7.6882,-7.6882,-7.6727,-7.637,-7.6421,-7.5953,-7.5156,-7.5725,-7.5775,-7.5418,-7.4912,-7.538,-7.6504,-7.7044,-7.7467,-7.7779,-7.7779,-7.7779,-7.774,-7.7194,-7.6999,-7.6999,-7.6999,-7.6999,-7.6999,-7.6999,-7.6999,-7.6999,-7.6999,-7.6999,-7.6999,-7.6999,-7.6999,-7.6999,-7.6999,-7.6999,-7.6987,-7.6917,-7.6897,-7.6808,-7.6651,-7.6604,-7.6545,-7.6432,-7.6397,-7.6397,-7.6397,-7.6397,-7.6397,-7.6397,-7.6487,-7.6564,-7.668,-7.6682,-7.671,-7.6708,-7.6687,-7.6687,-7.6687,-7.6687,-7.6687,-7.6687,-7.6687,-7.6687,-7.6687,-7.6687,-7.6484,-7.5979,-7.5979,-7.5684,-7.5008,-7.537,-7.558,-7.5656,-7.6297,-7.6272,-5.1022,-5.297,-5.6141,-6.4549,-6.8461,-7.2601,-8.1507,-8.4798,-8.6015,-8.6015,-8.4699,-8.3003,-8.1156,-8.0837,-8.082,-8.0736,-8.131,-8.2048,-8.2864,-8.1552,-8.0464,-8.0464,-8.0647,-8.08,-8.0807,-8.1717,-8.226,-8.2215,-8.2143,-8.1384,-7.9695,-7.9506,-7.8686,-7.7075,-7.6876,-7.6825,-7.6903,-7.6903,-7.6514,-7.5708,-7.5785,-7.539,-7.465,-7.4472,-7.3932,-7.3108,-7.3186,-7.4116,-7.5591,-7.5747,-7.6292,-7.6999,-7.6999,-7.6999,-7.6999,-7.6999,-7.6999,-7.6999,-7.6999,-7.6999,-7.6999,-7.6999,-7.6999,-7.6999,-7.6999,-7.6999,-7.6999,-7.6999,-7.6999,-7.6999,-7.6999,-7.6999,-7.6993,-7.6917,-7.6851,-7.6793,-7.6669,-7.6594,-7.6553,-7.6444,-7.6409,-7.6397,-7.6397,-7.6397,-7.6397,-7.6397,-7.6525,-7.6614,-7.6703,-7.6691,-7.6687,-7.6687,-7.6687,-7.6687,-7.6687,-7.6687,-7.6687,-7.6687,-7.6687,-7.6687,-7.6687,-7.6687,-7.6687,-7.6687,-7.6445,-7.6159,-7.5932,-7.6288,-7.5997,-7.5177,-7.6554,-7.6402,-5.0109,-5.483,-6.096,-6.6203,-7.3402,-8.0139,-8.3577,-8.568,-8.6911,-8.6841,-8.6062,-8.4823,-8.291,-8.2634,-8.2495,-8.1756,-8.1193,-8.1193,-8.2048,-8.0649,-7.9562,-7.9562,-8.0253,-8.0739,-8.0807,-8.1676,-8.2256,-8.2296,-8.2241,-8.1689,-8.0578,-7.9861,-7.8958,-7.7861,-7.7157,-7.6824,-7.6902,-7.6902,-7.6808,-7.6604,-7.6649,-7.6565,-7.637,-7.5006,-7.3921,-7.3147,-7.3837,-7.4338,-7.4806,-7.6175,-7.6843,-7.6999,-7.6999,-7.6999,-7.6999,-7.6999,-7.6999,-7.6999,-7.6999,-7.6999,-7.6999,-7.6999,-7.6999,-7.6999,-7.6999,-7.6999,-7.6999,-7.6999,-7.6999,-7.6999,-7.6999,-7.6999,-7.6999,-7.6987,-7.6981,-7.6917,-7.6801,-7.6713,-7.6662,-7.6563,-7.6466,-7.6397,-7.6397,-7.6397,-7.6448,-7.6525,-7.6564,-7.6632,-7.6682,-7.6699,-7.6687,-7.6687,-7.6687,-7.6687,-7.6687,-7.6687,-7.6687,-7.6687,-7.6687,-7.6687,-7.6687,-7.6687,-7.6687,-7.6687,-7.6445,-7.6478,-7.6803,-7.5994,-7.6011,-7.6835,-7.5893,-7.5577,-5.2183,-5.6961,-6.2697,-7.0791,-7.7793,-8.2915,-8.3831,-8.5039,-8.596,-8.5922,-8.5945,-8.5509,-8.4055,-8.3507,-8.2854,-8.1484,-8.0901,-8.0599,-8.0659,-7.9523,-7.8668,-7.8668,-7.9514,-8.0146,-8.0188,-8.1445,-8.2246,-8.2296,-8.2237,-8.1626,-8.024,-7.9731,-7.8832,-7.7464,-7.6998,-7.6764,-7.6803,-7.6885,-7.691,-7.691,-7.6942,-7.696,-7.696,-7.563,-7.4778,-7.4361,-7.4823,-7.5246,-7.5708,-7.6649,-7.6999,-7.6999,-7.6999,-7.6999,-7.6999,-7.6999,-7.6999,-7.6999,-7.6999,-7.6727,-7.6448,-7.6843,-7.6448,-7.5824,-7.6253,-7.637,-7.637,-7.637,-7.6688,-7.6999,-7.6999,-7.6999,-7.6999,-7.6999,-7.6999,-7.693,-7.6786,-7.6721,-7.6642,-7.6531,-7.6444,-7.6397,-7.6397,-7.6436,-7.6487,-7.6564,-7.6615,-7.6642,-7.6708,-7.6687,-7.6687,-7.6687,-7.6687,-7.6687,-7.6687,-7.6687,-7.6687,-7.6687,-7.6687,-7.6687,-7.6687,-7.6687,-7.6687,-7.6687,-7.6561,-7.6484,-7.6484,-7.6272,-7.6196,-7.6175,-7.569,-7.5484,-5.3445,-5.8217,-6.3754,-7.5567,-8.0623,-8.2805,-8.3117,-8.3858,-8.4475,-8.4402,-8.5096,-8.5346,-8.4237,-8.3523,-8.2473,-8.0668,-8.0249,-7.9917,-7.9182,-7.8318,-7.7775,-7.7775,-7.8793,-7.9488,-7.9488,-8.1051,-8.2098,-8.2098,-8.1875,-8.109,-7.9595,-7.9306,-7.8431,-7.6782,-7.6579,-7.6415,-7.6259,-7.6373,-7.6458,-7.6434,-7.654,-7.6649,-7.6765,-7.6019,-7.5713,-7.5691,-7.5691,-7.6114,-7.6804,-7.696,-7.6999,-7.6999,-7.6999,-7.6999,-7.6999,-7.6999,-7.6999,-7.6999,-7.6999,-7.6409,-7.5824,-7.6532,-7.5708,-7.4533,-7.5279,-7.5591,-7.5708,-7.5708,-7.6448,-7.7194,-7.7038,-7.7116,-7.7194,-7.7038,-7.6999,-7.6969,-7.6801,-7.6734,-7.6662,-7.6477,-7.6421,-7.6397,-7.6397,-7.6448,-7.6537,-7.661,-7.6662,-7.6687,-7.6687,-7.6687,-7.6687,-7.6687,-7.6687,-7.6687,-7.6687,-7.6687,-7.6687,-7.6687,-7.6687,-7.6687,-7.6687,-7.6687,-7.6687,-7.6687,-7.6687,-7.6484,-7.6009,-7.6602,-7.6251,-7.5122,-7.5656,-7.5542,-4.8104,-5.6356,-6.695,-7.6864,-7.9688,-8.0428,-8.1909,-8.2961,-8.3585,-8.3539,-8.4241,-8.4324,-8.2573,-8.2201,-8.1578,-7.9774,-7.8832,-7.8327,-7.8202,-7.7425,-7.6881,-7.6881,-7.8442,-7.9488,-7.9488,-8.0505,-8.1161,-8.1161,-8.0455,-7.9888,-7.9608,-7.8809,-7.7884,-7.6801,-7.603,-7.5288,-7.455,-7.4559,-7.4569,-7.4658,-7.4703,-7.5156,-7.5863,-7.5747,-7.5708,-7.5708,-7.5708,-7.5785,-7.5941,-7.6688,-7.6999,-7.6999,-7.6999,-7.6999,-7.6999,-7.6999,-7.6999,-7.6999,-7.6999,-7.6409,-7.5708,-7.5842,-7.5212,-7.4416,-7.4539,-7.509,-7.5719,-7.5708,-7.6882,-7.794,-7.7194,-7.7545,-7.794,-7.7194,-7.6999,-7.6993,-7.6975,-7.6832,-7.6711,-7.6681,-7.6538,-7.6397,-7.6487,-7.6487,-7.6555,-7.6662,-7.6708,-7.6687,-7.6687,-7.6687,-7.6687,-7.6687,-7.6687,-7.6687,-7.6687,-7.6687,-7.6687,-7.6687,-7.6687,-7.6687,-7.6687,-7.6687,-7.6687,-7.6687,-7.6687,-7.6764,-7.692,-7.6284,-7.5938,-7.5941,-7.5332,-7.5008,-5.1784,-6.0398,-6.9253,-7.6909,-7.9532,-8.0312,-8.0584,-8.1714,-8.2533,-8.2026,-8.265,-8.2974,-8.21,-8.161,-8.0715,-7.8889,-7.8267,-7.7879,-7.7347,-7.6959,-7.6687,-7.6687,-7.7935,-7.8786,-7.8786,-7.9255,-7.9522,-7.9522,-7.8741,-7.7983,-7.7433,-7.7033,-7.6352,-7.5415,-7.4989,-7.4589,-7.42,-7.4187,-7.4257,-7.4359,-7.4377,-7.4583,-7.4979,-7.4973,-7.5513,-7.6409,-7.6409,-7.6409,-7.6448,-7.6843,-7.6999,-7.6999,-7.6999,-7.6999,-7.6999,-7.6999,-7.6999,-7.6999,-7.6999,-7.6097,-7.5045,-7.553,-7.4439,-7.3019,-7.3531,-7.3926,-7.4355,-7.485,-7.6214,-7.7584,-7.7695,-7.8363,-7.8759,-7.794,-7.774,-7.7584,-7.7116,-7.6858,-7.666,-7.6553,-7.6455,-7.6397,-7.6487,-7.6525,-7.6598,-7.6697,-7.6691,-7.6687,-7.6687,-7.6687,-7.6687,-7.6687,-7.6687,-7.6687,-7.6687,-7.6687,-7.6687,-7.6687,-7.6687,-7.6687,-7.6687,-7.6687,-7.6687,-7.6687,-7.6998,-7.6881,-7.6367,-7.6301,-7.5979,-7.5408,-7.5046,-7.4895,-5.3667,-6.037,-6.6089,-7.4269,-7.7248,-7.8338,-7.9058,-8.035,-8.1247,-8.0584,-8.1325,-8.2013,-8.1749,-8.1017,-7.9905,-7.8276,-7.7848,-7.7507,-7.6803,-7.6687,-7.6609,-7.6415,-7.7272,-7.7807,-7.7573,-7.7654,-7.7726,-7.7726,-7.6945,-7.6113,-7.5421,-7.5367,-7.4955,-7.4003,-7.3908,-7.3773,-7.354,-7.3558,-7.3593,-7.3715,-7.3726,-7.3849,-7.4088,-7.4082,-7.4895,-7.6337,-7.6571,-7.6688,-7.6688,-7.6921,-7.6999,-7.6999,-7.6999,-7.6999,-7.6999,-7.6999,-7.6843,-7.6688,-7.6688,-7.5552,-7.4182,-7.4828,-7.3581,-7.1934,-7.2563,-7.2913,-7.3264,-7.4149,-7.5669,-7.7188,-7.8078,-7.8747,-7.9032,-7.8441,-7.8129,-7.7779,-7.7077,-7.6826,-7.6621,-7.6438,-7.6397,-7.6448,-7.6525,-7.6571,-7.6654,-7.6693,-7.6711,-7.6687,-7.6687,-7.6687,-7.6687,-7.6687,-7.6687,-7.6687,-7.6687,-7.6687,-7.6687,-7.6687,-7.6687,-7.6687,-7.6687,-7.6687,-7.6687,-7.6687,-7.7231,-7.6924,-7.5797,-7.6188,-7.5883,-7.4895,-7.4895,-7.4895,-4.8708,-5.0959,-5.386,-6.7411,-7.0862,-7.2238,-7.7215,-7.9026,-7.961,-7.9571,-8.0935,-8.1864,-8.1006,-8.0114,-7.9182,-7.824,-7.7335,-7.6764,-7.6726,-7.6687,-7.6415,-7.5638,-7.637,-7.6672,-7.5894,-7.5896,-7.5933,-7.5933,-7.511,-7.4603,-7.4561,-7.4485,-7.4077,-7.3175,-7.3044,-7.2569,-7.1753,-7.1792,-7.1842,-7.1835,-7.1917,-7.2368,-7.3186,-7.3186,-7.3659,-7.4595,-7.5402,-7.5785,-7.5824,-7.6649,-7.6999,-7.6999,-7.6999,-7.6999,-7.6999,-7.6999,-7.6487,-7.5785,-7.5785,-7.465,-7.3163,-7.3219,-7.2563,-7.1817,-7.1856,-7.2446,-7.3269,-7.4166,-7.5641,-7.7188,-7.8078,-7.8351,-7.8351,-7.8312,-7.7656,-7.6999,-7.6765,-7.6726,-7.6626,-7.6448,-7.6448,-7.6525,-7.6564,-7.6661,-7.6708,-7.6708,-7.6717,-7.6687,-7.6687,-7.6687,-7.6687,-7.6687,-7.6687,-7.6687,-7.6687,-7.6687,-7.6687,-7.6687,-7.6687,-7.6687,-7.6687,-7.6687,-7.6687,-7.6687,-7.7231,-7.6958,-7.5797,-7.5842,-7.5521,-7.4895,-7.4895,-7.4895,-4.6078,-4.9396,-5.315,-6.0999,-6.6315,-7.0136,-7.1991,-7.6073,-7.9337,-7.8831,-7.9202,-7.9663,-7.9903,-8.009,-7.9571,-7.7579,-7.6946,-7.6337,-7.5249,-7.5094,-7.4977,-7.4706,-7.5045,-7.5188,-7.4876,-7.4451,-7.4212,-7.4212,-7.3393,-7.2885,-7.2885,-7.2773,-7.2596,-7.2284,-7.2171,-7.1964,-7.1675,-7.1725,-7.1751,-7.1764,-7.18,-7.1973,-7.229,-7.229,-7.2446,-7.2796,-7.3654,-7.435,-7.4934,-7.5824,-7.6175,-7.6214,-7.6765,-7.6999,-7.6921,-7.637,-7.598,-7.563,-7.5057,-7.4077,-7.3103,-7.3108,-7.2524,-7.1817,-7.1817,-7.2011,-7.2563,-7.401,-7.5251,-7.6604,-7.8558,-7.9487,-7.976,-7.9181,-7.8012,-7.696,-7.6804,-7.6708,-7.668,-7.6564,-7.6525,-7.6532,-7.6632,-7.6681,-7.6687,-7.6687,-7.6687,-7.6687,-7.6687,-7.6687,-7.6687,-7.6687,-7.6687,-7.6687,-7.6687,-7.6687,-7.6687,-7.6687,-7.6687,-7.6687,-7.6687,-7.6687,-7.6687,-7.6687,-7.6881,-7.6614,-7.5799,-7.616,-7.5807,-7.4895,-7.4895,-7.4895,-4.2535,-4.5873,-5.0109,-5.5954,-6.0466,-6.4616,-6.8981,-7.3114,-7.6352,-7.7617,-7.8072,-7.841,-7.8968,-7.9467,-7.9182,-7.7167,-7.6302,-7.5482,-7.4356,-7.42,-7.4084,-7.3812,-7.3875,-7.3861,-7.3549,-7.3123,-7.2846,-7.2846,-7.2339,0.0,-7.1987,-7.1889,-7.1833,-7.1806,-7.1718,-7.1714,-7.1718,-7.179,-7.1803,-7.1803,-7.18,-7.1817,-7.1817,-7.1817,-7.1817,-7.1817,-7.2407,-7.3147,-7.4038,-7.4895,-7.5435,-7.5747,-7.6331,-7.6571,-7.6493,-7.5902,-7.5318,-7.4739,-7.4166,-7.3386,-7.264,-7.264,-7.229,-7.1817,-7.1817,-7.1817,-7.2173,-7.3893,-7.4817,-7.5863,-7.8447,-7.9727,-8.0149,-7.9304,-7.8252,-7.7311,-7.696,-7.6809,-7.6749,-7.6637,-7.6621,-7.664,-7.6699,-7.6726,-7.6687,-7.6687,-7.6687,-7.6687,-7.6687,-7.6687,-7.6687,-7.6687,-7.6687,-7.6687,-7.6687,-7.6687,-7.6687,-7.6687,-7.6687,-7.6687,-7.6687,-7.6687,-7.6687,-7.6687,-7.6687,-7.6394,-7.5808,-7.6178,-7.5845,-7.4895,-7.4895,-7.4895,0.0,0.0,0.0,-5.2189,-5.3166,-5.5413,-6.8186,-6.9876,-7.0259,-7.5618,-7.7344,-7.7961,-7.8085,-7.7973,-7.7672,-7.6894,-7.5346,-7.4162,-7.4123,-7.4123,-7.3812,-7.2957,-7.2973,-7.2729,-7.187,-7.1912,-7.1987,-7.1987,-7.1987,-7.1987,-7.1987,-7.1913,-7.1858,-7.1815,-7.1743,-7.1683,-7.1718,-7.1751,-7.1809,-7.1809,-7.18,-7.1817,-7.1817,-7.1817,-7.1817,-7.1817,-7.1817,-7.229,-7.3108,-7.401,-7.4862,-7.563,-7.5669,-7.5713,-7.5719,-7.5669,-7.4583,-7.3108,-7.3069,-7.2524,-7.1817,-7.1817,-7.1817,-7.1817,-7.1817,-7.1817,-7.2173,-7.3893,-7.4388,-7.5,-7.7662,-7.8909,-7.9292,-7.8519,-7.833,-7.8057,-7.7194,-7.696,-7.6844,-7.6715,-7.6769,-7.6812,-7.6803,-7.6764,-7.6687,-7.6687,-7.6687,-7.6687,-7.6687,-7.6687,-7.6687,-7.6687,-7.6687,-7.6687,-7.6687,-7.6687,-7.6687,-7.6687,-7.6687,-7.6687,-7.6687,-7.6687,-7.6687,-7.6687,-7.6687,-7.6394,-7.5808,-7.5797,-7.5486,-7.4895,-7.4895,-7.4895,-3.8161,0.0,0.0,0.0,0.0,0.0,-5.5404,-5.8757,-6.253,-6.9007,-6.9552,-7.0168,-7.4652,-7.4371,-7.3589,-7.4016,-7.4164,-7.3773,-7.2491,-7.2336,-7.2219,-7.1986,-7.2082,-7.2065,-7.1831,-7.1912,-7.1987,0.0,-7.1987,-7.1987,-7.1987,-7.1889,-7.1833,-7.1806,-7.1738,-7.1732,-7.1755,-7.18,-7.1806,-7.1806,-7.1811,-7.1817,-7.1817,-7.1817,-7.1817,-7.1817,-7.1817,-7.1934,-7.2251,-7.3108,-7.3615,-7.3921,-7.5201,-7.5708,-7.5635,-7.4979,-7.4439,-7.3854,-7.2601,-7.2011,-7.1817,-7.1817,-7.1817,-7.1817,-7.1817,-7.1817,-7.2173,-7.3893,-7.4388,-7.5156,-7.833,-7.9337,-7.9442,-7.9214,-7.8714,-7.8057,-7.7194,-7.6999,-7.6966,-7.6911,-7.6858,-7.6827,-7.6846,-7.6764,-7.6726,-7.6764,-7.6726,-7.6687,-7.6687,-7.6687,-7.6687,-7.6687,-7.6687,-7.6687,-7.6687,-7.6687,-7.6687,-7.6687,-7.6687,-7.6687,-7.6687,-7.6687,-7.6687,-7.6687,-7.6687,-7.6394,-7.5822,-7.5794,-7.5465,-7.4895,-7.4895,-7.4895,-3.8969,-4.0008,-4.1747,-4.2439,0.0,0.0,-5.2647,-5.5059,-5.826,-6.6684,-6.7612,-6.806,-7.2024,-7.2171,-7.1731,-7.1832,-7.2585,-7.2763,-7.1753,-7.1598,-7.1598,-7.1598,-7.1731,-7.1792,-7.1792,-7.1912,-7.1987,-7.1987,-7.1987,-7.1987,-7.1987,-7.1876,-7.1633,-7.1307,-7.1225,-7.105,-7.0765,-7.1115,-7.131,-7.131,-7.1622,-7.1817,-7.1817,-7.1817,-7.1817,-7.1817,-7.1817,-7.1817,-7.1856,-7.2362,-7.2752,-7.3225,-7.4622,-7.5162,-7.5084,-7.4589,-7.416,-7.3659,-7.229,-7.1817,-7.1817,-7.1817,-7.1817,-7.1817,-7.1817,-7.1817,-7.2095,-7.3464,-7.4388,-7.5591,-7.8291,-7.9259,-7.9598,-7.9955,-7.9688,-7.8993,-7.7779,-7.7545,-7.7437,-7.7092,-7.6945,-7.6895,-7.694,-7.6847,-7.6805,-7.6782,-7.6764,-7.6726,-7.6687,-7.6687,-7.6687,-7.6687,-7.6687,-7.6687,-7.6687,-7.6687,-7.6687,-7.6687,-7.6687,-7.6687,-7.6687,-7.6687,-7.6687,-7.6687,-7.6687,-7.6394,-7.5822,-7.5822,-7.548,-7.4895,-7.4895,-7.4895,-4.0554,-4.1508,-4.3585,-4.4979,-4.3094,0.0,-5.4173,-5.4463,-5.5314,0.0,-6.713,-6.7573,-6.8949,-6.984,-7.0075,-6.9134,-7.0144,-7.1162,-7.1559,-7.1598,-7.1598,-7.1598,-7.1721,-7.1783,-7.1783,-7.1914,-7.1997,-7.1997,-7.1993,-7.1987,-7.1987,-7.1876,-7.1414,-7.0645,-7.0542,-7.0116,-6.9323,-7.0068,-7.0453,-7.0453,-7.1271,-7.1661,-7.1661,-7.1778,-7.1817,-7.1817,-7.1817,-7.1817,-7.1817,-7.1817,-7.2245,-7.3025,-7.3921,-7.4311,-7.4388,-7.4305,-7.3843,-7.3108,-7.2134,-7.1817,-7.1817,-7.1817,-7.1817,-7.1817,-7.1817,-7.1817,-7.1973,-7.2835,-7.4272,-7.5941,-7.7701,-7.8669,-7.9442,-8.0305,-8.0512,-8.009,-7.8486,-7.8178,-7.796,-7.7257,-7.7062,-7.702,-7.6995,-7.696,-7.6899,-7.6832,-7.679,-7.6764,-7.6726,-7.6687,-7.6687,-7.6687,-7.6687,-7.6687,-7.6687,-7.6687,-7.6687,-7.6687,-7.6687,-7.6687,-7.6687,-7.6687,-7.6687,-7.6687,-7.666,-7.6372,-7.5822,-7.5748,-7.5434,-7.4895,-7.4895,-7.4895,-4.4042,-4.3701,-4.397,-4.3662,-4.3585,0.0,-4.315,-4.4662,-4.7496,0.0,-5.397,-5.5799,-6.0181,-6.1656,-6.1903,-6.104,-6.4571,-6.8394,-7.1201,-7.1598,-7.1598,-7.1598,-7.1686,-7.1731,-7.1731,-7.182,-7.1912,-7.1912,-7.1971,-7.1987,-7.1987,-7.1876,-7.1414,-7.0645,-7.0542,-7.0116,-6.9323,-6.9484,-6.9562,-6.9562,-7.0414,-7.0842,-7.0842,-7.1505,-7.1817,-7.1817,-7.1817,-7.1817,-7.1817,-7.1817,-7.1895,-7.2128,-7.3025,-7.3765,-7.4311,-7.3609,-7.3687,-7.3921,-7.2362,-7.1817,-7.1817,-7.1817,-7.1817,-7.1817,-7.1817,-7.1817,-7.1973,-7.2835,-7.3854,-7.5057,-7.6804,-7.7377,-7.7721,-7.8585,-7.878,-7.8507,-7.7488,-7.7316,-7.7296,-7.714,-7.7062,-7.7014,-7.7063,-7.6965,-7.6897,-7.6868,-7.6819,-7.6764,-7.6726,-7.6687,-7.6687,-7.6687,-7.6687,-7.6687,-7.6687,-7.6687,-7.6687,-7.6687,-7.6687,-7.6687,-7.6687,-7.6687,-7.6687,-7.6687,-7.6485,-7.621,-7.5808,-7.5295,-7.5017,-7.4895,-7.4895,-7.4895,-4.5368,-4.4624,-4.497,-4.5009,-4.4008,0.0,0.0,-4.4415,-4.5773,-5.0601,-5.1266,-5.215,-5.6056,-5.7095,-5.7497,-5.789,-6.1987,-6.5248,-6.5713,-6.9118,-7.1442,-7.1015,-7.1388,-7.1544,-7.1076,-7.1549,-7.187,-7.1914,-7.1975,-7.1987,-7.1987,-7.1897,-7.1282,-6.9982,-6.9907,-6.9295,-6.8037,-6.8427,-6.866,-6.866,-6.9557,-7.0185,-7.0609,-7.0998,-7.1427,-7.1817,-7.1817,-7.1817,-7.1817,-7.1817,-7.1817,-7.1895,-7.2752,-7.3375,-7.3687,-7.3258,-7.3375,-7.357,-7.2245,-7.1817,-7.1817,-7.1817,-7.1817,-7.1817,-7.1817,-7.1817,-7.1895,-7.2329,-7.3069,-7.4049,-7.5368,-7.6337,-7.7221,-7.8084,-7.8591,-7.8687,-7.7843,-7.766,-7.757,-7.7179,-7.7062,-7.7062,-7.7101,-7.7023,-7.6984,-7.6945,-7.6891,-7.6842,-7.6764,-7.6726,-7.6687,-7.6687,-7.6687,-7.6687,-7.6687,-7.6687,-7.6687,-7.6687,-7.6687,-7.6687,-7.6687,-7.6687,-7.6687,-7.6687,-7.6017,-7.5684,-7.5808,-7.4948,-7.4638,-7.4895,-7.4895,-7.4895,-4.7495,-4.674,-4.7432,-4.7009,-4.5308,-4.4427,0.0,0.0,0.0,-5.0195,-5.0227,-5.0121,-5.2174,0.0,0.0,-5.4357,0.0,0.0,0.0,-6.4308,0.0,-6.8108,-6.9759,-7.0458,-6.9245,-6.9697,-7.0436,-7.1328,-7.0652,-7.067,-7.1714,-7.1526,-7.0766,-6.9319,-6.9124,-6.8276,-6.6712,-6.7408,-6.7759,-6.7759,-6.8621,-6.9518,-7.038,-7.0531,-7.1037,-7.1817,-7.1817,-7.1817,-7.1817,-7.1817,-7.1817,-7.1856,-7.2557,-7.2947,-7.3064,-7.2908,-7.2947,-7.2986,-7.2089,-7.1817,-7.1817,-7.1817,-7.1817,-7.1817,-7.1817,-7.1817,-7.1817,-7.1817,-7.2329,-7.303,-7.3932,-7.5174,-7.6454,-7.735,-7.8057,-7.8358,-7.7692,-7.7706,-7.7632,-7.6981,-7.6984,-7.7101,-7.7101,-7.7101,-7.7062,-7.7023,-7.6933,-7.6879,-7.6812,-7.6726,-7.6687,-7.6687,-7.6687,-7.6687,-7.6687,-7.6687,-7.6687,-7.6687,-7.6687,-7.6687,-7.6687,-7.6687,-7.6687,-7.6687,-7.5633,-7.5347,-7.5822,-7.4702,-7.4442,-7.4895,-7.4895,-7.4895,-5.387,-5.3356,-5.3318,-4.8202,-4.8846,-4.8933,-4.204,0.0,-4.482,-4.2456,0.0,-4.4097,-4.4375,0.0,0.0,0.0,0.0,0.0,-5.1962,-5.5921,-5.9155,-5.9852,-6.4831,-6.7262,-6.48,-6.4052,-6.5347,-6.9297,-6.6015,-6.5891,-7.0584,-7.0057,-6.949,-6.9323,-6.8553,-6.7667,-6.6712,-6.6785,-6.6868,-6.6863,-6.7725,-6.8582,-6.9484,-7.0263,-7.1037,-7.1817,-7.1817,-7.1817,-7.1817,-7.1817,-7.1817,-7.1817,-7.1895,-7.2401,-7.3025,-7.2245,-7.244,-7.2986,-7.2089,-7.1817,-7.1817,-7.1817,-7.1817,-7.1817,-7.1817,-7.1817,-7.1817,-7.1817,-7.1856,-7.2134,-7.303,-7.3381,-7.3771,-7.465,-7.4961,-7.5045,-7.494,-7.553,-7.6069,-7.5957,-7.6555,-7.7101,-7.7101,-7.7101,-7.7062,-7.7023,-7.6933,-7.6863,-7.6807,-7.6726,-7.6687,-7.6687,-7.6687,-7.6687,-7.6687,-7.6687,-7.6687,-7.6687,-7.6687,-7.6687,-7.6687,-7.6687,-7.6687,-7.6687,-7.5892,-7.5559,-7.5822,-7.4894,-7.4626,-7.4895,-7.4895,-7.4895,-5.385,-5.4101,-5.4679,-4.9624,-4.9842,-4.971,-4.3618,-4.2439,-4.2401,-4.1431,0.0,0.0,0.0,0.0,0.0,0.0,-4.6929,0.0,0.0,0.0,-5.5265,0.0,0.0,0.0,-6.2269,-6.2543,-6.4103,-6.7523,-6.4686,-6.4683,-6.8945,-6.9296,-6.9126,-6.862,-6.8269,-6.7621,-6.6712,-6.6712,-6.6712,-6.6712,-6.7057,-6.7686,-6.8582,-6.944,-7.0297,-7.1115,-7.1583,-7.1817,-7.1817,-7.1817,-7.1817,-7.1817,-7.1817,-7.2011,-7.2245,-7.1427,-7.1622,-7.2245,-7.1388,-7.1427,-7.1817,-7.1817,-7.1817,-7.1817,-7.1817,-7.1817,-7.1817,-7.1817,-7.1817,-7.1895,-7.2251,-7.2757,-7.3264,-7.3609,-7.4124,-7.4515,-7.4515,-7.5183,-7.5803,-7.5781,-7.6486,-7.7101,-7.7101,-7.7101,-7.7101,-7.7062,-7.6561,-7.6209,-7.6185,-7.5647,-7.5249,-7.5249,-7.5249,-7.5444,-7.5949,-7.5988,-7.6182,-7.6687,-7.6687,-7.6687,-7.6687,-7.6259,-7.5988,-7.5988,-7.4667,-7.4341,-7.5038,-7.4231,-7.4183,-7.4895,-7.4895,-7.4895,-5.63,-5.678,-5.7074,-5.1257,-5.0516,-4.9846,-4.4482,-4.2555,-4.1939,-4.2124,-4.1931,0.0,0.0,0.0,-4.217,-4.297,0.0,-4.6158,0.0,-4.6214,0.0,0.0,0.0,0.0,0.0,-5.905,-6.0487,-6.4598,-6.1627,-6.1991,-6.7461,-6.7904,-6.8015,-6.8089,-6.7865,-6.7419,-6.6732,-6.6717,-6.6712,-6.6712,-6.6712,-6.7174,-6.8032,-6.866,-6.9557,-7.0609,-7.1232,-7.1583,-7.1817,-7.1817,-7.1817,-7.1817,-7.1817,-7.1817,-7.17,-7.0881,-7.0804,-7.1076,-7.0726,-7.1115,-7.1817,-7.1817,-7.1817,-7.1817,-7.1817,-7.1817,-7.1817,-7.1817,-7.1817,-7.1817,-7.1817,-7.2329,-7.2846,-7.2832,-7.3321,-7.3786,-7.3825,-7.4488,-7.5173,-7.5418,-7.615,-7.6828,-7.7062,-7.7101,-7.7101,-7.7101,-7.6497,-7.5974,-7.5735,-7.5066,-7.4475,-7.4248,-7.4209,-7.4481,-7.5094,-7.5133,-7.5405,-7.5988,-7.6259,-7.6376,-7.6376,-7.5793,-7.5482,-7.5482,-7.3915,-7.3579,-7.45,-7.3821,-7.4006,-7.4895,-7.4895,-7.4895,-6.438,-6.4067,-6.2491,-5.3166,-5.1478,-5.0054,-4.2364,-4.3132,-4.4979,-4.3393,-4.5586,-4.7355,-4.5787,-4.5479,-4.494,-4.3355,-4.3863,0.0,0.0,0.0,0.0,0.0,0.0,0.0,0.0,-5.1199,-5.2007,0.0,-5.4867,-5.5967,-6.6292,-6.5333,-6.5569,-6.8005,-6.7264,-6.682,-6.6783,-6.6736,-6.6712,-6.6712,-6.6712,-6.7174,-6.7993,-6.8032,-6.8972,-7.0609,-7.0609,-7.1076,-7.1817,-7.1817,-7.1817,-7.1817,-7.1817,-7.1817,-7.17,-7.0881,-7.0068,-6.9484,-7.0341,-7.1115,-7.1817,-7.1817,-7.1817,-7.1817,-7.1817,-7.1817,-7.1817,-7.1817,-7.1817,-7.1817,-7.1895,-7.1934,-7.1926,-7.193,-7.1948,-7.1987,-7.2065,-7.269,-7.353,-7.4361,-7.5248,-7.6122,-7.6945,-7.7101,-7.7101,-7.7101,-7.702,-7.6652,-7.5798,-7.5602,-7.522,-7.4303,-7.42,-7.42,-7.4239,-7.4239,-7.4239,-7.4278,-7.5055,-7.5521,-7.5521,-7.5521,-7.5482,-7.5482,-7.4323,-7.3946,-7.45,-7.4216,-7.437,-7.4895,-7.4895,-7.4895,0.0,0.0,-6.713,-5.7473,-5.6211,-5.48,-4.5208,-4.4816,-4.5817,-4.3547,-4.5778,-4.7586,-4.5902,-4.5594,-4.5248,-4.4085,-4.3662,-4.2508,0.0,0.0,0.0,0.0,-4.4353,-4.7905,0.0,0.0,0.0,-5.6545,-5.4875,-5.6514,-6.3062,-6.3422,-6.4081,-6.549,-6.5775,-6.6184,-6.6736,-6.6717,-6.6712,-6.6712,-6.6712,-6.6863,-6.7174,-6.772,-6.831,-6.8933,-7.0102,-7.0765,-7.1037,-7.1583,-7.1505,-7.1076,-7.1583,-7.1115,-7.0102,-6.9835,-6.9913,-7.0185,-7.0492,-7.1115,-7.1817,-7.1817,-7.1817,-7.1817,-7.1817,-7.1817,-7.1817,-7.1817,-7.1817,-7.1817,-7.1895,-7.1911,-7.1881,-7.1903,-7.1948,-7.1987,-7.1987,-7.2612,-7.3309,-7.3633,-7.4353,-7.5035,-7.5347,-7.5855,-7.6438,-7.7023,-7.6568,-7.581,-7.4937,-7.4261,-7.3533,-7.2585,-7.2491,-7.2724,-7.3307,-7.389,-7.42,-7.42,-7.4472,-7.4628,-7.4628,-7.4084,-7.3773,-7.3773,-7.314,-7.3123,-7.3716,-7.397,-7.437,-7.4895,-7.4895,-7.4895,-6.8963,-7.0413,0.0,-6.2113,-6.1002,0.0,-5.0194,-4.9843,-5.0799,-4.826,-4.9388,-5.074,-5.0275,-4.841,-4.6778,-4.6201,-4.4662,-4.2008,0.0,-3.593,-3.5584,-3.6969,-4.1354,-4.4569,-4.5333,-4.6445,-4.909,-5.3805,-5.2413,-5.3974,0.0,-6.1433,-6.2758,-6.4186,-6.508,-6.5917,-6.6724,-6.6727,-6.6712,-6.6712,-6.6712,-6.6712,-6.6712,-6.7291,-6.772,-6.8071,-6.9518,-7.0302,-7.0648,-7.1466,-7.1505,-7.1037,-7.1271,-7.0726,-6.9718,-6.9406,-6.944,-6.9712,-7.0024,-7.0687,-7.1427,-7.17,-7.1817,-7.1817,-7.1817,-7.1817,-7.1817,-7.1817,-7.1817,-7.1817,-7.1895,-7.1893,-7.1909,-7.1948,-7.1987,-7.1987,-7.1987,-7.2417,-7.2888,-7.3239,-7.3708,-7.4176,-7.4449,-7.523,-7.5969,-7.6555,-7.6376,-7.5742,-7.4566,-7.3879,-7.3009,-7.173,-7.1598,-7.1831,-7.2375,-7.2957,-7.3268,-7.3268,-7.3579,-7.3734,-7.3734,-7.319,-7.2918,-7.2918,-7.2783,-7.2906,-7.3293,-7.4028,-7.4562,-7.4895,-7.4895,-7.4895]},{"header":{"parameterUnit":"m.s-1","parameterCategory":1,"la1":30.6,"la2":29.2853,"lo1":-89.7004,"lo2":-87.6739,"dy":0.0162,"dx":0.0183,"nx":112,"ny":82,"refTime":"2026-03-10T12:00:00:Z","depth":0,"parameterNumber":3,"parameterNumberName":"V-component_of_WINDS"},"data":[0.0,0.0,0.0,0.0,0.0,0.0,0.0,0.0,0.0,0.0,0.0,0.0,0.0,0.0,0.0,0.0,0.0,0.0,0.0,0.0,0.0,0.0,0.0,0.0,0.0,0.0,0.0,0.0,0.0,0.0,0.0,0.0,0.0,0.0,0.0,0.0,0.0,0.0,0.0,0.0,0.0,0.0,0.0,0.0,0.0,0.0,0.0,0.0,0.0,0.0,0.0,0.0,0.0,0.0,0.0,0.0,0.0,0.0,0.0,0.0,0.0,0.0,0.0,0.0,0.0,0.0,0.0,0.0,0.0,0.0,0.0,0.0,0.0,0.0,0.0,0.0,0.0,0.0,0.0,0.0,0.0,0.0,0.0,0.0,0.0,0.0,0.0,0.0,0.0,0.0,0.1726,0.2938,0.4641,0.5668,0.5679,0.4746,0.3747,0.2868,0.0,0.0,0.0,0.0,0.0,0.0,0.0,0.0,0.0,0.0,0.0,0.0,0.0,0.0,0.0,0.0,0.0,0.0,0.0,0.0,0.0,0.0,0.0,0.0,0.0,0.0,0.0,0.0,0.0,0.0,0.0,0.0,0.0,0.0,0.0,0.0,0.0,0.0,0.0,0.0,0.0,0.0,0.0,0.0,0.0,0.0,0.0,0.0,0.0,0.0,0.0,0.0,0.0,0.0,0.0,0.0,0.0,0.0,0.0,0.0,0.0,0.0,0.0,0.0,0.0,0.0,0.0,0.0,0.0,0.0,0.0,0.0,0.0,0.0,0.0,0.0,0.0,0.0,0.0,0.0,0.0,0.0,0.0,0.0,0.0,0.0,0.0,0.0,0.0,0.0,0.0,0.0,0.0,0.0,0.0,0.0,0.0,0.0,0.0,0.0,0.0,0.0,0.0,0.0,0.2005,0.3861,0.5067,0.5747,0.5798,0.4722,0.3788,0.2945,0.0,0.0,0.0,0.0,0.0,0.0,0.0,0.0,0.0,0.0,0.0,0.0,0.0,0.0,0.0,0.0,0.0,0.0,0.0,0.0,0.0,0.0,0.0,0.0,0.0,0.0,0.0,0.0,0.0,0.0,0.0,0.0,0.0,0.0,0.0,0.0,0.0,0.0,0.0,0.0,0.0,0.0,0.0,0.0,0.0,0.0,0.0,0.0,0.0,0.0,0.0,0.0,0.0,0.0,0.0,0.0,0.0,0.0,0.0,0.0,0.0,0.0,0.0,0.0,0.0,0.0,0.0,0.0,0.0,0.0,0.0,0.0,0.0,0.0,0.0,0.0,0.0,0.0,0.0,0.0,0.0,0.0,0.0,0.0,0.0,0.0,0.0,0.0,0.0,0.0,0.0,0.0,0.0,0.0,0.0,0.0,0.0,0.0,0.0,0.0,0.0,0.0,0.0,0.1852,0.2896,0.4716,0.5425,0.5752,0.5779,0.4726,0.3727,0.2963,0.1862,0.0,0.0,0.0,0.0,0.0,0.0,0.0,0.0,0.0,0.0,0.0,0.0,0.0,0.0,0.0,0.0,0.0,0.0,0.0,0.0,0.0,0.0,0.0,0.0,0.0,0.0,0.0,0.0,0.0,0.0,0.0,0.0,0.0,0.0,0.0,0.0,0.0,0.0,0.0,0.0,0.0,0.0,0.0,0.0,0.0,0.0,0.0,0.0,0.0,0.0,0.0,0.0,0.0,0.0,0.0,0.0,0.0,0.0,0.0,0.0,0.0,0.0,0.0,0.0,0.0,0.0,0.0,0.0,0.0,0.0,0.0,0.0,0.0,0.0,0.0,0.0,0.0,0.0,0.0,0.0,0.0,0.0,0.0,0.0,0.0,0.0,0.0,0.0,0.0,0.0,0.0,0.0,0.0,0.0,0.0,0.0,0.0,0.0,0.0,0.0,0.0,0.0,0.3087,0.3864,0.5583,0.5723,0.5736,0.5719,0.4684,0.3777,0.2948,0.187,0.0,0.0,0.0,0.0,0.0,0.0,0.0,0.0,0.0,0.0,0.0,0.0,0.0,0.0,0.0,0.0,0.0,0.0,0.0,0.0,0.0,0.0,0.0,0.0,0.0,0.0,0.0,0.0,0.0,0.0,0.0,0.0,0.0,0.0,0.0,0.0,0.0,0.0,0.0,0.0,0.0,0.0,0.0,0.0,0.0,0.0,0.0,0.0,0.0,0.0,0.0,0.0,0.0,0.0,0.0,0.0,0.0,0.0,0.0,0.0,0.0,0.0,0.0,0.0,0.0,0.0,0.0,0.0,0.0,0.0,0.0,0.0,0.0,0.0,0.0,0.0,0.0,0.0,0.0,0.0,0.0,0.0,0.0,0.0,0.0,0.0,0.0,0.0,0.0,0.0,0.0,0.0,0.0,0.0,0.0,0.0,0.0,0.0,0.0,0.0,0.0,0.0,0.3896,0.4688,0.6456,0.6071,0.5717,0.5662,0.4688,0.3699,0.2831,0.184,0.0,0.0,0.0,0.0,0.0,0.0,0.0,0.0,0.0,0.0,0.0,0.0,0.0,0.0,0.0,0.0,0.0,0.0,0.0,0.0,0.0,0.0,0.0,0.0,0.0,0.0,0.0,0.0,0.0,0.0,0.0,0.0,0.0,0.0,0.0,0.0,0.0,0.0,0.0,0.0,0.0,0.0,0.0,0.0,0.0,0.0,0.0,0.0,0.0,0.0,0.0,0.0,0.0,0.0,0.0,0.0,0.0,0.0,0.0,0.0,0.0,0.0,0.0,0.0,0.0,0.0,0.0,0.0,0.0,0.0,0.0,0.0,0.0,0.0,0.0,0.0,0.0,0.0,0.0,0.0,0.0,0.0,0.0,0.0,0.0,0.0,0.0,0.0,0.0,0.0,0.0,0.0,0.0,0.0,0.0,0.0,0.0,0.0,0.0,0.0,0.0,0.0,0.3935,0.5016,0.634,0.6498,0.6649,0.6885,0.5185,0.3994,0.3609,0.0,0.0,0.0,0.0,0.0,0.0,0.0,0.0,0.0,0.0,0.0,0.0,0.0,0.0,0.0,0.0,0.0,0.0,0.0,0.0,0.0,0.0,0.0,0.0,0.0,0.0,0.0,0.0,0.0,0.0,0.0,0.0,0.0,0.0,0.0,0.0,0.0,0.0,0.0,0.0,0.0,0.0,0.0,0.0,0.0,0.0,0.0,0.0,0.0,0.0,0.0,0.0,0.0,0.0,0.0,0.0,0.0,0.0,0.0,0.0,0.0,0.0,0.0,0.0,0.0,0.0,0.0,0.0,0.0,0.0,0.0,0.0,0.0,0.0,0.0,0.0,0.0,0.0,0.0,0.0,0.0,0.0,0.0,0.0,0.0,0.0,0.0,0.0,0.0,0.0,0.0,0.0,0.0,0.0,0.0,0.0,0.0,0.0,0.0,0.0,0.0,0.0,0.3311,0.4549,0.5774,0.6887,0.6952,0.7101,0.7421,0.5235,0.3891,0.3865,0.0,0.0,0.0,0.0,0.0,0.0,0.0,0.0,0.0,0.0,0.0,0.0,0.0,0.0,0.0,0.0,0.0,0.0,0.0,0.0,0.0,0.0,0.0,0.0,0.0,0.0,0.0,0.0,0.0,0.0,0.0,0.0,0.0,0.0,0.0,0.0,0.0,0.0,0.0,0.0,0.0,0.0,0.0,0.0,0.0,0.0,0.0,0.0,0.0,0.0,0.0,0.0,0.0,0.0,0.0,0.0,0.0,0.0,0.0,0.0,0.0,0.0,0.0,0.0,0.0,0.0,0.0,0.0,0.0,0.0,0.0,0.0,0.0,0.0,0.0,0.0,0.0,0.0,0.0,0.0,0.0,0.0,0.0,0.0,0.0,0.0,0.0,0.0,0.0,0.0,0.0,0.0,0.0,0.0,0.0,0.0,0.0,0.0,0.0,0.0,0.0,0.0,0.4821,0.5975,0.7198,0.8354,0.7577,0.6915,0.684,0.4659,0.3375,0.0,0.0,0.0,0.0,0.0,0.0,0.0,0.0,0.0,0.0,0.0,0.0,0.0,0.0,0.0,0.0,0.0,0.0,0.0,0.0,0.0,0.0,0.0,0.0,0.0,0.0,0.0,0.0,0.0,0.0,0.0,0.0,0.0,0.0,0.0,0.0,0.0,0.0,0.0,0.0,0.0,0.0,0.0,0.0,0.0,0.0,0.0,0.0,0.0,0.0,0.0,0.0,0.0,0.0,0.0,0.0,0.0,0.0,0.0,0.0,0.0,0.0,0.0,0.0,0.0,0.0,0.0,0.0,0.0,0.0,0.0,0.0,0.0,0.0,0.0,0.0,0.0,0.0,0.0,0.0,0.0,0.0,0.0,0.0,0.0,0.0,0.0,0.0,0.0,0.0,0.0,0.0,0.0,0.0,0.0,0.0,0.0,0.0,0.0,0.0,0.0,0.0,0.0,0.4209,0.6068,0.7561,0.8003,0.8052,0.813,0.8105,0.6991,0.5715,0.4403,0.0,0.0,0.0,0.0,0.0,0.0,0.0,0.0,0.0,0.0,0.0,0.0,0.0,0.0,0.0,0.0,0.0,0.0,0.0,0.0,0.0,0.0,0.0,0.0,0.0,0.0,0.0,0.0,0.0,0.0,0.0,0.0,0.0,0.0,0.0,0.0,0.0,0.0,0.0,0.0,0.0,0.0,0.0,0.0,0.0,0.0,0.0,0.0,0.0,0.0,0.0,0.0,0.0,0.0,0.0,0.0,0.0,0.0,0.0,0.0,0.0,0.0,0.0,0.0,0.0,0.0,0.0,0.0,0.0,0.0,0.0,0.0,0.0,0.0,0.0,0.0,0.0,0.0,0.0,0.0,0.0,0.0,0.0,0.0,0.0,0.0,0.0,0.0,0.0,0.0,0.0,0.0,0.0,0.0,0.0,0.0,0.0,0.0,0.0,0.0,0.0,0.0,0.4321,0.6458,0.8139,0.8603,0.8649,0.8733,0.8989,0.792,0.6519,0.4801,0.0,0.0,0.0,0.0,0.0,0.0,0.0,0.0,0.0,0.0,0.0,0.0,0.0,0.0,0.0,0.0,0.0,0.0,0.0,0.0,0.0,0.0,0.0,0.0,0.0,0.0,0.0,0.0,0.0,0.0,0.0,0.0,0.0,0.0,0.0,0.0,0.0,0.0,0.0,0.0,0.0,0.0,0.0,0.0,0.0,0.0,0.0,0.0,0.0,0.0,0.0,0.0,0.0,0.0,0.0,0.0,0.0,0.0,0.0,0.0,0.0,0.0,0.0,0.0,0.0,0.0,0.0,0.0,0.0,0.0,0.0,0.0,0.0,0.0,0.0,0.0,0.0,0.0,0.0,0.0,0.0,0.0,0.0,0.0,0.0,0.0,0.0,0.0,0.0,0.0,0.0,0.0,0.0,0.0,0.0,0.0,0.0,0.0,0.0,0.0,0.0,0.0,0.4929,0.7067,0.8818,0.9547,0.9177,0.8966,0.9364,0.8032,0.6523,0.4946,0.0,0.0,0.0,0.0,0.0,0.0,0.0,0.0,0.0,0.0,0.0,0.0,0.0,0.0,0.0,0.0,0.0,0.0,0.0,0.0,0.0,0.0,0.0,0.0,0.0,0.0,0.0,0.0,0.0,0.0,0.0,0.0,0.0,0.0,0.0,0.0,0.0,0.0,0.0,0.0,0.0,0.0,0.0,0.0,0.0,0.0,0.0,0.0,0.0,0.0,0.0,0.0,0.0,0.0,0.0,0.0,0.0,0.0,0.0,0.0,0.2747,0.1678,0.0,0.0,0.0,0.0,0.0,0.0,0.0,0.0,0.0,0.0,0.0,0.0,0.0,0.0,0.0,0.0,0.0,0.0,0.0,0.0,0.0,0.0,0.0,0.0,0.0,0.0,0.0,0.0,0.0,0.0,0.0,0.0,0.0,0.0,0.0,0.0,0.0,0.0,0.0,0.0,0.4983,0.7455,0.9238,0.9473,0.9587,0.9457,0.905,0.9203,0.8321,0.5967,0.5722,0.0,0.0,0.0,0.0,0.0,0.0,0.0,0.0,0.0,0.0,0.0,0.0,0.0,0.0,0.0,0.0,0.0,0.0,0.0,0.0,0.0,0.0,0.0,0.0,0.0,0.0,0.0,0.0,0.0,0.0,0.0,0.0,0.0,0.0,0.0,0.0,0.0,0.0,0.0,0.0,0.0,0.0,0.0,0.0,0.0,0.0,0.0,0.0,0.0,0.0,0.0,0.0,0.0,0.0,0.0,0.0,0.0,0.0,0.0,0.4581,0.3451,0.0,0.0,0.0,0.0,0.0,0.0,0.0,0.0,0.0,0.0,0.0,0.0,0.0,0.0,0.0,0.0,0.0,0.0,0.0,0.0,0.0,0.0,0.0,0.0,0.0,0.0,0.0,0.0,0.0,0.0,0.0,0.0,0.0,0.0,0.0,0.0,0.0,0.0,0.0,0.0,0.4664,0.7056,0.8818,0.9154,0.9201,0.9126,0.9016,0.9415,0.878,0.6607,0.6471,0.0,0.0,0.0,0.0,0.0,0.0,0.0,0.0,0.0,0.0,0.0,0.0,0.0,0.0,0.0,0.0,0.0,0.0,0.0,0.0,0.0,0.0,0.0,0.0,0.0,0.0,0.0,0.0,0.0,0.0,0.0,0.0,0.0,0.0,0.0,0.0,0.0,0.0,0.0,0.0,0.0,0.0,0.0,0.0,0.0,0.0,0.0,0.0,0.0,0.0,0.0,0.0,0.0,0.5446,0.57,0.6452,0.5816,0.6368,0.781,0.6902,0.5887,0.4886,0.3593,0.0,0.0,0.0,0.0,0.0,0.0,0.0,0.0,0.0,0.0,0.0,0.0,0.0,0.0,0.0,0.0,0.0,0.0,0.0,0.0,0.0,0.0,0.2883,0.426,0.4333,0.3809,0.261,0.0,0.0,0.0,0.0,0.0,0.0,0.0,0.0,0.0,0.0,0.0,0.4336,0.654,0.8302,0.8855,0.8762,0.8751,0.9035,0.9209,0.8659,0.7136,0.6973,0.6146,0.0,0.0,0.0,0.0,0.0,0.0,0.0,0.0,0.0,0.0,0.0,0.0,0.0,0.0,0.0,0.0,0.0,0.0,0.0,0.0,0.0,0.0,0.0,0.0,0.0,0.0,0.0,0.0,0.0,0.0,0.0,0.0,-0.3235,-0.2947,0.0,0.0,0.0,0.0,0.0,0.0,0.0,0.0,0.0,0.0,0.0,0.0,0.0,0.3228,0.407,0.5459,0.664,0.7512,0.8714,0.9463,0.9731,0.9835,0.9637,0.9223,0.9783,0.0,0.6927,0.6763,0.0,0.0,0.0,0.0,0.0,0.0,0.0,0.0,0.0,0.0,0.0,0.0,0.0,0.0,0.0,0.0,0.0,0.0,0.0,0.0,0.0,0.0,0.5011,0.5286,0.5286,0.5245,0.5021,0.3919,0.2925,0.2792,0.2587,0.2151,0.0,0.0,0.0,0.0,0.0,0.0,0.4285,0.6782,0.8554,0.8659,0.8837,0.8936,0.8836,0.8952,0.8644,0.7625,0.7505,0.6648,0.4965,0.4731,0.0,0.0,0.0,0.0,0.0,0.0,0.0,0.0,0.0,0.0,0.0,0.0,0.0,0.0,0.0,0.0,0.0,0.0,0.0,0.0,0.0,0.0,0.0,0.0,0.0,0.0,0.0,0.0,0.0,-0.3224,-0.1916,-0.1739,-0.0566,0.0123,0.0,0.0,0.0,0.0,0.0,0.0,0.0,0.0,0.0,0.4532,0.4852,0.5804,0.741,0.7823,0.8326,0.9013,0.9204,0.9412,0.9447,1.0287,1.035,0.993,1.0993,1.076,0.9648,0.826,0.6773,0.5222,0.0,0.0,0.0,0.0,0.4085,0.4248,0.4986,0.5725,0.6278,0.5902,0.0,0.0,0.0,0.0,0.0,0.0,0.0,0.3099,0.4559,0.5253,0.5732,0.6809,0.6781,0.6619,0.6656,0.6016,0.503,0.3649,0.2741,0.2028,0.1548,0.0977,0.0,0.0,0.0,0.3992,0.474,0.6532,0.7809,0.7914,0.8041,0.8102,0.8076,0.8351,0.8407,0.8113,0.7906,0.7622,0.7071,0.5842,0.4702,0.0,0.0,0.0,0.0,0.0,0.0,0.0,0.0,0.0,0.0,0.0,0.0,0.0,0.0,0.0,0.0,0.0,0.0,0.0,0.0,0.0,0.0,0.0,0.0,0.0,0.0,0.0,0.0,-0.3057,-0.1528,-0.1016,0.0134,0.0862,0.0,0.0,0.0,0.0,0.0,0.0,0.3763,0.3451,0.4112,0.5957,0.6306,0.7331,0.9028,0.917,0.9386,0.9776,0.9714,0.9693,0.972,1.0638,1.0894,1.0796,1.1713,1.1917,1.1581,0.9583,0.8415,0.7608,0.6422,0.5698,0.541,0.5789,0.6065,0.6184,0.6626,0.7419,0.8145,0.7625,0.7206,0.6894,0.6257,0.0,0.0,0.0,0.0,0.4415,0.6023,0.6217,0.6444,0.7679,0.7781,0.7554,0.7529,0.7333,0.6634,0.4709,0.3596,0.2793,0.2459,0.1743,0.0,0.1951,0.3129,0.4224,0.5148,0.6361,0.7194,0.737,0.739,0.7427,0.7517,0.7842,0.807,0.8097,0.7947,0.7983,0.8131,0.6635,0.5546,0.5181,0.0,0.0,0.0,0.0,0.0,0.0,0.0,0.0,0.0,0.0,0.0,0.0,0.0,0.0,0.0,0.0,0.0,0.0,0.0,0.0,0.0,0.0,0.0,0.0,0.0,0.0,0.0,0.0,0.0,-0.2232,-0.053,0.0,0.0,0.0,0.0,0.3868,0.361,0.3873,0.474,0.4562,0.4905,0.5875,0.6091,0.6185,0.6353,0.8101,0.915,0.9332,1.1157,1.2121,1.2234,1.224,1.227,1.215,1.2161,1.2091,1.1938,1.1468,1.0189,0.8521,0.8141,0.7042,0.5879,0.7497,0.8067,0.8269,0.9891,1.0522,1.0522,1.0506,0.9012,0.7223,0.711,0.5543,0.0,0.0,0.5364,0.5708,0.6915,0.7285,0.7419,0.7521,0.7591,0.7631,0.7546,0.7382,0.7166,0.678,0.6453,0.5877,0.4771,0.0,0.4207,0.3444,0.4309,0.5079,0.5383,0.6395,0.7194,0.737,0.739,0.7427,0.7517,0.7525,0.7452,0.7352,0.7331,0.7199,0.6985,0.6992,0.6353,0.4846,0.4712,0.0,0.0,0.0,0.0,0.0,0.0,0.0,0.0,0.0,0.0,0.0,0.0,0.0,0.0,0.0,0.0,0.0,0.0,0.0,0.0,0.0,0.0,0.0,0.0,0.0,0.0,0.0,0.0,-0.1864,-0.0236,0.0,0.1895,0.4075,0.5481,0.5509,0.5588,0.5903,0.6457,0.6387,0.6951,0.8152,0.8786,0.9465,1.0138,1.0135,1.0104,1.0235,1.0863,1.0863,1.0326,1.1662,1.1926,1.1227,1.1889,1.2145,1.2091,1.1884,1.1267,1.0417,0.9511,0.9155,0.901,0.9036,0.9457,1.0131,1.0496,1.0821,1.1031,1.0388,0.9512,0.8587,0.7823,0.721,0.6821,0.6643,0.6681,0.6902,0.7395,0.7611,0.7701,0.7701,0.768,0.7652,0.7619,0.7517,0.7386,0.7227,0.6384,0.5498,0.509,0.4434,0.3818,0.3453,0.3758,0.4392,0.5175,0.5652,0.6253,0.7281,0.7341,0.7366,0.7513,0.7472,0.7591,0.7857,0.756,0.7539,0.7733,0.7315,0.6718,0.5957,0.5134,0.3897,0.0,0.0,0.0,0.0,0.0,0.0,0.0,0.0,0.0,0.0,0.0,0.0,0.0,0.0,0.0,0.0,0.0,0.0,0.0,0.0,0.0,0.0,0.0,0.0,0.0,-0.4311,-0.3308,-0.191,0.0165,0.1761,0.2638,0.5327,0.6973,0.6862,0.7111,0.7415,0.7649,0.7708,0.8291,0.9257,0.9951,1.0586,1.1291,1.0935,1.0692,1.0659,1.1037,1.0843,1.0176,1.16,1.1794,1.1227,1.1889,1.2172,1.2167,1.2085,1.1862,1.1558,1.0646,1.0682,1.101,1.0189,1.0422,1.1139,1.0734,1.0698,1.0584,1.0027,0.9539,0.9082,0.8324,0.8205,0.8214,0.7577,0.748,0.7586,0.7648,0.7729,0.7791,0.7758,0.7729,0.7693,0.7631,0.7546,0.7472,0.7439,0.6645,0.5777,0.5253,0.4568,0.3914,0.3449,0.343,0.3733,0.4542,0.4997,0.5588,0.6661,0.7022,0.7276,0.7423,0.6994,0.6919,0.7212,0.6603,0.6344,0.661,0.6088,0.5676,0.5483,0.4648,0.393,0.331,0.0,0.0,0.0,0.0,0.0,0.0,0.0,0.0,0.0,0.0,0.0,0.0,0.0,0.0,0.0,0.0,0.0,0.0,0.0,0.0,0.0,0.0,0.0,-0.5745,-0.4725,-0.3648,-0.2433,0.0697,0.3407,0.5075,0.7325,0.8399,0.802,0.8088,0.8214,0.8288,0.8443,0.8783,0.9185,0.9261,0.9261,0.9269,1.0226,1.0754,1.0753,1.17,1.2172,1.2172,1.2172,1.2172,1.2172,1.2172,1.2172,1.2172,1.2172,1.2031,1.1808,1.1598,1.1563,1.1438,1.0791,1.0905,1.1339,1.0781,1.0168,0.9564,0.9564,0.917,0.8596,0.8592,0.8199,0.7782,0.7693,0.7668,0.7668,0.7668,0.7733,0.7778,0.7693,0.7733,0.7746,0.757,0.7456,0.7415,0.7509,0.7452,0.6974,0.5483,0.5292,0.4817,0.3654,0.3433,0.0,0.3632,0.457,0.5264,0.5477,0.6459,0.7162,0.7252,0.6206,0.5537,0.5461,0.432,0.3648,0.3595,0.3552,0.3468,0.3354,0.3506,0.3885,0.4491,0.0,0.0,0.0,0.0,0.0,0.0,0.0,0.0,0.0,0.0,0.0,0.0,0.0,0.0,0.0,0.0,0.0,0.0,0.0,0.0,0.0,-0.5078,-0.4754,-0.453,-0.4431,-0.3396,-0.0799,0.1586,0.3815,0.5714,0.7869,0.9076,0.8944,0.8277,0.798,0.7959,0.8047,0.805,0.8282,0.8877,0.9583,1.0326,1.0544,1.1062,1.1794,1.2078,1.2172,1.2172,1.2172,1.2172,1.2172,1.2172,1.2172,1.2172,1.2172,1.2031,1.1722,1.1044,1.1092,1.1349,1.0087,0.967,0.971,0.9942,0.9411,0.8624,0.8964,0.888,0.8602,0.8202,0.8246,0.8285,0.7867,0.7762,0.7778,0.7844,0.7827,0.7811,0.7852,0.7778,0.7689,0.7635,0.7501,0.7415,0.7509,0.7452,0.7261,0.6802,0.6651,0.6188,0.4891,0.4729,0.0,0.4915,0.5099,0.5264,0.5477,0.6459,0.6763,0.6043,0.6319,0.6575,0.6631,0.6148,0.5822,0.5737,0.5625,0.5977,0.6909,0.6459,0.709,0.0,0.0,0.0,0.0,0.0,0.0,0.0,0.0,0.0,0.0,0.0,0.0,0.0,0.0,0.0,0.0,0.0,0.0,0.0,0.0,0.0,0.0,-0.4738,-0.4018,-0.3572,-0.2906,-0.1792,0.0,0.2789,0.4985,0.6124,0.8203,0.9208,0.8709,0.8362,0.8109,0.7956,0.8109,0.8271,0.8445,0.8935,0.9732,1.0649,1.0687,1.1227,1.2172,1.2172,1.2172,1.2172,1.2172,1.2172,1.2172,1.2172,1.2172,1.2172,1.2172,1.1937,0.0,0.0,0.0,0.0,0.0,0.928,0.8735,0.9203,0.8897,0.8226,0.848,0.8525,0.839,0.8086,0.8152,0.8293,0.7917,0.7799,0.7803,0.7815,0.7782,0.7754,0.7807,0.7742,0.7652,0.7611,0.7493,0.7415,0.7509,0.7452,0.0,0.7325,0.6833,0.6033,0.4729,0.4477,0.4545,0.458,0.4932,0.5242,0.5396,0.6385,0.6774,0.6183,0.6122,0.0,0.0,0.0,0.5147,0.5,0.5068,0.0,0.0,0.0,0.0,0.0,0.0,0.0,0.0,0.9729,0.9652,0.0,0.0,0.0,0.0,0.0,0.0,0.0,0.0,0.0,0.0,0.0,0.0,0.0,0.0,0.0,0.0,-0.4906,-0.3956,-0.3049,-0.1103,0.0374,0.0571,0.3784,0.6188,0.6678,0.8355,0.8981,0.8069,0.8371,0.8367,0.7867,0.8257,0.0,0.0,0.0,0.9328,1.0393,1.0379,1.0943,1.2078,1.2078,1.2078,1.2172,1.2172,1.2172,1.2172,1.2172,1.2172,1.2172,1.2172,1.174,1.1044,1.139,1.1376,1.1063,1.0523,0.9408,0.8156,0.8662,0.0,0.0,0.806,0.806,0.806,0.806,0.806,0.8023,0.7848,0.7799,0.7778,0.7689,0.7656,0.7652,0.766,0.7656,0.7623,0.7542,0.7444,0.7403,0.7505,0.7444,0.7382,0.7399,0.6427,0.5311,0.4176,0.3971,0.3867,0.3867,0.4758,0.5363,0.5211,0.0,0.0,0.6829,0.584,0.5235,0.5152,0.4077,0.3376,0.3172,0.3506,0.3845,0.4241,0.7097,0.8734,0.9222,1.1257,1.277,1.3761,1.176,1.1015,0.0,0.0,0.0,0.0,0.0,0.0,0.0,0.0,0.0,0.0,0.0,0.0,0.0,0.0,0.0,-0.4485,-0.377,-0.3136,-0.3093,-0.1246,0.0774,0.2602,0.3353,0.5209,0.8721,0.9028,0.8936,0.875,0.8048,0.7546,0.7446,0.7093,0.6856,0.6928,0.6824,0.7243,0.8288,0.8222,0.9138,1.1037,0.0,0.0,1.2172,1.2172,1.2172,1.2172,1.2172,1.2172,1.2172,1.2172,1.1506,1.0383,1.0725,1.0548,1.0086,0.998,0.9153,0.8148,0.8248,0.816,0.806,0.806,0.806,0.806,0.806,0.806,0.0,0.7848,0.7799,0.7778,0.7689,0.7607,0.757,0.7644,0.7607,0.7546,0.7529,0.7399,0.7333,0.7493,0.7395,0.7333,0.7476,0.7201,0.6825,0.65,0.6337,0.6357,0.6357,0.6517,0.6285,0.5288,0.6285,0.6597,0.5665,0.6049,0.6328,0.6239,0.5695,0.5393,0.5406,0.5776,0.7271,0.9919,1.0885,1.2624,1.5299,1.5456,1.5605,1.5534,1.3247,1.2744,0.0,0.0,0.0,0.0,0.0,0.0,0.0,0.0,0.0,0.0,0.0,-0.5114,-0.5506,0.0,-0.4128,-0.4459,-0.358,-0.2938,-0.3058,-0.214,-0.0294,0.2938,0.4282,0.6045,0.8978,0.9078,0.8676,0.8173,0.7534,0.7115,0.6814,0.6555,0.6311,0.6281,0.6221,0.6656,0.7677,0.764,0.8379,0.9896,0.9896,1.0181,1.0654,1.1222,1.1416,1.1416,1.1416,1.1416,1.1406,1.0545,0.9912,0.9441,0.9299,0.9035,0.8689,0.9067,0.8649,0.7813,0.7976,0.806,0.806,0.806,0.806,0.806,0.806,0.806,0.8023,0.7848,0.7799,0.7766,0.7631,0.7562,0.7537,0.7582,0.7558,0.7537,0.7582,0.7452,0.7378,0.7558,0.7448,0.7366,0.7501,0.7415,0.7309,0.7264,0.7145,0.7056,0.7056,0.716,0.7042,0.649,0.6958,0.7042,0.6418,0.6587,0.6668,0.6529,0.6509,0.6426,0.6375,0.6882,0.832,1.0799,1.1906,1.3699,1.6191,1.622,1.6234,1.6159,1.4383,1.4001,0.0,0.0,0.0,0.0,0.0,0.0,0.0,-0.3942,-0.4107,-0.4215,-0.449,-0.4834,-0.52,-0.4623,-0.4131,-0.4435,-0.359,-0.2965,-0.3081,-0.3114,-0.1862,0.1583,0.4293,0.6631,0.865,0.8739,0.8228,0.7324,0.7075,0.6847,0.6451,0.6294,0.624,0.6191,0.6177,0.6531,0.7334,0.7334,0.7809,0.885,0.885,0.8944,0.9134,0.9991,1.037,1.037,1.037,1.0361,1.0234,0.8938,0.8442,0.8422,0.7979,0.7476,0.7255,0.8206,0.8081,0.7478,0.798,0.806,0.806,0.806,0.806,0.806,0.806,0.8052,0.8003,0.7844,0.7787,0.7733,0.757,0.7525,0.7525,0.7525,0.7537,0.757,0.7648,0.7533,0.7464,0.7631,0.7513,0.7419,0.7509,0.7464,0.7411,0.739,0.7256,0.7145,0.7199,0.7426,0.7661,0.7715,0.7638,0.7566,0.7494,0.7056,0.6721,0.6647,0.6762,0.6832,0.6684,0.7191,0.8408,1.0531,1.1953,1.369,1.5875,1.6042,1.6175,1.6305,1.5291,1.496,-0.7358,-0.6802,-0.6565,-0.6603,-0.5594,-0.4817,0.0,-0.4041,-0.2731,-0.3065,-0.2664,-0.2359,-0.2478,-0.2709,-0.2963,-0.3065,-0.3024,-0.299,-0.3084,-0.3077,-0.2985,-0.2547,0.1088,0.4875,0.8265,0.7909,0.7475,0.7181,0.6684,0.6387,0.6289,0.6232,0.6196,0.6188,0.6136,0.6199,0.6288,0.6288,0.6764,0.7809,0.7809,0.8284,0.9134,0.9229,0.9324,0.9324,0.9324,0.9278,0.9194,0.8909,0.8315,0.7438,0.7629,0.6908,0.5901,0.7592,0.788,0.7478,0.798,0.806,0.806,0.806,0.806,0.806,0.806,0.8007,0.7929,0.7827,0.7742,0.7656,0.755,0.7525,0.7525,0.7525,0.7586,0.7652,0.766,0.7582,0.7542,0.7644,0.7513,0.7419,0.7509,0.7517,0.748,0.7403,0.7309,0.7369,0.7577,0.7629,0.781,0.8015,0.7783,0.7421,0.7063,0.6968,0.6906,0.6894,0.6803,0.6745,0.6737,0.6794,0.8549,1.2259,1.215,1.3927,1.7607,1.6947,1.6579,1.6353,1.6101,1.5597,-0.7005,-0.6174,-0.5736,-0.5214,-0.4645,-0.409,-0.3427,-0.2861,-0.2352,-0.1775,-0.1833,-0.2051,-0.2074,-0.2456,-0.2859,-0.2931,-0.2953,-0.2994,-0.3085,-0.3071,-0.3156,-0.3179,0.2599,0.7253,0.89,0.8196,0.7394,0.6712,0.6421,0.6226,0.6226,0.6169,0.6136,0.6136,0.6112,0.6098,0.6098,0.6098,0.6288,0.6764,0.6764,0.6954,0.7331,0.7996,0.8189,0.8189,0.8189,0.7834,0.7161,0.7131,0.6828,0.639,0.6463,0.604,0.5642,0.6873,0.7176,0.7063,0.7562,0.7897,0.806,0.806,0.806,0.806,0.806,0.8036,0.7991,0.7901,0.7811,0.7721,0.7627,0.7566,0.7525,0.7525,0.7554,0.7611,0.7717,0.7668,0.7631,0.7725,0.7635,0.7542,0.7529,0.7525,0.7513,0.7472,0.7395,0.7397,0.7507,0.7681,0.7909,0.8177,0.8038,0.7715,0.7349,0.7098,0.6933,0.6933,0.7065,0.7085,0.7085,0.724,0.9062,1.2819,1.2477,1.4106,1.7931,1.6957,1.6509,1.6431,1.6021,1.5482,-0.6769,-0.5865,-0.5402,-0.4484,-0.4077,-0.357,-0.228,-0.2307,-0.2342,-0.1106,-0.1642,-0.2189,-0.1941,-0.2491,-0.2881,-0.2939,-0.2956,-0.299,-0.3073,-0.3139,-0.3108,-0.3106,0.1758,0.6002,0.8199,0.7704,0.6985,0.6331,0.6238,0.6147,0.6164,0.6123,0.6098,0.6098,0.6098,0.6098,0.6098,0.6098,0.6098,0.6098,0.6098,0.6098,0.6098,0.6859,0.7144,0.7144,0.7125,0.6664,0.5897,0.588,0.5766,0.5597,0.5553,0.5501,0.5529,0.6159,0.6392,0.6643,0.7227,0.7646,0.7893,0.8064,0.806,0.806,0.806,0.8048,0.8015,0.795,0.7868,0.7778,0.7689,0.7611,0.7558,0.7533,0.7546,0.7607,0.7766,0.7746,0.7729,0.7819,0.7742,0.764,0.7574,0.7542,0.7525,0.7525,0.7468,0.7496,0.7548,0.7768,0.7972,0.809,0.8016,0.782,0.7498,0.7131,0.699,0.699,0.7217,0.7326,0.7326,0.7469,0.9214,1.2755,1.2481,1.4015,1.758,1.6728,1.637,1.638,1.5942,1.5603,-0.6783,-0.6587,-0.6518,-0.5567,-0.4631,-0.3873,-0.3489,-0.3122,-0.2643,-0.1588,-0.212,-0.2474,-0.1591,-0.221,-0.2938,-0.2908,-0.3034,-0.3076,-0.3139,-0.3069,-0.301,-0.2917,-0.4134,-0.216,0.5122,0.5823,0.5858,0.6108,0.6113,0.6138,0.6098,0.6098,0.6098,0.6098,0.6098,0.6098,0.6098,0.6098,0.6098,0.6098,0.6098,0.6098,0.6098,0.6098,0.6193,0.6191,0.6041,0.5948,0.5828,0.5771,0.564,0.548,0.548,0.5442,0.5387,0.5468,0.572,0.6221,0.7143,0.7394,0.7478,0.798,0.806,0.806,0.806,0.8003,0.7938,0.7938,0.7868,0.7778,0.7689,0.766,0.7635,0.7546,0.7595,0.7684,0.7778,0.7795,0.7823,0.7913,0.7787,0.766,0.766,0.7582,0.7525,0.7525,0.7521,0.7648,0.7945,0.8223,0.8192,0.7799,0.7712,0.7525,0.7067,0.699,0.699,0.699,0.6986,0.6986,0.6986,0.7055,0.8636,1.208,1.1794,1.3294,1.6734,1.6381,1.624,1.624,1.6169,1.6202,-0.6149,-0.6141,-0.6229,-0.5715,-0.5327,-0.4974,-0.4277,-0.4035,-0.3412,-0.1772,-0.2865,-0.3837,-0.2877,-0.2788,-0.2809,-0.2871,-0.305,-0.313,-0.3079,-0.3058,-0.3462,-0.4431,-0.4915,-0.4171,-0.1625,0.2883,0.5739,0.5791,0.6025,0.6074,0.6132,0.6076,0.6098,0.6098,0.6098,0.6098,0.6098,0.6098,0.6098,0.6098,0.6098,0.6098,0.6096,0.606,0.6063,0.6093,0.5995,0.5929,0.5886,0.5826,0.5695,0.5531,0.5531,0.5472,0.5384,0.5384,0.5468,0.572,0.6305,0.6892,0.7394,0.7562,0.7813,0.806,0.806,0.8044,0.8019,0.8019,0.7958,0.7868,0.7778,0.7709,0.764,0.7546,0.755,0.7599,0.7689,0.7709,0.7738,0.7827,0.7746,0.7664,0.7664,0.7586,0.7525,0.7525,0.7525,0.7513,0.764,0.794,0.8098,0.7911,0.7849,0.7721,0.7542,0.7319,0.7145,0.7084,0.708,0.7052,0.699,0.699,0.814,1.0581,1.1299,1.2652,1.4849,1.5792,1.6224,1.6234,1.622,1.6168,-0.6078,-0.6012,-0.6146,-0.5735,-0.576,-0.5681,-0.5038,-0.493,-0.4437,-0.275,-0.3932,-0.4956,-0.3903,-0.4155,-0.4088,-0.3015,-0.2948,-0.3043,-0.3041,-0.3034,-0.3616,-0.5327,-0.5214,-0.4052,-0.1524,0.29,0.5581,0.5602,0.5783,0.6041,0.6105,0.6068,0.6098,0.6098,0.6098,0.6098,0.6098,0.6098,0.6098,0.6098,0.6098,0.6087,0.6066,0.603,0.6022,0.603,0.5932,0.5878,0.585,0.5769,0.5654,0.5526,0.5504,0.545,0.5384,0.5384,0.5384,0.5468,0.5969,0.6472,0.6975,0.7143,0.7478,0.7813,0.7813,0.8001,0.8109,0.8109,0.8072,0.8007,0.7917,0.7803,0.7689,0.7595,0.755,0.755,0.7644,0.7664,0.7689,0.7782,0.775,0.7701,0.7668,0.7586,0.7525,0.7525,0.7525,0.7525,0.7525,0.7709,0.7817,0.7778,0.7722,0.7671,0.7641,0.7415,0.7239,0.7178,0.7174,0.7224,0.7309,0.7129,0.7979,0.9931,1.0715,1.1928,1.3642,1.5371,1.6213,1.6213,1.6507,1.661,-0.6478,-0.6261,-0.625,-0.592,-0.5886,-0.5929,-0.5924,-0.5872,-0.5517,-0.4417,-0.5211,-0.5768,-0.4683,-0.6067,-0.6418,-0.3484,-0.2995,-0.3012,-0.3024,-0.2999,-0.3563,-0.5493,-0.4952,-0.186,0.4784,0.5428,0.5405,0.536,0.5571,0.5848,0.6099,0.6066,0.6098,0.6098,0.6098,0.6098,0.6098,0.6096,0.6093,0.6087,0.6093,0.6063,0.6008,0.6008,0.5978,0.5918,0.5856,0.5793,0.573,0.5613,0.5529,0.5469,0.5412,0.5387,0.5384,0.5384,0.5384,0.5468,0.5885,0.6053,0.6137,0.656,0.6979,0.7394,0.7398,0.7792,0.8199,0.8203,0.8203,0.8179,0.8085,0.7929,0.7774,0.7684,0.7591,0.755,0.7635,0.7656,0.7684,0.7778,0.7803,0.7774,0.768,0.7591,0.7529,0.7525,0.7525,0.7525,0.7525,0.7525,0.7493,0.7484,0.7395,0.7366,0.736,0.7352,0.7352,0.7348,0.7343,0.7494,0.7938,0.7402,0.8012,0.9849,1.0035,1.1113,1.3092,1.5199,1.6204,1.6278,1.7061,1.7408,-0.5485,-0.5632,-0.6047,-0.5929,-0.6011,-0.603,-0.5943,-0.5839,-0.5577,-0.4984,-0.6055,-0.6898,-0.6377,-0.631,-0.6324,-0.628,-0.4336,-0.3139,-0.3962,-0.3354,-0.3502,-0.5235,-0.0609,0.3467,0.5397,0.5626,0.552,0.5402,0.5565,0.5834,0.6126,0.6138,0.6098,0.6098,0.6098,0.6098,0.6098,0.6057,0.6011,0.5967,0.6014,0.6003,0.5946,0.5946,0.5937,0.5918,0.5809,0.5755,0.5736,0.566,0.5567,0.5474,0.5458,0.5425,0.5384,0.5384,0.5384,0.5384,0.5552,0.5801,0.6137,0.6221,0.6808,0.7406,0.7469,0.7843,0.8211,0.8281,0.8252,0.8179,0.8085,0.7929,0.7774,0.7684,0.7591,0.7533,0.7554,0.7562,0.7607,0.7766,0.7852,0.7852,0.7689,0.7644,0.7603,0.7537,0.7525,0.7525,0.7525,0.7525,0.7595,0.7963,0.7648,0.7717,0.8393,0.7847,0.7663,0.8202,0.7973,0.8013,0.8314,0.7911,0.7897,0.8421,0.9606,1.0934,1.2409,1.5002,1.6534,1.7113,1.7274,1.7379,-0.5477,-0.5633,-0.5976,-0.6036,-0.6055,-0.6096,-0.6224,-0.6156,-0.6081,-0.5925,-0.6868,-0.7641,-0.7321,-0.6896,-0.6631,-0.6785,-0.49,-0.3573,-0.3987,-0.3866,-0.3231,-0.193,0.2549,0.5536,0.5645,0.5701,0.5662,0.5509,0.5681,0.585,0.6106,0.613,0.6098,0.6098,0.6098,0.6085,0.606,0.603,0.5984,0.5924,0.5957,0.5943,0.5883,0.5883,0.5869,0.5839,0.5771,0.5725,0.5695,0.5635,0.5556,0.5472,0.5447,0.5414,0.5384,0.5384,0.5384,0.5384,0.5384,0.5552,0.5801,0.5801,0.6221,0.6899,0.7113,0.7518,0.8011,0.8235,0.8297,0.8248,0.8195,0.8019,0.7836,0.7746,0.7652,0.7574,0.7533,0.7525,0.7578,0.7762,0.784,0.7856,0.7791,0.7717,0.7644,0.7595,0.755,0.7525,0.7525,0.7525,0.7603,0.7842,0.7842,0.7998,0.8471,0.8232,0.8283,0.8693,0.8461,0.851,0.8908,0.8251,0.808,0.8384,0.8743,0.9247,0.9897,1.4506,1.7,1.7407,1.7369,1.7426,-0.6024,-0.5989,-0.6049,-0.6098,-0.6055,-0.6089,-0.6662,-0.6676,-0.6666,-0.7072,-0.758,-0.7924,-0.7794,-0.7513,-0.6953,-0.6008,-0.4999,-0.4239,-0.3673,-0.4275,-0.3034,0.1682,0.4335,0.5662,0.5662,0.5662,0.5687,0.5749,0.5767,0.5829,0.6109,0.613,0.6098,0.6098,0.6098,0.6066,0.6003,0.6003,0.5967,0.5899,0.5907,0.5878,0.582,0.5828,0.5798,0.5741,0.5733,0.5698,0.5734,0.5575,0.5521,0.5469,0.5409,0.5384,0.5384,0.5384,0.5384,0.5387,0.5392,0.5395,0.5395,0.5387,0.5717,0.6137,0.6485,0.7088,0.7717,0.8161,0.8239,0.8317,0.8317,0.8125,0.7913,0.7836,0.7746,0.766,0.7578,0.757,0.7627,0.7787,0.7827,0.7856,0.7925,0.7803,0.7697,0.768,0.7603,0.7542,0.7542,0.7533,0.7525,0.7603,0.792,0.8237,0.8315,0.8622,0.8856,0.8934,0.8934,0.909,0.948,0.8615,0.8415,0.9029,0.7923,0.7277,0.7093,1.403,1.7425,1.7426,1.7426,1.7426,-0.6022,-0.6112,-0.6161,-0.6169,-0.6055,-0.6024,-0.6587,-0.6479,-0.6477,-0.7524,-0.758,-0.7578,-0.8122,-0.7505,-0.6621,-0.5633,-0.509,-0.4643,-0.4191,-0.4513,-0.3906,-0.1339,0.2948,0.5725,0.5725,0.5725,0.5749,0.5812,0.5883,0.5924,0.6109,0.613,0.6098,0.6098,0.6098,0.6046,0.594,0.5937,0.5883,0.5774,0.5823,0.5815,0.5758,0.5809,0.5798,0.5739,0.5687,0.0,0.5731,0.5534,0.5485,0.5469,0.5409,0.5384,0.5384,0.5384,0.5384,0.5392,0.5442,0.5461,0.5452,0.5401,0.5717,0.6146,0.629,0.6836,0.7555,0.7713,0.8023,0.8223,0.8223,0.8081,0.7929,0.7913,0.7844,0.777,0.7754,0.7811,0.7872,0.7905,0.7966,0.7999,0.7946,0.7909,0.786,0.7787,0.7697,0.764,0.764,0.7574,0.7681,0.7998,0.8159,0.8471,0.9168,0.8934,0.909,0.9786,0.948,0.948,0.9864,0.9071,0.8832,0.9148,0.8045,0.7468,0.7419,1.4137,1.7395,1.7426,1.7426,1.7426,-0.612,-0.6188,-0.6229,-0.6196,-0.603,-0.6088,-0.6872,-0.6728,-0.6819,-0.7872,-0.7956,-0.789,-0.8113,-0.7394,-0.6641,-0.6273,-0.5266,-0.4702,-0.5057,-0.4663,-0.3457,-0.116,0.1791,0.4214,0.5562,0.5769,0.5801,0.5922,0.6011,0.6063,0.6063,0.6146,0.6098,0.6098,0.6098,0.6041,0.5924,0.5924,0.5953,0.6097,0.5861,0.5859,0.6099,0.5861,0.5769,0.5739,0.5711,0.5662,0.5687,0.5542,0.5482,0.5425,0.5395,0.5403,0.5431,0.5431,0.545,0.548,0.551,0.5518,0.5515,0.5485,0.5625,0.5866,0.6102,0.6696,0.728,0.7533,0.7925,0.8199,0.8199,0.8101,0.7991,0.7946,0.7864,0.7799,0.7799,0.7868,0.7934,0.7934,0.8003,0.8048,0.8007,0.7966,0.7921,0.7876,0.7791,0.7733,0.7733,0.7652,0.7657,0.7846,0.808,0.8471,0.9012,0.909,0.9402,0.9942,0.963,0.948,0.9708,0.9012,0.8705,0.9022,0.7998,0.7497,0.7521,1.416,1.7414,1.7426,1.7426,1.7426,-0.629,-0.6254,-0.6284,-0.6224,-0.6019,-0.608,-0.706,-0.7106,-0.7154,-0.8094,-0.8241,-0.818,-0.8015,-0.7481,-0.7002,-0.6906,-0.5892,-0.5257,-0.5727,-0.5032,-0.3533,-0.0798,0.0716,0.2509,0.5022,0.5615,0.5928,0.5942,0.6058,0.6127,0.6127,0.6074,0.6098,0.6098,0.6085,0.603,0.5924,0.591,0.603,0.6365,0.5918,0.5918,0.6276,0.592,0.5733,0.5722,0.5722,0.566,0.5559,0.5559,0.5499,0.5406,0.5417,0.5444,0.5477,0.5488,0.5521,0.5561,0.5575,0.5578,0.5581,0.5594,0.5551,0.5585,0.5966,0.6455,0.6928,0.732,0.78,0.817,0.817,0.8117,0.8044,0.7978,0.7991,0.7937,0.7856,0.7913,0.7962,0.7962,0.8015,0.806,0.806,0.8007,0.7962,0.7962,0.7885,0.7827,0.7827,0.775,0.7664,0.7591,0.7963,0.8342,0.8655,0.9066,0.9458,0.975,0.9438,0.9349,0.9324,0.8705,0.8632,0.9032,0.7998,0.7497,0.7521,1.416,1.7414,1.7426,1.7426,1.7426,-0.6555,-0.6316,-0.6346,-0.6286,-0.6049,-0.608,-0.706,-0.6985,-0.7006,-0.8075,-0.816,-0.8008,-0.7988,-0.8106,-0.7867,-0.7039,-0.7306,-0.7231,-0.5858,-0.6171,-0.5313,-0.2283,-0.0713,0.1164,0.3585,0.4979,0.5856,0.591,0.6025,0.609,0.609,0.6096,0.6098,0.6098,0.6049,0.5989,0.5924,0.5867,0.5807,0.5741,0.5741,0.5741,0.5741,0.5741,0.5711,0.566,0.566,0.5621,0.0,0.5559,0.5523,0.5472,0.5523,0.5515,0.5482,0.5531,0.5556,0.5567,0.5712,0.5731,0.5651,0.5706,0.5646,0.5629,0.5582,0.616,0.6819,0.6765,0.7413,0.8076,0.8076,0.8068,0.806,0.8052,0.8382,0.8544,0.8123,0.8044,0.8052,0.8052,0.8056,0.806,0.806,0.8056,0.8052,0.8052,0.7978,0.7921,0.7921,0.7844,0.7782,0.7774,0.8096,0.8282,0.8362,0.8762,0.9016,0.901,0.9,0.9041,0.9178,0.8705,0.8871,0.9901,0.8315,0.7497,0.7521,1.416,1.7414,1.7426,1.7426,1.7426,-0.6461,-0.6322,-0.6401,-0.6305,-0.6,-0.5975,-0.6966,-0.6808,-0.6813,-0.7909,-0.8029,-0.7988,-0.7988,-0.8092,-0.8019,-0.7798,-0.7572,-0.7075,-0.6111,-0.5764,-0.42,-0.0252,0.0689,0.2192,0.5097,0.5917,0.6201,0.6022,0.6071,0.6098,0.6098,0.6098,0.6098,0.6098,0.6044,0.5984,0.5924,0.5861,0.5892,0.6186,0.5831,0.5831,0.6186,0.5831,0.5728,0.5703,0.5665,0.5723,0.0,0.5575,0.5545,0.5529,0.5551,0.5567,0.5583,0.5692,0.5638,0.567,0.5695,0.5706,0.5703,0.5689,0.5654,0.5616,0.5632,0.6019,0.6467,0.6781,0.7251,0.7796,0.8076,0.8315,0.8566,0.8817,0.8822,0.8654,0.8487,0.8232,0.806,0.806,0.806,0.806,0.806,0.806,0.806,0.806,0.8032,0.8011,0.8011,0.7934,0.7962,0.8289,0.8365,0.8545,0.8785,0.922,0.9447,0.9342,0.9094,0.8888,0.871,0.8159,0.808,0.8476,0.7842,0.7505,0.7546,1.419,1.7368,1.744,1.7436,1.7386,-0.6724,-0.6518,-0.6382,-0.6278,-0.6198,-0.6277,-0.697,-0.6942,-0.7035,-0.784,-0.7988,-0.7988,-0.7988,-0.7988,-0.8092,0.0,0.0,-0.7293,-0.689,-0.6295,-0.4534,-0.0636,0.0164,0.1764,0.5148,0.6157,0.652,0.6252,0.6182,0.609,0.6074,0.6074,0.6074,0.6074,0.6,0.594,0.5897,0.5834,0.5963,0.6276,0.592,0.592,0.6276,0.5831,0.573,0.5711,0.567,0.5728,0.0,0.5684,0.5575,0.5564,0.56,0.563,0.574,0.567,0.5703,0.5741,0.5741,0.5728,0.5706,0.5665,0.5726,0.5632,0.5673,0.5879,0.6228,0.657,0.7117,0.7808,0.8164,0.8733,0.9156,0.9323,0.924,0.9072,0.8738,0.8483,0.8232,0.8148,0.806,0.806,0.806,0.806,0.806,0.806,0.806,0.806,0.806,0.8011,0.8057,0.8384,0.8652,0.8843,0.9135,0.9298,0.9411,0.9307,0.887,0.8488,0.8163,0.7764,0.7525,0.7525,0.7525,0.7521,0.7509,1.2181,1.5623,1.7751,1.7757,1.7803,-0.7445,-0.6848,-0.6267,-0.6204,-0.6556,-0.6905,-0.7092,-0.7422,-0.7836,-0.7975,-0.7988,-0.7988,-0.7988,-0.7988,-0.8092,-0.8248,0.0,0.0,-0.8278,-0.8329,-0.7428,-0.4943,-0.3362,-0.1019,0.2552,0.514,0.6595,0.6661,0.6349,0.6074,0.6016,0.6014,0.6014,0.6014,0.5897,0.5834,0.5831,0.5771,0.5741,0.5741,0.5741,0.5741,0.5741,0.5741,0.5709,0.574,0.574,0.5704,0.0,0.5712,0.5701,0.5572,0.5692,0.5703,0.5657,0.5717,0.5741,0.5741,0.5741,0.5703,0.574,0.574,0.5698,0.5561,0.5561,0.5865,0.6069,0.6069,0.7035,0.8148,0.8571,0.9407,0.9986,0.949,0.9741,0.9824,0.8905,0.8738,0.8571,0.8148,0.806,0.806,0.806,0.806,0.806,0.806,0.806,0.806,0.806,0.806,0.806,0.8144,0.8901,0.9359,0.9337,0.8916,0.8548,0.8527,0.8033,0.7623,0.7529,0.7525,0.7525,0.7525,0.7525,0.7537,0.7488,0.7566,1.1427,1.872,1.872,1.872,-0.7731,-0.7527,-0.7477,-0.7198,-0.7148,-0.7183,-0.7493,-0.7583,-0.7635,-0.7916,-0.7988,-0.7988,-0.7988,-0.7988,-0.8103,-0.8513,-0.8608,0.0,-0.7889,-0.7667,-0.6464,-0.3368,0.0081,0.3276,0.6083,0.65,0.6525,0.6592,0.6247,0.597,0.5954,0.5913,0.5907,0.5951,0.5875,0.5831,0.5831,0.5771,0.5741,0.5741,0.5741,0.5741,0.5741,0.5741,0.5709,0.574,0.574,0.5728,0.5712,0.5731,0.5662,0.5687,0.5725,0.5728,0.5714,0.5733,0.5741,0.5741,0.5741,0.57,0.5731,0.569,0.5548,0.5501,0.5501,0.5601,0.5782,0.5995,0.7035,0.8227,0.8562,0.9402,1.0153,1.0237,1.0153,0.9903,0.9323,0.8905,0.8571,0.8148,0.806,0.806,0.806,0.806,0.806,0.806,0.806,0.806,0.806,0.806,0.8315,0.8901,0.9235,0.9281,0.8848,0.9245,0.925,0.8593,0.8393,0.8093,0.7529,0.7525,0.7525,0.7525,0.7525,0.7529,0.7537,1.2621,1.6418,1.8736,1.8736,1.8736,-0.8078,-0.7907,-0.7859,-0.7604,-0.7566,-0.7622,-0.779,-0.7802,-0.7864,-0.7951,-0.7988,-0.7975,-0.7914,-0.7907,-0.7995,-0.8323,-0.837,-0.8227,-0.7948,-0.7833,-0.6735,-0.3986,0.0579,0.4207,0.5913,0.6504,0.6876,0.6895,0.646,0.6097,0.5891,0.5853,0.5839,0.5853,0.5818,0.5798,0.5798,0.576,0.5741,0.5741,0.5741,0.5741,0.5741,0.5741,0.5719,0.5684,0.566,0.5662,0.0,0.566,0.5687,0.5741,0.5741,0.5741,0.5741,0.5741,0.5741,0.5739,0.5714,0.5668,0.5692,0.5548,0.5488,0.5442,0.5442,0.5482,0.5601,0.5966,0.6926,0.7897,0.8395,0.9318,1.0153,1.0404,1.0404,1.0237,0.9741,0.9407,0.9072,0.8483,0.8483,0.8483,0.8148,0.8232,0.8315,0.8148,0.806,0.806,0.806,0.8232,0.8566,0.9072,0.9285,0.9137,0.8625,0.9351,0.944,0.8627,0.8344,0.798,0.7529,0.7525,0.7525,0.7525,0.7525,0.7467,0.7512,1.5009,1.8684,1.8673,1.8673,1.8673,0.0,-0.7975,-0.756,-0.7547,-0.7902,-0.8161,-0.7873,-0.8199,0.0,-0.8049,-0.7982,-0.7934,-0.7868,-0.7828,-0.7828,-0.7882,-0.7902,-0.8001,-0.8407,-0.8487,-0.788,-0.6055,-0.1142,0.2362,0.2951,0.5706,0.7449,0.7376,0.6882,0.6342,0.5919,0.5826,0.5798,0.5744,0.5741,0.5741,0.5741,0.5741,0.5741,0.5741,0.5741,0.5741,0.5741,0.5741,0.5739,0.0,0.5679,0.5687,0.573,0.5679,0.5689,0.5741,0.5741,0.5741,0.5741,0.5741,0.5741,0.5733,0.567,0.5698,0.5551,0.5488,0.5431,0.5384,0.5384,0.5425,0.5543,0.5987,0.6724,0.7478,0.798,0.9068,1.0075,1.007,1.0404,1.057,1.0153,1.007,0.9824,0.8905,0.9072,0.9151,0.8315,0.8483,0.8654,0.8232,0.8148,0.8148,0.8148,0.8483,0.8654,0.8738,0.9063,0.9039,0.8531,0.9169,0.9276,0.8534,0.7884,0.7525,0.7525,0.7525,0.7525,0.7525,0.7529,0.7748,0.8353,1.5294,1.8664,1.8673,1.8673,1.8673,-0.8323,0.0,-0.854,-0.8329,-0.8338,-0.841,0.0,-0.8282,-0.8269,-0.8029,-0.7894,-0.7923,-0.8126,-0.797,-0.7997,-0.8528,-0.8764,-0.8871,-0.8806,-0.8331,-0.7042,-0.4396,-0.1044,0.1849,0.379,0.6261,0.7757,0.7739,0.7034,0.6494,0.6299,0.594,0.5755,0.5741,0.5741,0.5741,0.5741,0.5741,0.5741,0.5741,0.5741,0.5741,0.5741,0.5741,0.5717,0.5673,0.5706,0.57,0.5673,0.5706,0.5728,0.5741,0.5741,0.5741,0.5741,0.5741,0.5741,0.5733,0.567,0.5698,0.5542,0.5439,0.5395,0.5384,0.5384,0.5395,0.5403,0.5555,0.6472,0.7394,0.7562,0.8566,0.9653,0.9986,1.0153,1.0237,1.0153,1.007,0.9903,0.9323,0.9323,0.9318,0.9151,0.9151,0.924,0.9068,0.8822,0.8571,0.8571,0.8399,0.8399,0.8654,0.8732,0.8716,0.8698,0.8776,0.8529,0.7797,0.7616,0.7525,0.7525,0.7525,0.7525,0.7525,0.7488,1.0363,1.6082,1.7844,1.866,1.8673,1.8673,1.8673,-0.8167,-0.8547,-0.8824,-0.8648,-0.8587,-0.8547,-0.8397,-0.8262,-0.8119,-0.7963,-0.7868,-0.7841,-0.7943,-0.7882,-0.7991,-0.854,-0.8595,-0.8587,-0.859,-0.7946,-0.7006,-0.5723,-0.1968,0.0988,0.2504,0.5842,0.7926,0.7889,0.7259,0.6723,0.6544,0.6007,0.5741,0.5741,0.5741,0.5741,0.5741,0.5741,0.5741,0.5741,0.5741,0.5741,0.5741,0.5741,0.5722,0.5692,0.5728,0.5722,0.5695,0.5728,0.5741,0.5741,0.5741,0.5741,0.5741,0.5741,0.5722,0.5689,0.563,0.5551,0.5469,0.5403,0.5384,0.5384,0.5384,0.5384,0.5384,0.5384,0.6056,0.6808,0.7063,0.7897,0.8901,0.9323,0.9657,0.9741,0.9741,0.9741,0.9741,0.949,0.9574,0.9653,0.9407,0.9569,0.9653,0.9407,0.9156,0.8989,0.8989,0.8984,0.8984,0.8989,0.9063,0.898,0.8843,0.8343,0.7907,0.7533,0.7525,0.7525,0.7525,0.7525,0.7525,0.7525,0.7528,1.1231,1.8705,1.8727,1.8689,1.8673,1.8673,1.8673,-0.8069,-0.8474,-0.8801,-0.8629,-0.8642,-0.8628,-0.8452,-0.8221,-0.7955,-0.7875,-0.7779,-0.7746,-0.7644,-0.7682,-0.7882,-0.8307,-0.8096,-0.8017,-0.8248,-0.7729,-0.752,-0.7929,-0.3337,0.009,0.0537,0.5051,0.7873,0.7982,0.7531,0.7084,0.6633,0.6097,0.5741,0.5741,0.5741,0.5741,0.5741,0.5741,0.5741,0.5741,0.5741,0.5741,0.5741,0.5741,0.5741,0.5741,0.0,0.0,0.5741,0.5741,0.5741,0.5741,0.5741,0.5736,0.5728,0.5728,0.5689,0.5715,0.5567,0.5474,0.5384,0.5384,0.5384,0.5384,0.5384,0.5384,0.5384,0.5384,0.5717,0.6137,0.656,0.7311,0.8232,0.8571,0.9072,0.9407,0.949,0.949,0.9407,0.9407,0.9741,0.9986,0.9569,0.9903,1.007,0.9653,0.9574,0.9486,0.9486,0.982,0.9824,0.9407,0.9482,0.9332,0.8756,0.7929,0.7489,0.7578,0.7554,0.7463,0.7525,0.7525,0.7525,0.7525,0.7485,1.1199,1.8705,1.8713,1.8673,1.8673,1.8673,1.8673,-0.8506,-0.8594,-0.8532,-0.8215,-0.8381,-0.8497,-0.8174,-0.8022,-0.7982,-0.7961,-0.7798,-0.7615,-0.7597,-0.762,-0.7896,-0.8654,-0.8274,-0.8088,-0.8544,-0.8272,-0.8098,-0.8473,-0.4122,-0.0806,0.0,0.448,0.7635,0.8429,0.8067,0.762,0.7084,0.6633,0.6186,0.5741,0.5741,0.5741,0.5741,0.5741,0.5741,0.5741,0.5741,0.5741,0.5741,0.5741,0.5741,0.5741,0.0,0.5741,0.5741,0.5741,0.5741,0.5741,0.5741,0.5709,0.5665,0.5665,0.5627,0.5564,0.5507,0.5442,0.5384,0.5384,0.5384,0.5384,0.5384,0.5384,0.5384,0.5384,0.5717,0.6137,0.6137,0.7143,0.8227,0.8645,0.9068,0.949,0.9908,0.9657,0.9407,0.9407,0.9741,1.007,0.9986,1.032,1.057,1.0487,1.0237,0.9991,0.9991,0.9741,0.9407,0.9077,0.8985,0.8756,0.8267,0.777,0.7625,0.8004,0.7684,0.7528,0.7529,0.7525,0.7525,0.7525,0.7485,1.1199,1.8705,1.8713,1.8673,1.8673,1.8673,1.8673,-0.8238,-0.8562,-0.8615,-0.8062,-0.8326,-0.8679,-0.8349,-0.812,-0.798,-0.8009,-0.7889,-0.7799,-0.7614,-0.7702,-0.7968,-0.8437,-0.8412,-0.831,-0.8208,-0.8181,-0.8223,-0.8575,-0.663,-0.4027,-0.0894,0.4655,0.7896,0.7892,0.7889,0.771,0.7263,0.6723,0.6276,0.5741,0.5741,0.5741,0.5741,0.5741,0.5741,0.5741,0.5741,0.5741,0.5741,0.5741,0.5741,0.5741,0.0,0.5741,0.5741,0.5741,0.5741,0.5739,0.5706,0.5676,0.5731,0.5578,0.554,0.5504,0.5447,0.5409,0.5384,0.5384,0.5384,0.5384,0.5384,0.5384,0.5384,0.5384,0.5552,0.5801,0.6053,0.6724,0.7478,0.8227,0.8733,0.9072,0.9323,0.9156,0.9072,0.9323,0.9574,0.9903,1.032,1.057,1.0737,1.0737,1.057,1.0404,1.0404,1.007,0.9657,0.924,0.9202,0.8842,0.8173,0.7966,0.7815,0.7803,0.7597,0.7533,0.7524,0.752,0.7496,0.7525,0.7528,1.1231,1.8705,1.8727,1.8689,1.8673,1.8673,1.8673,-0.8177,-0.8445,-0.8588,-0.8148,-0.8462,-0.8682,-0.7843,-0.7485,-0.7324,-0.7517,-0.7875,-0.8142,-0.7944,-0.7869,-0.7927,-0.8111,-0.8361,-0.8433,-0.8005,-0.8046,-0.8249,-0.8587,-0.8615,-0.6726,-0.1879,0.385,0.7356,0.7535,0.7889,0.7889,0.7531,0.6994,0.6454,0.592,0.5817,0.5719,0.5719,0.5706,0.5711,0.5741,0.5741,0.5741,0.5741,0.5741,0.5741,0.5741,0.5741,0.5741,0.5741,0.5741,0.5741,0.5736,0.5673,0.572,0.5597,0.5493,0.5455,0.5447,0.5401,0.5384,0.5384,0.5384,0.5384,0.5384,0.5384,0.5384,0.5384,0.5384,0.5384,0.5468,0.5801,0.6305,0.6892,0.7729,0.8232,0.8571,0.8654,0.8738,0.8822,0.9156,0.9407,0.9736,1.0404,1.0654,1.0737,1.0737,1.0737,1.0737,1.0737,1.032,0.9908,0.949,0.9412,0.9077,0.8148,0.806,0.8003,0.7623,0.7657,0.7677,0.7664,0.758,0.754,0.7525,0.7516,1.0316,1.6082,1.7844,1.866,1.8673,1.8673,1.8673,-0.8798,-0.8431,-0.816,-0.8685,-0.8884,-0.8251,-0.5815,-0.5154,-0.5218,-0.5964,-0.759,-0.8833,-0.8797,-0.8127,-0.7642,-0.8076,-0.8154,-0.8261,-0.8469,-0.8403,-0.8409,-0.8595,-0.8619,-0.7091,-0.3133,0.0895,0.4751,0.8258,0.8522,0.8518,0.8518,0.7624,0.6994,0.6633,0.6039,0.5657,0.5657,0.5684,0.5712,0.5741,0.5741,0.5741,0.5741,0.5741,0.5741,0.5741,0.5741,0.5741,0.5741,0.5741,0.5741,0.5736,0.5673,0.5583,0.548,0.5414,0.539,0.539,0.5387,0.5384,0.5384,0.5384,0.5384,0.5384,0.5384,0.5384,0.5384,0.5384,0.5384,0.5384,0.5468,0.6053,0.6804,0.7311,0.7813,0.8232,0.8654,0.8738,0.8738,0.8738,0.949,1.007,1.0153,1.0487,1.0737,1.0737,1.0737,1.0737,1.0737,1.032,0.9908,0.949,0.9412,0.9077,0.8148,0.806,0.8056,0.8044,0.8057,0.8084,0.807,0.7664,0.754,0.7525,0.7477,0.7781,0.8353,1.5294,1.8664,1.8673,1.8673,1.8673,-0.8492,-0.7943,-0.7584,-0.8514,-0.8472,-0.8056,-0.725,-0.607,-0.5276,-0.5574,-0.6202,-0.7367,-0.9596,-0.9319,-0.8535,-0.8161,-0.8242,-0.8448,-0.8577,-0.8501,-0.8482,-0.8603,-0.8619,-0.6189,0.009,0.2061,0.3945,0.664,0.7896,0.8343,0.7803,0.7932,0.746,0.6127,0.58,0.5681,0.5681,0.5743,0.6193,0.722,0.6198,0.5684,0.5687,0.5722,0.5741,0.5739,0.57,0.5684,0.5681,0.5731,0.574,0.5679,0.5619,0.5545,0.5469,0.5406,0.5384,0.5384,0.5384,0.5384,0.5384,0.5384,0.5384,0.5384,0.5384,0.5384,0.5384,0.5384,0.5384,0.5384,0.5384,0.5885,0.6469,0.7227,0.7729,0.8315,0.8989,0.9156,0.924,0.949,0.982,1.0153,1.0404,1.057,1.0737,1.0737,1.0737,1.0737,1.0737,1.0242,0.9824,0.9662,0.8989,0.8483,0.8148,0.806,0.806,0.806,0.8082,0.809,0.8084,0.775,0.7516,0.7532,0.7529,0.9832,1.4498,1.7351,1.8679,1.8683,1.8714,1.8704,-0.8309,-0.7855,-0.7523,-0.8067,-0.8031,-0.788,-0.786,-0.6905,-0.5911,-0.5513,-0.5422,-0.6242,-0.9153,-0.9558,-0.9188,-0.8353,-0.8437,-0.8594,-0.8626,-0.8587,-0.8607,-0.8607,-0.8619,-0.5562,0.2149,0.287,0.3407,0.4751,0.718,0.8335,0.7673,0.771,0.7314,0.668,0.5995,0.5615,0.5618,0.6203,0.7045,0.8057,0.6403,0.5662,0.5684,0.5726,0.5734,0.5715,0.5673,0.5654,0.5564,0.5629,0.5645,0.5679,0.5634,0.5499,0.5442,0.5401,0.5384,0.5384,0.5384,0.5384,0.5384,0.5384,0.5384,0.5384,0.5384,0.5384,0.5384,0.5384,0.5384,0.5384,0.5384,0.5636,0.6137,0.6975,0.7562,0.8148,0.8989,0.9407,0.9736,1.007,1.0237,1.0404,1.0654,1.0737,1.0737,1.0737,1.0737,1.0737,1.0742,1.0158,0.9662,0.9323,0.8566,0.806,0.806,0.806,0.806,0.806,0.806,0.8107,0.8107,0.7851,0.7697,0.7709,0.7585,1.1201,1.8711,1.8736,1.867,1.8683,1.8707,1.8862,-0.8391,-0.8275,-0.8112,-0.75,-0.7557,-0.7655,-0.7025,-0.7186,-0.7148,-0.5787,-0.5443,-0.5722,-0.7232,-0.8716,-0.9417,-0.8716,-0.8573,-0.8622,-0.8619,-0.857,-0.8607,-0.8607,-0.8619,-0.5562,0.2149,0.287,0.287,0.2867,0.6461,0.8583,0.8565,0.6709,0.6592,0.8532,0.6531,0.5378,0.5381,0.719,0.804,0.8032,0.6273,0.5496,0.573,0.573,0.5699,0.5723,0.572,0.5552,0.539,0.5365,0.5474,0.5562,0.556,0.5439,0.5384,0.5384,0.5384,0.5384,0.5384,0.5384,0.5384,0.5384,0.5384,0.5384,0.5384,0.5384,0.5384,0.5384,0.5384,0.5384,0.5384,0.5384,0.5636,0.6476,0.7063,0.7646,0.8487,0.9407,1.007,1.007,1.0404,1.0737,1.0737,1.0737,1.0737,1.0737,1.0737,1.0742,1.0664,1.0164,0.9407,0.8232,0.806,0.806,0.806,0.806,0.806,0.806,0.806,0.8107,0.8107,0.8102,0.8061,0.8131,0.7738,1.1219,1.866,1.8727,1.8673,1.8683,1.8707,1.9129,-0.8228,-0.7463,-0.6965,-0.7892,-0.7767,-0.7451,-0.7711,-0.7385,-0.6863,-0.6402,-0.6156,-0.6463,-0.7863,-0.8148,-0.8373,-0.911,-0.8878,-0.8622,-0.8619,-0.857,-0.8607,-0.8607,-0.8615,-0.5557,0.2149,0.287,0.287,0.287,0.6464,0.8044,0.6617,0.5867,0.6339,0.8174,0.6372,0.5403,0.5403,0.5894,0.6211,0.6189,0.5454,0.5282,0.551,0.5306,0.5232,0.5214,0.5171,0.5177,0.5135,0.5365,0.5389,0.5474,0.5474,0.5463,0.5444,0.5401,0.5384,0.5384,0.5384,0.5384,0.5384,0.5384,0.5384,0.5384,0.5384,0.5384,0.5384,0.5384,0.5384,0.5384,0.5384,0.5384,0.5552,0.6137,0.6389,0.6892,0.8395,0.8896,0.9397,1.032,1.0654,1.0737,1.0737,1.0737,1.0737,1.0737,1.0659,1.067,1.0686,1.0519,0.9839,0.8232,0.806,0.806,0.806,0.806,0.806,0.806,0.806,0.8136,0.8111,0.8107,0.8069,0.8061,0.7999,1.1476,1.866,1.8727,1.8667,1.8707,1.868,1.9123,-0.8124,-0.7365,-0.6844,-0.7523,-0.7217,-0.681,-0.7172,-0.7008,-0.679,-0.6733,-0.6559,-0.6738,-0.7925,-0.7839,-0.7945,-0.8919,-0.883,-0.8575,-0.8623,-0.8538,-0.8554,-0.8554,-0.7218,-0.4542,0.0178,0.1967,0.2871,0.2871,0.5744,0.7047,0.6232,0.6361,0.6987,0.8082,0.6327,0.5376,0.5376,0.5376,0.5365,0.5424,0.526,0.5228,0.542,0.5129,0.4967,0.5026,0.4992,0.5023,0.5182,0.5303,0.5417,0.5439,0.5439,0.5439,0.5436,0.5398,0.5384,0.5384,0.5384,0.5384,0.5384,0.5384,0.5384,0.5384,0.5384,0.5384,0.5384,0.5384,0.5384,0.5384,0.5384,0.5384,0.5552,0.5969,0.6221,0.6804,0.8395,0.8813,0.9314,1.0487,1.0737,1.0737,1.0737,1.0737,1.0737,1.0737,1.0664,1.0675,1.0691,1.0095,0.9249,0.8232,0.806,0.806,0.806,0.806,0.806,0.806,0.806,0.806,0.806,0.806,0.8123,0.8069,0.8069,1.1564,1.8702,1.8704,1.8669,1.8688,1.9023,1.9282,-0.7967,-0.7621,-0.7204,-0.6571,-0.6291,-0.6033,-0.5878,-0.6395,-0.6864,-0.6864,-0.6666,-0.6806,-0.7725,-0.7784,-0.796,-0.8397,-0.8546,-0.8624,-0.8709,-0.8482,-0.8368,-0.8368,-0.5286,-0.3086,-0.291,0.0446,0.2693,0.2871,0.4485,0.5959,0.6972,0.7743,0.8097,0.8101,0.6472,0.5625,0.5631,0.5631,0.5602,0.5377,0.5383,0.5437,0.5384,0.5126,0.5008,0.5032,0.5037,0.5183,0.5369,0.538,0.5418,0.5384,0.5384,0.5384,0.5384,0.5384,0.5384,0.5384,0.5384,0.5384,0.5384,0.5384,0.5384,0.5384,0.5384,0.5384,0.5384,0.5384,0.5384,0.5384,0.5384,0.5384,0.5468,0.5969,0.6301,0.6972,0.8227,0.8896,0.9569,1.0404,1.0654,1.0737,1.0737,1.0737,1.0737,1.0737,1.067,1.0597,1.0524,0.9077,0.806,0.806,0.806,0.806,0.806,0.806,0.806,0.806,0.806,0.806,0.806,0.806,0.806,0.806,0.8119,1.1297,1.7705,1.8403,1.8772,1.8831,1.9442,1.9404,-0.721,-0.6672,-0.634,-0.652,-0.6745,-0.6835,-0.6486,-0.6649,-0.6935,-0.7311,-0.6773,-0.6583,-0.8257,-0.7866,-0.7671,-0.8413,-0.8534,-0.8534,-0.8624,-0.8477,-0.8362,-0.8362,-0.6404,-0.4408,-0.291,-0.0713,0.1256,0.2784,0.3231,0.4907,0.8025,0.813,0.8125,0.8098,0.7684,0.7482,0.7489,0.7489,0.6804,0.5441,0.536,0.5438,0.5424,0.5327,0.5169,0.5035,0.5244,0.5361,0.5395,0.541,0.5373,0.5384,0.5384,0.5384,0.5384,0.5384,0.5384,0.5384,0.5384,0.5384,0.5384,0.5384,0.5384,0.5384,0.5384,0.5384,0.5384,0.5384,0.5384,0.5384,0.5384,0.5384,0.5384,0.5552,0.5636,0.5969,0.6888,0.7809,0.865,0.9486,1.0237,1.0737,1.0737,1.0737,1.0659,1.067,1.0675,1.0174,0.8822,0.8315,0.806,0.806,0.806,0.806,0.806,0.806,0.806,0.806,0.806,0.806,0.806,0.806,0.806,0.806,0.8119,0.8883,1.0367,1.598,1.904,1.9603,1.9186,1.8843,-0.7044,-0.6616,-0.6244,-0.6116,-0.6293,-0.6435,-0.623,-0.6319,-0.6576,-0.7045,-0.6764,-0.6824,-0.8186,-0.7765,-0.7613,-0.8385,-0.8325,-0.8205,-0.8389,-0.8358,-0.8268,-0.8268,-0.5822,-0.3762,-0.2713,-0.0178,0.1795,0.2784,0.3321,0.4635,0.702,0.7853,0.8199,0.8142,0.8093,0.8068,0.8072,0.7657,0.6982,0.6053,0.5633,0.5382,0.5382,0.5371,0.5229,0.5037,0.515,0.5262,0.5377,0.536,0.5384,0.5384,0.5384,0.5384,0.5384,0.5384,0.5384,0.5384,0.5384,0.5365,0.543,0.5373,0.543,0.5385,0.5416,0.5424,0.5424,0.5424,0.5363,0.5384,0.5384,0.5384,0.5384,0.5384,0.5384,0.5801,0.7056,0.7725,0.8478,0.9736,1.0404,1.0737,1.0737,1.0742,1.0664,1.0675,1.0002,0.9156,0.8232,0.806,0.806,0.806,0.806,0.806,0.806,0.806,0.806,0.806,0.806,0.806,0.806,0.806,0.806,0.806,0.8131,0.8123,0.8123,1.5604,1.9263,1.9346,1.8872,1.8733,-0.7036,-0.6633,-0.6279,-0.5698,-0.5638,-0.579,-0.5812,-0.5864,-0.6,-0.6457,-0.6604,-0.6904,-0.7926,-0.7583,-0.7488,-0.8301,-0.8169,-0.7959,-0.8235,-0.8232,-0.8174,-0.8174,-0.4905,-0.2602,-0.2602,0.0707,0.2867,0.2867,0.3575,0.4427,0.5217,0.6938,0.7898,0.7901,0.7964,0.8032,0.8015,0.727,0.6773,0.6603,0.5772,0.536,0.5368,0.5399,0.5294,0.5044,0.5044,0.5156,0.5371,0.5382,0.5384,0.5384,0.5384,0.5384,0.5384,0.5384,0.5384,0.5384,0.5384,0.5427,0.5385,0.5352,0.5377,0.5375,0.5347,0.5369,0.5377,0.5377,0.543,0.5398,0.5387,0.5392,0.5398,0.5387,0.5384,0.5804,0.7311,0.798,0.865,1.0153,1.057,1.0737,1.0737,1.0659,1.0586,1.0341,0.8989,0.806,0.806,0.806,0.806,0.806,0.806,0.806,0.806,0.806,0.806,0.806,0.806,0.806,0.806,0.806,0.806,0.806,0.806,0.8123,0.8157,1.5933,1.9365,1.873,1.8688,1.866,-0.66,-0.6048,-0.5637,-0.5628,-0.5572,-0.5624,-0.5728,-0.5801,-0.5845,-0.5933,-0.5983,-0.6451,-0.7678,-0.7463,-0.7406,-0.8209,-0.8199,-0.8146,-0.8219,-0.8138,-0.8081,-0.8081,-0.4884,-0.2602,-0.2602,0.0703,0.2834,0.2834,0.2897,0.3401,0.4346,0.5252,0.613,0.6888,0.7572,0.7913,0.7836,0.7754,0.7262,0.6286,0.5715,0.542,0.5388,0.538,0.5377,0.5377,0.5377,0.5383,0.5394,0.5363,0.5384,0.5384,0.5384,0.5384,0.5384,0.5384,0.5384,0.5384,0.5384,0.5427,0.5377,0.5137,0.5177,0.5367,0.5294,0.5251,0.5212,0.5377,0.5376,0.5365,0.5398,0.5422,0.5365,0.5398,0.5384,0.5468,0.572,0.7398,0.891,0.9161,0.9991,1.0737,1.0664,1.0664,1.0164,0.865,0.8232,0.806,0.806,0.806,0.806,0.806,0.806,0.806,0.806,0.806,0.806,0.806,0.806,0.806,0.806,0.806,0.806,0.806,0.806,0.8068,0.8085,1.5347,1.8846,1.8671,1.8695,1.8702,-0.6473,-0.6082,-0.5755,-0.5547,-0.5561,-0.5616,-0.5635,-0.5714,-0.5771,-0.5736,-0.5779,-0.6166,-0.7273,-0.705,-0.6973,-0.8031,-0.7967,-0.7928,-0.813,-0.8089,-0.806,-0.806,-0.4852,-0.2579,-0.2579,0.0605,0.2777,0.2777,0.275,0.3149,0.4058,0.488,0.5674,0.6598,0.7386,0.784,0.7799,0.7552,0.6823,0.5607,0.5364,0.5215,0.5161,0.5243,0.5363,0.5427,0.5427,0.5427,0.543,0.5373,0.5384,0.5384,0.5384,0.5384,0.5384,0.5384,0.5384,0.5384,0.5384,0.5405,0.533,0.5116,0.5042,0.5186,0.5142,0.5088,0.5118,0.5316,0.5413,0.5425,0.5518,0.548,0.5421,0.5365,0.5436,0.5425,0.5392,0.6218,0.755,0.9569,1.032,1.0737,1.0664,1.067,1.0425,0.9672,0.8738,0.806,0.806,0.806,0.806,0.806,0.806,0.806,0.806,0.806,0.806,0.806,0.806,0.806,0.806,0.806,0.806,0.806,0.8093,0.8081,0.8111,1.5264,1.868,1.8714,1.8711,1.8673,-0.653,-0.6345,-0.6073,-0.5764,-0.574,-0.5822,-0.5615,-0.5619,-0.5681,-0.5635,-0.5687,-0.5915,-0.6793,-0.6643,-0.6815,-0.7882,-0.7839,-0.7719,-0.8072,-0.806,-0.8052,-0.8032,-0.4811,-0.2632,-0.2624,0.0593,0.2714,0.2714,0.2687,0.299,0.3623,0.461,0.5488,0.6149,0.7198,0.7754,0.7729,0.7164,0.6358,0.5316,0.5155,0.5083,0.5018,0.5099,0.5237,0.5338,0.5354,0.5363,0.5363,0.5379,0.5384,0.5384,0.5384,0.5384,0.5384,0.5384,0.5373,0.5363,0.5363,0.5366,0.535,0.5068,0.4984,0.503,0.4995,0.5019,0.5043,0.5266,0.5374,0.5482,0.5631,0.5593,0.544,0.5485,0.5463,0.5439,0.539,0.6131,0.7547,1.0148,1.0737,1.0659,1.067,1.0336,1.0007,1.0012,0.891,0.806,0.806,0.806,0.806,0.806,0.806,0.806,0.806,0.806,0.806,0.806,0.806,0.806,0.806,0.806,0.806,0.806,0.8117,0.9105,1.1074,1.6194,1.8744,1.8673,1.8673,1.8673,-0.6791,-0.6765,-0.6554,-0.6194,-0.62,-0.6161,-0.5653,-0.5526,-0.5567,-0.5564,-0.566,-0.5814,-0.6286,-0.6657,-0.7015,-0.7448,-0.7872,-0.8068,-0.8064,-0.806,-0.8032,-0.795,-0.4838,-0.2677,-0.2567,0.058,0.2569,0.2569,0.2623,0.2605,0.2685,0.4311,0.518,0.5197,0.6792,0.7627,0.7542,0.6755,0.6206,0.5811,0.5265,0.4981,0.5037,0.5037,0.4989,0.5053,0.5273,0.5383,0.5385,0.536,0.5384,0.5384,0.5384,0.5384,0.5384,0.5384,0.5432,0.5383,0.5383,0.5384,0.5357,0.512,0.4995,0.5022,0.5025,0.4986,0.4963,0.5024,0.5206,0.5482,0.5631,0.5651,0.5651,0.5648,0.5515,0.5384,0.5368,0.8064,1.0513,1.0659,1.0659,1.067,1.0675,0.9328,0.8232,0.8232,0.8148,0.806,0.806,0.806,0.806,0.806,0.806,0.806,0.806,0.806,0.806,0.806,0.806,0.806,0.806,0.806,0.806,0.806,0.8117,1.1759,1.925,1.891,1.8742,1.8673,1.8673,1.8673,-0.6425,-0.6668,-0.6879,-0.6344,-0.6166,-0.5982,-0.5824,-0.5737,-0.5548,-0.5512,-0.5799,-0.592,-0.585,-0.6479,-0.7049,-0.7385,-0.7833,-0.8023,-0.7909,-0.7893,-0.788,-0.7852,-0.4754,-0.2626,-0.2615,0.0569,0.2592,0.2592,0.2563,0.2545,0.2545,0.4132,0.5076,0.5055,0.6473,0.7009,0.6744,0.6196,0.5883,0.5727,0.5257,0.5033,0.4976,0.4976,0.4986,0.5011,0.507,0.5199,0.524,0.5385,0.541,0.5413,0.5368,0.5384,0.5379,0.5424,0.5396,0.5371,0.5166,0.518,0.5112,0.5032,0.4992,0.5022,0.5022,0.5036,0.4995,0.5013,0.518,0.5441,0.5493,0.5645,0.5665,0.5537,0.5455,0.5382,0.5371,0.8232,1.0691,1.0675,1.067,1.0331,0.924,0.8483,0.806,0.806,0.806,0.806,0.806,0.806,0.806,0.806,0.806,0.806,0.806,0.806,0.806,0.806,0.806,0.806,0.806,0.806,0.806,0.806,0.8081,1.0597,1.5766,1.7758,1.8725,1.8673,1.8673,1.8673,-0.6357,-0.6753,-0.721,-0.6808,-0.6555,-0.6293,-0.6187,-0.5995,-0.5674,-0.5513,-0.5716,-0.5913,-0.5782,-0.6429,-0.7015,-0.7176,-0.7599,-0.7934,-0.7815,-0.7799,-0.7787,-0.7758,-0.468,-0.2579,-0.2568,0.0558,0.2544,0.2544,0.2526,0.0,0.2514,0.3846,0.4787,0.5179,0.6275,0.6747,0.6275,0.5886,0.573,0.573,0.5257,0.5022,0.5022,0.5022,0.5022,0.5022,0.4984,0.5035,0.5177,0.5237,0.5358,0.538,0.5421,0.5354,0.5349,0.5391,0.5349,0.5226,0.5024,0.4971,0.5,0.5,0.4976,0.5022,0.5022,0.5022,0.4968,0.5005,0.5232,0.5388,0.54,0.5575,0.5692,0.5459,0.5386,0.5406,0.5382,0.7227,0.9254,1.043,1.0257,0.9495,0.8315,0.8064,0.806,0.806,0.806,0.806,0.806,0.806,0.806,0.806,0.806,0.806,0.806,0.806,0.806,0.806,0.806,0.806,0.806,0.806,0.806,0.806,0.806,0.9888,1.3452,1.6976,1.8735,1.8673,1.8673,1.8673,0.0,0.0,0.0,-0.7567,-0.7354,-0.7049,-0.6716,-0.6267,-0.5915,-0.5536,-0.5493,-0.5623,-0.606,-0.6479,-0.6795,-0.6727,-0.7338,-0.7795,-0.7791,-0.7791,-0.7758,-0.7668,-0.4703,-0.254,-0.251,0.0549,0.2514,0.2514,0.2514,0.2514,0.2514,0.3376,0.4395,0.5573,0.6434,0.6666,0.6275,0.5883,0.5651,0.5651,0.5257,0.5022,0.5022,0.5022,0.5022,0.5022,0.5022,0.4976,0.5032,0.5013,0.5153,0.5371,0.5374,0.5294,0.5212,0.5374,0.5215,0.5032,0.5029,0.4992,0.5022,0.5022,0.5022,0.5022,0.5022,0.5022,0.4968,0.5005,0.5202,0.5409,0.5431,0.5518,0.5632,0.5491,0.5392,0.5373,0.5398,0.5382,0.6385,0.9844,0.9086,0.7989,0.8072,0.8068,0.806,0.806,0.806,0.806,0.806,0.806,0.806,0.806,0.806,0.806,0.806,0.806,0.806,0.806,0.806,0.806,0.806,0.806,0.806,0.806,0.806,0.9888,1.3452,1.6891,1.8559,1.8673,1.8673,1.8673,-0.6729,0.0,0.0,0.0,0.0,0.0,-0.6803,-0.637,-0.5952,-0.5886,-0.5932,-0.6062,-0.5875,-0.6425,-0.6843,-0.6883,-0.7386,-0.7754,-0.7619,-0.7603,-0.7591,-0.7566,-0.4567,-0.2517,-0.2508,0.0549,0.2514,0.0,0.2514,0.2514,0.2514,0.3846,0.4787,0.5179,0.604,0.6118,0.5332,0.5257,0.5179,0.5179,0.51,0.5022,0.5022,0.5022,0.5022,0.5022,0.5022,0.503,0.4973,0.5032,0.5067,0.5169,0.5341,0.5377,0.5289,0.5161,0.5042,0.5002,0.4997,0.5036,0.5022,0.5022,0.5022,0.5022,0.5022,0.5022,0.4968,0.5005,0.5202,0.542,0.5392,0.5548,0.5729,0.5626,0.5504,0.5373,0.5398,0.5384,0.5298,0.4957,0.4533,0.5036,0.7653,0.8068,0.8064,0.8068,0.8064,0.806,0.806,0.806,0.806,0.806,0.806,0.806,0.806,0.806,0.806,0.806,0.806,0.806,0.806,0.806,0.806,0.806,0.806,0.9888,1.337,1.439,1.6213,1.8673,1.8673,1.8673,-0.6871,-0.7054,-0.7314,-0.7435,0.0,0.0,-0.6814,-0.6395,-0.5866,-0.5541,-0.5692,-0.5954,-0.5906,-0.6473,-0.6986,-0.7154,-0.7469,-0.7648,-0.7542,-0.7525,-0.7525,-0.7525,-0.4544,-0.2507,-0.2507,0.0549,0.2514,0.2514,0.2514,0.2514,0.2514,0.4081,0.4852,0.4439,0.5606,0.5826,0.4948,0.4973,0.4986,0.4986,0.5008,0.5022,0.5022,0.5022,0.5022,0.5022,0.5022,0.5022,0.5025,0.506,0.5087,0.504,0.5218,0.5338,0.5333,0.5134,0.5105,0.4989,0.4976,0.5022,0.5022,0.5022,0.5022,0.5022,0.5022,0.5022,0.4962,0.4976,0.5202,0.5369,0.5389,0.5542,0.5741,0.5679,0.5572,0.5437,0.5439,0.4828,0.3974,0.2945,0.2687,0.3862,0.7493,0.6808,0.6382,0.7901,0.8068,0.8064,0.806,0.806,0.806,0.806,0.806,0.806,0.806,0.806,0.806,0.806,0.806,0.806,0.806,0.806,0.806,0.806,0.806,0.9888,1.337,1.337,1.5185,1.8673,1.8673,1.8673,-0.7105,-0.7319,-0.7685,-0.788,-0.755,0.0,-0.6892,-0.6446,-0.5875,0.0,-0.5357,-0.5689,-0.6108,-0.6648,-0.7056,-0.7419,-0.7527,-0.7558,-0.7521,-0.7525,-0.7525,-0.7525,-0.4701,-0.2742,-0.2742,0.0235,0.22,0.22,0.2357,0.2514,0.2514,0.4081,0.4603,0.3702,0.532,0.5749,0.4848,0.4823,0.4927,0.4927,0.4984,0.5011,0.5011,0.5019,0.5022,0.5022,0.5022,0.5022,0.5022,0.5022,0.5052,0.5106,0.5169,0.5196,0.5202,0.5277,0.5164,0.5032,0.4965,0.5022,0.5022,0.5022,0.5022,0.5022,0.5022,0.5022,0.5033,0.5013,0.5194,0.5394,0.5433,0.5587,0.5729,0.5704,0.5542,0.5425,0.5402,0.4012,0.2722,0.2698,0.2691,0.37,0.6906,0.4791,0.3778,0.6975,0.7817,0.8068,0.8064,0.806,0.806,0.806,0.806,0.806,0.806,0.806,0.806,0.806,0.806,0.806,0.806,0.806,0.806,0.806,0.8311,1.0055,1.337,1.3783,1.5604,1.8673,1.8673,1.8673,-0.7568,-0.7706,-0.7753,-0.7699,-0.7685,0.0,-0.6979,-0.7174,-0.7257,0.0,-0.6627,-0.679,-0.699,-0.7161,-0.7395,-0.7698,-0.7785,-0.7717,-0.7562,-0.7525,-0.7525,-0.7525,-0.5721,-0.4544,-0.4544,-0.1489,0.0471,0.0471,0.1728,0.2514,0.2514,0.4081,0.4603,0.3702,0.532,0.5749,0.4848,0.4783,0.4788,0.4788,0.4924,0.4954,0.4954,0.5,0.5022,0.5022,0.5022,0.5022,0.5022,0.5022,0.5027,0.5044,0.5106,0.5158,0.5196,0.5147,0.5153,0.5169,0.506,0.5022,0.5022,0.5022,0.5022,0.5022,0.5022,0.5022,0.5033,0.5013,0.5002,0.5166,0.5371,0.558,0.569,0.5667,0.5682,0.5662,0.5673,0.4052,0.2699,0.2694,0.2691,0.2942,0.3617,0.3192,0.2937,0.3608,0.6214,0.8068,0.8064,0.806,0.806,0.806,0.806,0.806,0.806,0.806,0.806,0.806,0.806,0.806,0.806,0.806,0.806,0.806,0.9476,1.122,1.3452,1.6262,1.801,1.8673,1.8673,1.8673,-0.7694,-0.7868,-0.7929,-0.7936,-0.776,0.0,0.0,-0.6985,-0.6892,-0.6493,-0.6522,-0.6692,-0.6945,-0.7137,-0.7378,-0.7686,-0.768,-0.7723,-0.7778,-0.757,-0.7509,-0.7464,-0.601,-0.5003,-0.497,-0.2733,-0.0862,-0.0078,0.157,0.2514,0.2514,0.3689,0.4204,0.3668,0.4888,0.5226,0.4758,0.4785,0.4801,0.4801,0.4864,0.4831,0.4937,0.4965,0.4995,0.5022,0.5022,0.5022,0.5022,0.5022,0.5022,0.5027,0.5087,0.5131,0.5153,0.5123,0.5131,0.5145,0.5052,0.5022,0.5022,0.5022,0.5022,0.5022,0.5022,0.5022,0.5027,0.4978,0.5029,0.5016,0.5188,0.5338,0.5569,0.5546,0.5582,0.533,0.442,0.3391,0.2709,0.2695,0.2691,0.2691,0.2692,0.269,0.2688,0.2687,0.5798,0.8076,0.8068,0.8064,0.806,0.806,0.806,0.806,0.806,0.806,0.806,0.806,0.806,0.806,0.806,0.806,0.806,0.806,0.9755,1.1564,1.3452,1.6016,1.7747,1.8673,1.8673,1.8673,-0.8001,-0.8241,-0.8364,-0.8289,-0.804,-0.7634,0.0,0.0,0.0,-0.6274,-0.6334,-0.6543,-0.6811,0.0,0.0,-0.7579,0.0,0.0,0.0,-0.7683,0.0,-0.7459,-0.6256,-0.5391,-0.5374,-0.3881,-0.2152,-0.0156,0.131,0.2159,0.2504,0.3279,0.3631,0.3633,0.4303,0.4699,0.4665,0.4788,0.4812,0.4812,0.4798,0.4861,0.4844,0.4932,0.4967,0.5022,0.5022,0.5022,0.5022,0.5022,0.5022,0.5025,0.5074,0.5101,0.5109,0.5098,0.5101,0.5104,0.5041,0.5022,0.5022,0.5022,0.5022,0.5022,0.5022,0.5022,0.5022,0.5022,0.4978,0.5027,0.5008,0.5174,0.5346,0.5409,0.5373,0.4964,0.3562,0.3223,0.3135,0.2772,0.2688,0.2692,0.2692,0.2692,0.2691,0.269,0.5211,0.7318,0.7989,0.8064,0.806,0.806,0.806,0.806,0.806,0.806,0.806,0.806,0.806,0.806,0.806,0.806,0.806,0.806,0.937,1.1177,1.337,1.469,1.6503,1.8673,1.8673,1.8673,-0.8954,-0.9408,-0.9401,-0.8499,-0.8668,-0.8628,-0.7224,0.0,-0.7651,-0.7105,0.0,-0.7478,-0.7476,0.0,0.0,0.0,0.0,0.0,-0.7766,-0.7673,-0.7657,-0.7747,-0.7243,-0.6921,-0.7168,-0.5604,-0.3282,-0.0151,0.0288,0.1006,0.2388,0.2906,0.3338,0.3557,0.4043,0.4435,0.4665,0.4743,0.4676,0.4749,0.4736,0.4796,0.4783,0.4836,0.4967,0.5022,0.5022,0.5022,0.5022,0.5022,0.5022,0.5022,0.5027,0.5063,0.5106,0.5052,0.5066,0.5104,0.5041,0.5022,0.5022,0.5022,0.5022,0.5022,0.5022,0.5022,0.5022,0.5022,0.5025,0.4965,0.5027,0.5051,0.5078,0.5384,0.5406,0.533,0.5158,0.5116,0.4653,0.2984,0.2673,0.2692,0.2692,0.2692,0.2691,0.269,0.3023,0.4449,0.7649,0.8064,0.806,0.806,0.806,0.806,0.806,0.806,0.806,0.806,0.806,0.806,0.806,0.806,0.806,0.806,0.8144,0.9947,1.337,1.3459,1.5268,1.8673,1.8673,1.8673,-0.9072,-0.8993,-0.8599,-0.8527,-0.8173,-0.7762,-0.7495,-0.7435,-0.7429,-0.7305,0.0,0.0,0.0,0.0,0.0,0.0,-0.759,0.0,0.0,0.0,-0.7276,0.0,0.0,0.0,-0.7301,-0.5816,-0.3851,-0.1473,-0.0423,0.0776,0.2332,0.2344,0.2716,0.3521,0.3503,0.3914,0.4665,0.4665,0.4665,0.4665,0.4763,0.4733,0.4796,0.4856,0.4916,0.4973,0.5006,0.5022,0.5022,0.5022,0.5022,0.5022,0.5022,0.5036,0.5052,0.4995,0.5008,0.5052,0.4992,0.4995,0.5022,0.5022,0.5022,0.5022,0.5022,0.5022,0.5022,0.5022,0.5022,0.5027,0.4973,0.5008,0.5043,0.5147,0.4452,0.3742,0.3742,0.3693,0.3807,0.422,0.3423,0.2692,0.2692,0.2692,0.2692,0.2691,0.4264,0.5998,0.7588,0.7867,0.7909,0.7909,0.7909,0.7929,0.7983,0.7987,0.8007,0.806,0.806,0.806,0.806,0.8015,0.7987,0.7987,0.7848,0.9622,1.3316,1.3172,1.5093,1.8673,1.8673,1.8673,-0.8602,-0.8296,-0.7894,-0.8233,-0.7662,-0.7116,-0.7544,-0.7456,-0.7348,-0.7428,-0.7394,0.0,0.0,0.0,-0.7388,-0.7577,0.0,-0.7466,0.0,-0.7113,0.0,0.0,0.0,0.0,0.0,-0.6206,-0.4628,-0.2538,-0.1277,0.027,0.2282,0.1852,0.2078,0.3196,0.2963,0.3312,0.4374,0.4592,0.4665,0.4665,0.4665,0.4771,0.4832,0.4801,0.4864,0.4937,0.4981,0.5006,0.5022,0.5022,0.5022,0.5022,0.5022,0.5022,0.5014,0.4957,0.4951,0.497,0.4946,0.4973,0.5022,0.5022,0.5022,0.5022,0.5022,0.5022,0.5022,0.5022,0.5022,0.5022,0.5022,0.4978,0.4854,0.4455,0.3362,0.2496,0.2497,0.252,0.3036,0.5026,0.3908,0.2683,0.2691,0.2692,0.2692,0.2692,0.4679,0.648,0.7376,0.7393,0.7417,0.7722,0.7718,0.7746,0.7893,0.7897,0.7925,0.7987,0.8015,0.8027,0.8027,0.7966,0.7934,0.7934,0.8258,1.0014,1.322,1.3682,1.5562,1.8673,1.8673,1.8673,-0.7406,-0.7725,-0.7742,-0.7354,-0.7292,-0.7313,-0.7184,-0.7557,-0.788,-0.7651,-0.8038,-0.835,-0.8022,-0.7968,-0.7874,-0.7645,-0.7685,0.0,0.0,0.0,0.0,0.0,0.0,0.0,0.0,-0.731,-0.5925,0.0,-0.2456,-0.1038,0.217,0.1568,0.1502,0.2375,0.2349,0.2698,0.35,0.4301,0.4665,0.4665,0.4665,0.4771,0.4829,0.4832,0.4823,0.4937,0.4937,0.497,0.5022,0.5022,0.5022,0.5022,0.5022,0.5022,0.5014,0.4957,0.4823,0.4783,0.4842,0.4973,0.5022,0.5022,0.5022,0.5022,0.5022,0.5022,0.5022,0.5022,0.5022,0.5022,0.5027,0.503,0.4557,0.2983,0.2512,0.2514,0.2517,0.2538,0.305,0.5037,0.3944,0.2741,0.2687,0.2692,0.2692,0.2692,0.2774,0.4017,0.7132,0.6697,0.6581,0.7564,0.7799,0.7799,0.7803,0.7803,0.7803,0.7807,0.7889,0.7938,0.7938,0.7938,0.7934,0.7934,0.9455,1.1299,1.322,1.4931,1.6828,1.8673,1.8673,1.8673,0.0,0.0,-0.7056,-0.7566,-0.7276,-0.6911,-0.7464,-0.7902,-0.8079,-0.7678,-0.8072,-0.8391,-0.8042,-0.7988,-0.7928,-0.7773,-0.7699,-0.7495,0.0,0.0,0.0,0.0,-0.7124,-0.716,0.0,0.0,0.0,-0.2531,-0.2276,-0.1048,0.172,0.1384,0.1608,0.2716,0.2441,0.2962,0.4301,0.4592,0.4665,0.4665,0.4665,0.4749,0.4771,0.481,0.4777,0.482,0.4902,0.4948,0.4967,0.5006,0.5,0.497,0.5006,0.4973,0.4902,0.4807,0.4812,0.4831,0.4929,0.4973,0.5022,0.5022,0.5022,0.5022,0.5022,0.5022,0.5022,0.5022,0.5022,0.5022,0.5027,0.4162,0.3217,0.2668,0.2512,0.2514,0.2514,0.2536,0.272,0.3376,0.3003,0.2538,0.2549,0.2566,0.2669,0.269,0.3343,0.4388,0.6227,0.6334,0.6595,0.7469,0.7619,0.7644,0.7705,0.7766,0.7799,0.7799,0.7827,0.7844,0.7844,0.7787,0.7754,0.7754,0.9467,1.1255,1.3164,1.4965,1.6828,1.8673,1.8673,1.8673,-0.6792,-0.6393,0.0,-0.694,-0.6681,0.0,-0.7166,-0.7672,-0.7875,-0.7428,-0.8043,-0.8491,-0.8188,-0.821,-0.8248,-0.8147,-0.7875,-0.7407,0.0,-0.6335,-0.6274,-0.6519,-0.6828,-0.7009,-0.6927,-0.6889,-0.5647,-0.2584,-0.2231,-0.106,0.0,0.1206,0.1369,0.2031,0.2202,0.2806,0.3862,0.4447,0.4665,0.4665,0.4665,0.4665,0.4665,0.4779,0.481,0.4835,0.4861,0.4839,0.494,0.4997,0.5,0.4967,0.4984,0.4946,0.4799,0.4777,0.4856,0.4875,0.4897,0.4943,0.4995,0.5014,0.5022,0.5022,0.5022,0.5022,0.5022,0.5022,0.5022,0.5022,0.5027,0.3768,0.2511,0.2512,0.2514,0.2514,0.2514,0.2529,0.2466,0.2478,0.2493,0.2509,0.2519,0.2545,0.2653,0.2673,0.3251,0.4218,0.5459,0.5733,0.6307,0.7381,0.7525,0.755,0.7607,0.7668,0.7701,0.7701,0.7733,0.775,0.775,0.7693,0.7664,0.7664,1.0067,1.1874,1.3089,1.5651,1.7557,1.8673,1.8673,1.8673]}]]